<?xml version="1.0" encoding="UTF-8" standalone="no" ?>
<gpx xmlns="http://www.topografix.com/GPX/1/1" xmlns:xsi="http://www.w3.org/2001/XMLSchema-instance" xsi:schemaLocation="http://www.topografix.com/GPX/1/1 http://www.topografix.com/GPX/1/1/gpx.xsd" version="1.1" creator="VisuGPX - https://www.visugpx.com">
  <metadata>
    <name>zorro- st jean de monts -pornic en vélo 7 aout 15</name>
    <desc><![CDATA[sur le circuit vélodyssée -st jean de monts -pornic en vélo]]></desc>
  </metadata>
  <trk>
    <name><![CDATA[Auto 07-AOU-15 09:39:36 AM]]></name>
    <trkseg>
      <trkpt lat="46.77673" lon="-2.04557">
        <ele>-5.63</ele>
        <time>2015-08-07T07:39:36Z</time>
      </trkpt>
      <trkpt lat="46.77664" lon="-2.04573">
        <ele>0.62</ele>
        <time>2015-08-07T07:39:58Z</time>
      </trkpt>
      <trkpt lat="46.77659" lon="-2.0457">
        <ele>10.71</ele>
        <time>2015-08-07T07:40:20Z</time>
      </trkpt>
      <trkpt lat="46.77665" lon="-2.0457">
        <ele>-0.82</ele>
        <time>2015-08-07T07:41:39Z</time>
      </trkpt>
      <trkpt lat="46.7766" lon="-2.04573">
        <ele>14.08</ele>
        <time>2015-08-07T07:42:10Z</time>
      </trkpt>
      <trkpt lat="46.77659" lon="-2.04572">
        <ele>14.56</ele>
        <time>2015-08-07T07:42:27Z</time>
      </trkpt>
      <trkpt lat="46.77659" lon="-2.04574">
        <ele>13.12</ele>
        <time>2015-08-07T07:42:50Z</time>
      </trkpt>
      <trkpt lat="46.77659" lon="-2.04575">
        <ele>13.12</ele>
        <time>2015-08-07T07:43:04Z</time>
      </trkpt>
      <trkpt lat="46.77659" lon="-2.04572">
        <ele>10.23</ele>
        <time>2015-08-07T07:43:28Z</time>
      </trkpt>
      <trkpt lat="46.7766" lon="-2.04571">
        <ele>8.31</ele>
        <time>2015-08-07T07:43:52Z</time>
      </trkpt>
      <trkpt lat="46.77661" lon="-2.04571">
        <ele>7.35</ele>
        <time>2015-08-07T07:44:17Z</time>
      </trkpt>
      <trkpt lat="46.77661" lon="-2.0457">
        <ele>6.87</ele>
        <time>2015-08-07T07:44:43Z</time>
      </trkpt>
      <trkpt lat="46.77661" lon="-2.0457">
        <ele>6.87</ele>
        <time>2015-08-07T07:45:08Z</time>
      </trkpt>
      <trkpt lat="46.77661" lon="-2.04571">
        <ele>7.35</ele>
        <time>2015-08-07T07:45:44Z</time>
      </trkpt>
      <trkpt lat="46.77662" lon="-2.04571">
        <ele>8.31</ele>
        <time>2015-08-07T07:46:12Z</time>
      </trkpt>
      <trkpt lat="46.77662" lon="-2.04571">
        <ele>8.79</ele>
        <time>2015-08-07T07:46:41Z</time>
      </trkpt>
      <trkpt lat="46.77663" lon="-2.04571">
        <ele>8.79</ele>
        <time>2015-08-07T07:47:07Z</time>
      </trkpt>
      <trkpt lat="46.77663" lon="-2.04572">
        <ele>8.79</ele>
        <time>2015-08-07T07:47:39Z</time>
      </trkpt>
      <trkpt lat="46.77663" lon="-2.04572">
        <ele>8.79</ele>
        <time>2015-08-07T07:48:11Z</time>
      </trkpt>
      <trkpt lat="46.77664" lon="-2.04572">
        <ele>8.79</ele>
        <time>2015-08-07T07:48:37Z</time>
      </trkpt>
      <trkpt lat="46.77663" lon="-2.04573">
        <ele>8.31</ele>
        <time>2015-08-07T07:49:05Z</time>
      </trkpt>
      <trkpt lat="46.77663" lon="-2.04573">
        <ele>7.83</ele>
        <time>2015-08-07T07:49:27Z</time>
      </trkpt>
      <trkpt lat="46.77662" lon="-2.04572">
        <ele>7.83</ele>
        <time>2015-08-07T07:49:57Z</time>
      </trkpt>
      <trkpt lat="46.77662" lon="-2.04572">
        <ele>7.35</ele>
        <time>2015-08-07T07:50:27Z</time>
      </trkpt>
      <trkpt lat="46.77662" lon="-2.04572">
        <ele>6.87</ele>
        <time>2015-08-07T07:50:58Z</time>
      </trkpt>
      <trkpt lat="46.77662" lon="-2.04573">
        <ele>6.87</ele>
        <time>2015-08-07T07:51:28Z</time>
      </trkpt>
      <trkpt lat="46.77663" lon="-2.04573">
        <ele>6.87</ele>
        <time>2015-08-07T07:51:59Z</time>
      </trkpt>
      <trkpt lat="46.77663" lon="-2.04573">
        <ele>6.87</ele>
        <time>2015-08-07T07:52:27Z</time>
      </trkpt>
      <trkpt lat="46.77663" lon="-2.0457">
        <ele>7.83</ele>
        <time>2015-08-07T07:52:49Z</time>
      </trkpt>
      <trkpt lat="46.77662" lon="-2.04569">
        <ele>7.35</ele>
        <time>2015-08-07T07:53:11Z</time>
      </trkpt>
      <trkpt lat="46.77661" lon="-2.0457">
        <ele>6.87</ele>
        <time>2015-08-07T07:53:36Z</time>
      </trkpt>
      <trkpt lat="46.77661" lon="-2.0457">
        <ele>7.35</ele>
        <time>2015-08-07T07:54:00Z</time>
      </trkpt>
      <trkpt lat="46.7766" lon="-2.04573">
        <ele>6.87</ele>
        <time>2015-08-07T07:54:22Z</time>
      </trkpt>
      <trkpt lat="46.77655" lon="-2.04575">
        <ele>5.91</ele>
        <time>2015-08-07T07:54:27Z</time>
      </trkpt>
      <trkpt lat="46.77648" lon="-2.04572">
        <ele>4.94</ele>
        <time>2015-08-07T07:54:40Z</time>
      </trkpt>
      <trkpt lat="46.77648" lon="-2.04572">
        <ele>4.46</ele>
        <time>2015-08-07T07:54:43Z</time>
      </trkpt>
      <trkpt lat="46.77645" lon="-2.04568">
        <ele>3.5</ele>
        <time>2015-08-07T07:54:59Z</time>
      </trkpt>
      <trkpt lat="46.77643" lon="-2.04565">
        <ele>3.02</ele>
        <time>2015-08-07T07:55:17Z</time>
      </trkpt>
      <trkpt lat="46.7764" lon="-2.0457">
        <ele>3.5</ele>
        <time>2015-08-07T07:55:21Z</time>
      </trkpt>
      <trkpt lat="46.77618" lon="-2.04609">
        <ele>2.54</ele>
        <time>2015-08-07T07:55:34Z</time>
      </trkpt>
      <trkpt lat="46.7759" lon="-2.04674">
        <ele>2.06</ele>
        <time>2015-08-07T07:55:49Z</time>
      </trkpt>
      <trkpt lat="46.77556" lon="-2.04746">
        <ele>0.62</ele>
        <time>2015-08-07T07:56:04Z</time>
      </trkpt>
      <trkpt lat="46.77534" lon="-2.04793">
        <ele>-0.34</ele>
        <time>2015-08-07T07:56:13Z</time>
      </trkpt>
      <trkpt lat="46.775" lon="-2.04871">
        <ele>0.14</ele>
        <time>2015-08-07T07:56:30Z</time>
      </trkpt>
      <trkpt lat="46.77481" lon="-2.04912">
        <ele>-1.3</ele>
        <time>2015-08-07T07:56:41Z</time>
      </trkpt>
      <trkpt lat="46.7745" lon="-2.04996">
        <ele>-1.3</ele>
        <time>2015-08-07T07:56:58Z</time>
      </trkpt>
      <trkpt lat="46.77475" lon="-2.05045">
        <ele>-0.82</ele>
        <time>2015-08-07T07:57:09Z</time>
      </trkpt>
      <trkpt lat="46.77517" lon="-2.051">
        <ele>-0.82</ele>
        <time>2015-08-07T07:57:25Z</time>
      </trkpt>
      <trkpt lat="46.77538" lon="-2.05127">
        <ele>0.62</ele>
        <time>2015-08-07T07:57:35Z</time>
      </trkpt>
      <trkpt lat="46.77583" lon="-2.05187">
        <ele>1.1</ele>
        <time>2015-08-07T07:57:51Z</time>
      </trkpt>
      <trkpt lat="46.7763" lon="-2.0525">
        <ele>2.06</ele>
        <time>2015-08-07T07:58:07Z</time>
      </trkpt>
      <trkpt lat="46.77659" lon="-2.05288">
        <ele>2.06</ele>
        <time>2015-08-07T07:58:20Z</time>
      </trkpt>
      <trkpt lat="46.77687" lon="-2.0533">
        <ele>2.06</ele>
        <time>2015-08-07T07:58:32Z</time>
      </trkpt>
      <trkpt lat="46.77731" lon="-2.054">
        <ele>3.5</ele>
        <time>2015-08-07T07:58:50Z</time>
      </trkpt>
      <trkpt lat="46.77753" lon="-2.05435">
        <ele>5.91</ele>
        <time>2015-08-07T07:59:01Z</time>
      </trkpt>
      <trkpt lat="46.77736" lon="-2.05484">
        <ele>5.91</ele>
        <time>2015-08-07T07:59:13Z</time>
      </trkpt>
      <trkpt lat="46.77709" lon="-2.05564">
        <ele>3.5</ele>
        <time>2015-08-07T07:59:29Z</time>
      </trkpt>
      <trkpt lat="46.77694" lon="-2.05603">
        <ele>2.54</ele>
        <time>2015-08-07T07:59:39Z</time>
      </trkpt>
      <trkpt lat="46.77692" lon="-2.05607">
        <ele>2.06</ele>
        <time>2015-08-07T07:59:40Z</time>
      </trkpt>
      <trkpt lat="46.77674" lon="-2.05668">
        <ele>-0.34</ele>
        <time>2015-08-07T07:59:52Z</time>
      </trkpt>
      <trkpt lat="46.77666" lon="-2.0569">
        <ele>-1.3</ele>
        <time>2015-08-07T07:59:56Z</time>
      </trkpt>
      <trkpt lat="46.77658" lon="-2.05711">
        <ele>-2.27</ele>
        <time>2015-08-07T08:00:00Z</time>
      </trkpt>
      <trkpt lat="46.77623" lon="-2.05813">
        <ele>-5.63</ele>
        <time>2015-08-07T08:00:16Z</time>
      </trkpt>
      <trkpt lat="46.77621" lon="-2.05819">
        <ele>-5.63</ele>
        <time>2015-08-07T08:00:17Z</time>
      </trkpt>
      <trkpt lat="46.77601" lon="-2.0587">
        <ele>-5.15</ele>
        <time>2015-08-07T08:00:30Z</time>
      </trkpt>
      <trkpt lat="46.77599" lon="-2.05887">
        <ele>-4.19</ele>
        <time>2015-08-07T08:00:34Z</time>
      </trkpt>
      <trkpt lat="46.77583" lon="-2.05893">
        <ele>-2.27</ele>
        <time>2015-08-07T08:00:39Z</time>
      </trkpt>
      <trkpt lat="46.77581" lon="-2.05901">
        <ele>-1.3</ele>
        <time>2015-08-07T08:00:43Z</time>
      </trkpt>
      <trkpt lat="46.77619" lon="-2.05959">
        <ele>2.54</ele>
        <time>2015-08-07T08:01:00Z</time>
      </trkpt>
      <trkpt lat="46.77671" lon="-2.06041">
        <ele>3.98</ele>
        <time>2015-08-07T08:01:19Z</time>
      </trkpt>
      <trkpt lat="46.77719" lon="-2.0612">
        <ele>4.94</ele>
        <time>2015-08-07T08:01:37Z</time>
      </trkpt>
      <trkpt lat="46.77762" lon="-2.06199">
        <ele>6.39</ele>
        <time>2015-08-07T08:01:52Z</time>
      </trkpt>
      <trkpt lat="46.77812" lon="-2.06284">
        <ele>7.83</ele>
        <time>2015-08-07T08:02:08Z</time>
      </trkpt>
      <trkpt lat="46.77845" lon="-2.06343">
        <ele>8.31</ele>
        <time>2015-08-07T08:02:19Z</time>
      </trkpt>
      <trkpt lat="46.77876" lon="-2.06355">
        <ele>7.83</ele>
        <time>2015-08-07T08:02:26Z</time>
      </trkpt>
      <trkpt lat="46.77891" lon="-2.06358">
        <ele>7.83</ele>
        <time>2015-08-07T08:02:29Z</time>
      </trkpt>
      <trkpt lat="46.7791" lon="-2.06368">
        <ele>7.35</ele>
        <time>2015-08-07T08:02:33Z</time>
      </trkpt>
      <trkpt lat="46.77929" lon="-2.06393">
        <ele>6.87</ele>
        <time>2015-08-07T08:02:38Z</time>
      </trkpt>
      <trkpt lat="46.77934" lon="-2.06404">
        <ele>7.35</ele>
        <time>2015-08-07T08:02:40Z</time>
      </trkpt>
      <trkpt lat="46.77941" lon="-2.06427">
        <ele>6.87</ele>
        <time>2015-08-07T08:02:44Z</time>
      </trkpt>
      <trkpt lat="46.77942" lon="-2.06482">
        <ele>7.35</ele>
        <time>2015-08-07T08:02:55Z</time>
      </trkpt>
      <trkpt lat="46.77943" lon="-2.06488">
        <ele>7.35</ele>
        <time>2015-08-07T08:02:56Z</time>
      </trkpt>
      <trkpt lat="46.77949" lon="-2.06513">
        <ele>7.35</ele>
        <time>2015-08-07T08:03:00Z</time>
      </trkpt>
      <trkpt lat="46.77987" lon="-2.06579">
        <ele>7.83</ele>
        <time>2015-08-07T08:03:13Z</time>
      </trkpt>
      <trkpt lat="46.78001" lon="-2.06595">
        <ele>8.31</ele>
        <time>2015-08-07T08:03:17Z</time>
      </trkpt>
      <trkpt lat="46.78009" lon="-2.066">
        <ele>8.31</ele>
        <time>2015-08-07T08:03:19Z</time>
      </trkpt>
      <trkpt lat="46.78025" lon="-2.06629">
        <ele>8.79</ele>
        <time>2015-08-07T08:03:25Z</time>
      </trkpt>
      <trkpt lat="46.78039" lon="-2.06673">
        <ele>7.83</ele>
        <time>2015-08-07T08:03:32Z</time>
      </trkpt>
      <trkpt lat="46.78058" lon="-2.06706">
        <ele>7.83</ele>
        <time>2015-08-07T08:03:38Z</time>
      </trkpt>
      <trkpt lat="46.78097" lon="-2.06736">
        <ele>7.83</ele>
        <time>2015-08-07T08:03:47Z</time>
      </trkpt>
      <trkpt lat="46.7813" lon="-2.06787">
        <ele>7.35</ele>
        <time>2015-08-07T08:03:57Z</time>
      </trkpt>
      <trkpt lat="46.7814" lon="-2.06811">
        <ele>7.35</ele>
        <time>2015-08-07T08:04:01Z</time>
      </trkpt>
      <trkpt lat="46.78148" lon="-2.0683">
        <ele>7.35</ele>
        <time>2015-08-07T08:04:04Z</time>
      </trkpt>
      <trkpt lat="46.78154" lon="-2.06856">
        <ele>7.35</ele>
        <time>2015-08-07T08:04:08Z</time>
      </trkpt>
      <trkpt lat="46.78161" lon="-2.06881">
        <ele>7.35</ele>
        <time>2015-08-07T08:04:12Z</time>
      </trkpt>
      <trkpt lat="46.78224" lon="-2.06991">
        <ele>6.87</ele>
        <time>2015-08-07T08:04:31Z</time>
      </trkpt>
      <trkpt lat="46.7823" lon="-2.07003">
        <ele>6.87</ele>
        <time>2015-08-07T08:04:33Z</time>
      </trkpt>
      <trkpt lat="46.78252" lon="-2.07034">
        <ele>6.87</ele>
        <time>2015-08-07T08:04:39Z</time>
      </trkpt>
      <trkpt lat="46.78277" lon="-2.07081">
        <ele>6.39</ele>
        <time>2015-08-07T08:04:47Z</time>
      </trkpt>
      <trkpt lat="46.78288" lon="-2.07113">
        <ele>6.39</ele>
        <time>2015-08-07T08:04:52Z</time>
      </trkpt>
      <trkpt lat="46.78334" lon="-2.07206">
        <ele>6.87</ele>
        <time>2015-08-07T08:05:08Z</time>
      </trkpt>
      <trkpt lat="46.78364" lon="-2.07264">
        <ele>6.87</ele>
        <time>2015-08-07T08:05:20Z</time>
      </trkpt>
      <trkpt lat="46.78383" lon="-2.0731">
        <ele>7.35</ele>
        <time>2015-08-07T08:05:28Z</time>
      </trkpt>
      <trkpt lat="46.78401" lon="-2.07349">
        <ele>6.87</ele>
        <time>2015-08-07T08:05:34Z</time>
      </trkpt>
      <trkpt lat="46.78452" lon="-2.07466">
        <ele>5.91</ele>
        <time>2015-08-07T08:05:52Z</time>
      </trkpt>
      <trkpt lat="46.78487" lon="-2.07554">
        <ele>3.98</ele>
        <time>2015-08-07T08:06:04Z</time>
      </trkpt>
      <trkpt lat="46.785" lon="-2.0758">
        <ele>3.98</ele>
        <time>2015-08-07T08:06:08Z</time>
      </trkpt>
      <trkpt lat="46.78546" lon="-2.07683">
        <ele>5.91</ele>
        <time>2015-08-07T08:06:27Z</time>
      </trkpt>
      <trkpt lat="46.78595" lon="-2.07798">
        <ele>6.39</ele>
        <time>2015-08-07T08:06:47Z</time>
      </trkpt>
      <trkpt lat="46.78635" lon="-2.07893">
        <ele>6.39</ele>
        <time>2015-08-07T08:07:06Z</time>
      </trkpt>
      <trkpt lat="46.78639" lon="-2.07903">
        <ele>6.39</ele>
        <time>2015-08-07T08:07:08Z</time>
      </trkpt>
      <trkpt lat="46.78645" lon="-2.07919">
        <ele>5.91</ele>
        <time>2015-08-07T08:07:11Z</time>
      </trkpt>
      <trkpt lat="46.78682" lon="-2.08011">
        <ele>6.39</ele>
        <time>2015-08-07T08:07:28Z</time>
      </trkpt>
      <trkpt lat="46.78707" lon="-2.08072">
        <ele>5.91</ele>
        <time>2015-08-07T08:07:39Z</time>
      </trkpt>
      <trkpt lat="46.78768" lon="-2.08212">
        <ele>3.5</ele>
        <time>2015-08-07T08:07:59Z</time>
      </trkpt>
      <trkpt lat="46.78815" lon="-2.08308">
        <ele>4.94</ele>
        <time>2015-08-07T08:08:15Z</time>
      </trkpt>
      <trkpt lat="46.78852" lon="-2.08364">
        <ele>5.42</ele>
        <time>2015-08-07T08:08:29Z</time>
      </trkpt>
      <trkpt lat="46.78856" lon="-2.08363">
        <ele>5.42</ele>
        <time>2015-08-07T08:08:30Z</time>
      </trkpt>
      <trkpt lat="46.78877" lon="-2.08369">
        <ele>4.94</ele>
        <time>2015-08-07T08:08:35Z</time>
      </trkpt>
      <trkpt lat="46.78905" lon="-2.08386">
        <ele>4.46</ele>
        <time>2015-08-07T08:08:47Z</time>
      </trkpt>
      <trkpt lat="46.78919" lon="-2.08392">
        <ele>4.46</ele>
        <time>2015-08-07T08:08:53Z</time>
      </trkpt>
      <trkpt lat="46.78915" lon="-2.08418">
        <ele>5.42</ele>
        <time>2015-08-07T08:09:01Z</time>
      </trkpt>
      <trkpt lat="46.7891" lon="-2.08391">
        <ele>4.94</ele>
        <time>2015-08-07T08:09:08Z</time>
      </trkpt>
      <trkpt lat="46.78917" lon="-2.08384">
        <ele>4.94</ele>
        <time>2015-08-07T08:09:10Z</time>
      </trkpt>
      <trkpt lat="46.78922" lon="-2.08376">
        <ele>4.94</ele>
        <time>2015-08-07T08:09:12Z</time>
      </trkpt>
      <trkpt lat="46.78942" lon="-2.08342">
        <ele>3.98</ele>
        <time>2015-08-07T08:09:19Z</time>
      </trkpt>
      <trkpt lat="46.78955" lon="-2.08323">
        <ele>3.5</ele>
        <time>2015-08-07T08:09:23Z</time>
      </trkpt>
      <trkpt lat="46.7896" lon="-2.08314">
        <ele>3.5</ele>
        <time>2015-08-07T08:09:25Z</time>
      </trkpt>
      <trkpt lat="46.78974" lon="-2.08297">
        <ele>3.5</ele>
        <time>2015-08-07T08:09:29Z</time>
      </trkpt>
      <trkpt lat="46.79" lon="-2.08292">
        <ele>3.02</ele>
        <time>2015-08-07T08:09:34Z</time>
      </trkpt>
      <trkpt lat="46.79037" lon="-2.08321">
        <ele>2.54</ele>
        <time>2015-08-07T08:09:42Z</time>
      </trkpt>
      <trkpt lat="46.79054" lon="-2.08325">
        <ele>2.06</ele>
        <time>2015-08-07T08:09:46Z</time>
      </trkpt>
      <trkpt lat="46.79103" lon="-2.0827">
        <ele>0.14</ele>
        <time>2015-08-07T08:09:58Z</time>
      </trkpt>
      <trkpt lat="46.79125" lon="-2.08229">
        <ele>-1.79</ele>
        <time>2015-08-07T08:10:04Z</time>
      </trkpt>
      <trkpt lat="46.79141" lon="-2.08191">
        <ele>-2.75</ele>
        <time>2015-08-07T08:10:10Z</time>
      </trkpt>
      <trkpt lat="46.79151" lon="-2.08157">
        <ele>-2.75</ele>
        <time>2015-08-07T08:10:19Z</time>
      </trkpt>
      <trkpt lat="46.79167" lon="-2.08134">
        <ele>-0.82</ele>
        <time>2015-08-07T08:10:29Z</time>
      </trkpt>
      <trkpt lat="46.7918" lon="-2.08103">
        <ele>0.14</ele>
        <time>2015-08-07T08:10:38Z</time>
      </trkpt>
      <trkpt lat="46.79201" lon="-2.08082">
        <ele>1.1</ele>
        <time>2015-08-07T08:10:44Z</time>
      </trkpt>
      <trkpt lat="46.79264" lon="-2.08023">
        <ele>2.06</ele>
        <time>2015-08-07T08:10:59Z</time>
      </trkpt>
      <trkpt lat="46.79288" lon="-2.07999">
        <ele>2.06</ele>
        <time>2015-08-07T08:11:08Z</time>
      </trkpt>
      <trkpt lat="46.79291" lon="-2.07999">
        <ele>2.06</ele>
        <time>2015-08-07T08:11:10Z</time>
      </trkpt>
      <trkpt lat="46.79296" lon="-2.07997">
        <ele>1.1</ele>
        <time>2015-08-07T08:11:27Z</time>
      </trkpt>
      <trkpt lat="46.79311" lon="-2.07982">
        <ele>2.06</ele>
        <time>2015-08-07T08:11:40Z</time>
      </trkpt>
      <trkpt lat="46.79349" lon="-2.07936">
        <ele>0.62</ele>
        <time>2015-08-07T08:11:53Z</time>
      </trkpt>
      <trkpt lat="46.79372" lon="-2.07927">
        <ele>-0.82</ele>
        <time>2015-08-07T08:11:59Z</time>
      </trkpt>
      <trkpt lat="46.79408" lon="-2.07905">
        <ele>-1.79</ele>
        <time>2015-08-07T08:12:06Z</time>
      </trkpt>
      <trkpt lat="46.79427" lon="-2.07887">
        <ele>-1.3</ele>
        <time>2015-08-07T08:12:10Z</time>
      </trkpt>
      <trkpt lat="46.79462" lon="-2.07832">
        <ele>-1.79</ele>
        <time>2015-08-07T08:12:22Z</time>
      </trkpt>
      <trkpt lat="46.79489" lon="-2.07782">
        <ele>-1.3</ele>
        <time>2015-08-07T08:12:34Z</time>
      </trkpt>
      <trkpt lat="46.79528" lon="-2.07756">
        <ele>-0.34</ele>
        <time>2015-08-07T08:12:47Z</time>
      </trkpt>
      <trkpt lat="46.79565" lon="-2.07749">
        <ele>1.58</ele>
        <time>2015-08-07T08:13:00Z</time>
      </trkpt>
      <trkpt lat="46.79614" lon="-2.07728">
        <ele>4.46</ele>
        <time>2015-08-07T08:13:12Z</time>
      </trkpt>
      <trkpt lat="46.79678" lon="-2.07689">
        <ele>4.94</ele>
        <time>2015-08-07T08:13:22Z</time>
      </trkpt>
      <trkpt lat="46.79717" lon="-2.07667">
        <ele>4.46</ele>
        <time>2015-08-07T08:13:28Z</time>
      </trkpt>
      <trkpt lat="46.79737" lon="-2.07661">
        <ele>4.46</ele>
        <time>2015-08-07T08:13:31Z</time>
      </trkpt>
      <trkpt lat="46.79793" lon="-2.07676">
        <ele>3.98</ele>
        <time>2015-08-07T08:13:40Z</time>
      </trkpt>
      <trkpt lat="46.79799" lon="-2.07678">
        <ele>3.98</ele>
        <time>2015-08-07T08:13:41Z</time>
      </trkpt>
      <trkpt lat="46.79828" lon="-2.07736">
        <ele>5.42</ele>
        <time>2015-08-07T08:13:48Z</time>
      </trkpt>
      <trkpt lat="46.79829" lon="-2.07743">
        <ele>5.42</ele>
        <time>2015-08-07T08:13:49Z</time>
      </trkpt>
      <trkpt lat="46.79867" lon="-2.07854">
        <ele>5.91</ele>
        <time>2015-08-07T08:14:05Z</time>
      </trkpt>
      <trkpt lat="46.79894" lon="-2.0793">
        <ele>3.02</ele>
        <time>2015-08-07T08:14:13Z</time>
      </trkpt>
      <trkpt lat="46.79915" lon="-2.08">
        <ele>3.5</ele>
        <time>2015-08-07T08:14:24Z</time>
      </trkpt>
      <trkpt lat="46.79926" lon="-2.08047">
        <ele>2.54</ele>
        <time>2015-08-07T08:14:30Z</time>
      </trkpt>
      <trkpt lat="46.79932" lon="-2.08175">
        <ele>3.98</ele>
        <time>2015-08-07T08:14:46Z</time>
      </trkpt>
      <trkpt lat="46.79933" lon="-2.08183">
        <ele>3.98</ele>
        <time>2015-08-07T08:14:47Z</time>
      </trkpt>
      <trkpt lat="46.79959" lon="-2.08279">
        <ele>3.98</ele>
        <time>2015-08-07T08:15:01Z</time>
      </trkpt>
      <trkpt lat="46.7997" lon="-2.08307">
        <ele>3.98</ele>
        <time>2015-08-07T08:15:05Z</time>
      </trkpt>
      <trkpt lat="46.79977" lon="-2.08335">
        <ele>4.46</ele>
        <time>2015-08-07T08:15:09Z</time>
      </trkpt>
      <trkpt lat="46.79995" lon="-2.08419">
        <ele>4.46</ele>
        <time>2015-08-07T08:15:22Z</time>
      </trkpt>
      <trkpt lat="46.79999" lon="-2.08432">
        <ele>4.46</ele>
        <time>2015-08-07T08:15:24Z</time>
      </trkpt>
      <trkpt lat="46.80022" lon="-2.08537">
        <ele>3.5</ele>
        <time>2015-08-07T08:15:39Z</time>
      </trkpt>
      <trkpt lat="46.80036" lon="-2.08628">
        <ele>2.54</ele>
        <time>2015-08-07T08:15:51Z</time>
      </trkpt>
      <trkpt lat="46.80044" lon="-2.08667">
        <ele>2.54</ele>
        <time>2015-08-07T08:15:56Z</time>
      </trkpt>
      <trkpt lat="46.80066" lon="-2.08712">
        <ele>3.5</ele>
        <time>2015-08-07T08:16:03Z</time>
      </trkpt>
      <trkpt lat="46.80073" lon="-2.08732">
        <ele>3.5</ele>
        <time>2015-08-07T08:16:06Z</time>
      </trkpt>
      <trkpt lat="46.80094" lon="-2.08798">
        <ele>4.94</ele>
        <time>2015-08-07T08:16:16Z</time>
      </trkpt>
      <trkpt lat="46.80096" lon="-2.08811">
        <ele>5.42</ele>
        <time>2015-08-07T08:16:18Z</time>
      </trkpt>
      <trkpt lat="46.80106" lon="-2.08867">
        <ele>9.27</ele>
        <time>2015-08-07T08:16:28Z</time>
      </trkpt>
      <trkpt lat="46.8013" lon="-2.08933">
        <ele>11.67</ele>
        <time>2015-08-07T08:16:41Z</time>
      </trkpt>
      <trkpt lat="46.80138" lon="-2.0898">
        <ele>10.71</ele>
        <time>2015-08-07T08:16:52Z</time>
      </trkpt>
      <trkpt lat="46.8015" lon="-2.09039">
        <ele>10.71</ele>
        <time>2015-08-07T08:17:04Z</time>
      </trkpt>
      <trkpt lat="46.80157" lon="-2.09095">
        <ele>11.67</ele>
        <time>2015-08-07T08:17:15Z</time>
      </trkpt>
      <trkpt lat="46.80178" lon="-2.09166">
        <ele>12.15</ele>
        <time>2015-08-07T08:17:29Z</time>
      </trkpt>
      <trkpt lat="46.80207" lon="-2.09235">
        <ele>12.15</ele>
        <time>2015-08-07T08:17:43Z</time>
      </trkpt>
      <trkpt lat="46.8022" lon="-2.09268">
        <ele>13.6</ele>
        <time>2015-08-07T08:17:49Z</time>
      </trkpt>
      <trkpt lat="46.80248" lon="-2.09371">
        <ele>16.96</ele>
        <time>2015-08-07T08:18:05Z</time>
      </trkpt>
      <trkpt lat="46.80253" lon="-2.09384">
        <ele>16.96</ele>
        <time>2015-08-07T08:18:14Z</time>
      </trkpt>
      <trkpt lat="46.80254" lon="-2.09385">
        <ele>16.48</ele>
        <time>2015-08-07T08:18:40Z</time>
      </trkpt>
      <trkpt lat="46.80254" lon="-2.09384">
        <ele>16.96</ele>
        <time>2015-08-07T08:19:08Z</time>
      </trkpt>
      <trkpt lat="46.80254" lon="-2.09384">
        <ele>16.96</ele>
        <time>2015-08-07T08:19:21Z</time>
      </trkpt>
      <trkpt lat="46.8026" lon="-2.09426">
        <ele>16.96</ele>
        <time>2015-08-07T08:19:34Z</time>
      </trkpt>
      <trkpt lat="46.80262" lon="-2.09427">
        <ele>17.44</ele>
        <time>2015-08-07T08:19:47Z</time>
      </trkpt>
      <trkpt lat="46.8027" lon="-2.09465">
        <ele>16.96</ele>
        <time>2015-08-07T08:19:57Z</time>
      </trkpt>
      <trkpt lat="46.80273" lon="-2.0948">
        <ele>16</ele>
        <time>2015-08-07T08:20:00Z</time>
      </trkpt>
      <trkpt lat="46.80296" lon="-2.09567">
        <ele>14.56</ele>
        <time>2015-08-07T08:20:14Z</time>
      </trkpt>
      <trkpt lat="46.80332" lon="-2.09654">
        <ele>10.71</ele>
        <time>2015-08-07T08:20:28Z</time>
      </trkpt>
      <trkpt lat="46.80336" lon="-2.09665">
        <ele>10.23</ele>
        <time>2015-08-07T08:20:30Z</time>
      </trkpt>
      <trkpt lat="46.80343" lon="-2.09705">
        <ele>7.83</ele>
        <time>2015-08-07T08:20:35Z</time>
      </trkpt>
      <trkpt lat="46.80368" lon="-2.09761">
        <ele>6.87</ele>
        <time>2015-08-07T08:20:42Z</time>
      </trkpt>
      <trkpt lat="46.80381" lon="-2.09799">
        <ele>6.39</ele>
        <time>2015-08-07T08:20:47Z</time>
      </trkpt>
      <trkpt lat="46.80385" lon="-2.09812">
        <ele>6.39</ele>
        <time>2015-08-07T08:20:49Z</time>
      </trkpt>
      <trkpt lat="46.80405" lon="-2.0984">
        <ele>6.39</ele>
        <time>2015-08-07T08:20:54Z</time>
      </trkpt>
      <trkpt lat="46.80449" lon="-2.09884">
        <ele>6.39</ele>
        <time>2015-08-07T08:21:02Z</time>
      </trkpt>
      <trkpt lat="46.80468" lon="-2.09926">
        <ele>5.42</ele>
        <time>2015-08-07T08:21:07Z</time>
      </trkpt>
      <trkpt lat="46.80478" lon="-2.0997">
        <ele>3.98</ele>
        <time>2015-08-07T08:21:11Z</time>
      </trkpt>
      <trkpt lat="46.80505" lon="-2.10087">
        <ele>1.58</ele>
        <time>2015-08-07T08:21:23Z</time>
      </trkpt>
      <trkpt lat="46.80503" lon="-2.10133">
        <ele>-0.34</ele>
        <time>2015-08-07T08:21:31Z</time>
      </trkpt>
      <trkpt lat="46.80516" lon="-2.10161">
        <ele>-0.34</ele>
        <time>2015-08-07T08:21:40Z</time>
      </trkpt>
      <trkpt lat="46.80544" lon="-2.10229">
        <ele>-3.23</ele>
        <time>2015-08-07T08:21:53Z</time>
      </trkpt>
      <trkpt lat="46.80552" lon="-2.10276">
        <ele>-5.15</ele>
        <time>2015-08-07T08:22:01Z</time>
      </trkpt>
      <trkpt lat="46.80578" lon="-2.10365">
        <ele>-6.59</ele>
        <time>2015-08-07T08:22:13Z</time>
      </trkpt>
      <trkpt lat="46.80596" lon="-2.10464">
        <ele>-5.15</ele>
        <time>2015-08-07T08:22:25Z</time>
      </trkpt>
      <trkpt lat="46.80621" lon="-2.10556">
        <ele>-4.19</ele>
        <time>2015-08-07T08:22:39Z</time>
      </trkpt>
      <trkpt lat="46.80631" lon="-2.10597">
        <ele>-3.23</ele>
        <time>2015-08-07T08:22:45Z</time>
      </trkpt>
      <trkpt lat="46.80648" lon="-2.10675">
        <ele>0.14</ele>
        <time>2015-08-07T08:22:58Z</time>
      </trkpt>
      <trkpt lat="46.80652" lon="-2.10698">
        <ele>-0.82</ele>
        <time>2015-08-07T08:23:01Z</time>
      </trkpt>
      <trkpt lat="46.80657" lon="-2.10724">
        <ele>-1.3</ele>
        <time>2015-08-07T08:23:04Z</time>
      </trkpt>
      <trkpt lat="46.80679" lon="-2.10762">
        <ele>-4.19</ele>
        <time>2015-08-07T08:23:10Z</time>
      </trkpt>
      <trkpt lat="46.80686" lon="-2.10775">
        <ele>-5.15</ele>
        <time>2015-08-07T08:23:12Z</time>
      </trkpt>
      <trkpt lat="46.80723" lon="-2.10849">
        <ele>-9</ele>
        <time>2015-08-07T08:23:26Z</time>
      </trkpt>
      <trkpt lat="46.80731" lon="-2.10863">
        <ele>-9.48</ele>
        <time>2015-08-07T08:23:29Z</time>
      </trkpt>
      <trkpt lat="46.80744" lon="-2.10884">
        <ele>-10.92</ele>
        <time>2015-08-07T08:23:33Z</time>
      </trkpt>
      <trkpt lat="46.80752" lon="-2.10899">
        <ele>-11.4</ele>
        <time>2015-08-07T08:23:36Z</time>
      </trkpt>
      <trkpt lat="46.80774" lon="-2.10948">
        <ele>-12.36</ele>
        <time>2015-08-07T08:23:44Z</time>
      </trkpt>
      <trkpt lat="46.80781" lon="-2.10968">
        <ele>-12.36</ele>
        <time>2015-08-07T08:23:47Z</time>
      </trkpt>
      <trkpt lat="46.80791" lon="-2.11007">
        <ele>-12.36</ele>
        <time>2015-08-07T08:23:52Z</time>
      </trkpt>
      <trkpt lat="46.80814" lon="-2.11086">
        <ele>-11.88</ele>
        <time>2015-08-07T08:24:04Z</time>
      </trkpt>
      <trkpt lat="46.80818" lon="-2.11105">
        <ele>-11.88</ele>
        <time>2015-08-07T08:24:07Z</time>
      </trkpt>
      <trkpt lat="46.80837" lon="-2.11178">
        <ele>-11.88</ele>
        <time>2015-08-07T08:24:18Z</time>
      </trkpt>
      <trkpt lat="46.80857" lon="-2.112">
        <ele>-7.55</ele>
        <time>2015-08-07T08:24:25Z</time>
      </trkpt>
      <trkpt lat="46.80884" lon="-2.11283">
        <ele>-1.79</ele>
        <time>2015-08-07T08:24:40Z</time>
      </trkpt>
      <trkpt lat="46.80914" lon="-2.11383">
        <ele>-2.27</ele>
        <time>2015-08-07T08:24:56Z</time>
      </trkpt>
      <trkpt lat="46.80942" lon="-2.11466">
        <ele>-2.75</ele>
        <time>2015-08-07T08:25:08Z</time>
      </trkpt>
      <trkpt lat="46.80953" lon="-2.11492">
        <ele>-2.75</ele>
        <time>2015-08-07T08:25:12Z</time>
      </trkpt>
      <trkpt lat="46.80988" lon="-2.1159">
        <ele>-0.82</ele>
        <time>2015-08-07T08:25:29Z</time>
      </trkpt>
      <trkpt lat="46.80993" lon="-2.11602">
        <ele>-0.82</ele>
        <time>2015-08-07T08:25:31Z</time>
      </trkpt>
      <trkpt lat="46.81" lon="-2.11633">
        <ele>0.14</ele>
        <time>2015-08-07T08:25:36Z</time>
      </trkpt>
      <trkpt lat="46.81006" lon="-2.11691">
        <ele>1.58</ele>
        <time>2015-08-07T08:25:44Z</time>
      </trkpt>
      <trkpt lat="46.81009" lon="-2.11706">
        <ele>2.06</ele>
        <time>2015-08-07T08:25:46Z</time>
      </trkpt>
      <trkpt lat="46.81039" lon="-2.11789">
        <ele>3.98</ele>
        <time>2015-08-07T08:26:01Z</time>
      </trkpt>
      <trkpt lat="46.81064" lon="-2.11826">
        <ele>5.42</ele>
        <time>2015-08-07T08:26:13Z</time>
      </trkpt>
      <trkpt lat="46.81069" lon="-2.11835">
        <ele>6.87</ele>
        <time>2015-08-07T08:26:17Z</time>
      </trkpt>
      <trkpt lat="46.8108" lon="-2.11841">
        <ele>7.35</ele>
        <time>2015-08-07T08:26:22Z</time>
      </trkpt>
      <trkpt lat="46.81124" lon="-2.11866">
        <ele>6.87</ele>
        <time>2015-08-07T08:26:34Z</time>
      </trkpt>
      <trkpt lat="46.81177" lon="-2.11899">
        <ele>4.46</ele>
        <time>2015-08-07T08:26:45Z</time>
      </trkpt>
      <trkpt lat="46.81237" lon="-2.11978">
        <ele>4.94</ele>
        <time>2015-08-07T08:27:00Z</time>
      </trkpt>
      <trkpt lat="46.81285" lon="-2.12063">
        <ele>6.87</ele>
        <time>2015-08-07T08:27:15Z</time>
      </trkpt>
      <trkpt lat="46.81291" lon="-2.12075">
        <ele>6.87</ele>
        <time>2015-08-07T08:27:17Z</time>
      </trkpt>
      <trkpt lat="46.81302" lon="-2.12097">
        <ele>6.87</ele>
        <time>2015-08-07T08:27:21Z</time>
      </trkpt>
      <trkpt lat="46.81313" lon="-2.12121">
        <ele>6.39</ele>
        <time>2015-08-07T08:27:25Z</time>
      </trkpt>
      <trkpt lat="46.81323" lon="-2.12145">
        <ele>5.91</ele>
        <time>2015-08-07T08:27:29Z</time>
      </trkpt>
      <trkpt lat="46.81336" lon="-2.12171">
        <ele>4.94</ele>
        <time>2015-08-07T08:27:34Z</time>
      </trkpt>
      <trkpt lat="46.81323" lon="-2.12201">
        <ele>4.94</ele>
        <time>2015-08-07T08:27:44Z</time>
      </trkpt>
      <trkpt lat="46.8131" lon="-2.12215">
        <ele>4.46</ele>
        <time>2015-08-07T08:27:48Z</time>
      </trkpt>
      <trkpt lat="46.81283" lon="-2.12274">
        <ele>3.02</ele>
        <time>2015-08-07T08:28:01Z</time>
      </trkpt>
      <trkpt lat="46.81282" lon="-2.12277">
        <ele>2.54</ele>
        <time>2015-08-07T08:28:02Z</time>
      </trkpt>
      <trkpt lat="46.81283" lon="-2.12291">
        <ele>3.5</ele>
        <time>2015-08-07T08:28:08Z</time>
      </trkpt>
      <trkpt lat="46.81296" lon="-2.12337">
        <ele>4.46</ele>
        <time>2015-08-07T08:28:20Z</time>
      </trkpt>
      <trkpt lat="46.81307" lon="-2.12367">
        <ele>4.94</ele>
        <time>2015-08-07T08:28:26Z</time>
      </trkpt>
      <trkpt lat="46.81318" lon="-2.12392">
        <ele>5.91</ele>
        <time>2015-08-07T08:28:31Z</time>
      </trkpt>
      <trkpt lat="46.81341" lon="-2.12381">
        <ele>5.42</ele>
        <time>2015-08-07T08:28:37Z</time>
      </trkpt>
      <trkpt lat="46.81387" lon="-2.12381">
        <ele>5.42</ele>
        <time>2015-08-07T08:28:49Z</time>
      </trkpt>
      <trkpt lat="46.81426" lon="-2.12439">
        <ele>7.35</ele>
        <time>2015-08-07T08:29:02Z</time>
      </trkpt>
      <trkpt lat="46.81462" lon="-2.12474">
        <ele>8.31</ele>
        <time>2015-08-07T08:29:11Z</time>
      </trkpt>
      <trkpt lat="46.81493" lon="-2.12496">
        <ele>8.31</ele>
        <time>2015-08-07T08:29:16Z</time>
      </trkpt>
      <trkpt lat="46.81542" lon="-2.1255">
        <ele>9.27</ele>
        <time>2015-08-07T08:29:27Z</time>
      </trkpt>
      <trkpt lat="46.8157" lon="-2.12576">
        <ele>9.27</ele>
        <time>2015-08-07T08:29:34Z</time>
      </trkpt>
      <trkpt lat="46.81587" lon="-2.12599">
        <ele>7.83</ele>
        <time>2015-08-07T08:29:37Z</time>
      </trkpt>
      <trkpt lat="46.81613" lon="-2.12645">
        <ele>3.5</ele>
        <time>2015-08-07T08:29:44Z</time>
      </trkpt>
      <trkpt lat="46.81635" lon="-2.12691">
        <ele>0.14</ele>
        <time>2015-08-07T08:29:50Z</time>
      </trkpt>
      <trkpt lat="46.81661" lon="-2.12781">
        <ele>-2.75</ele>
        <time>2015-08-07T08:30:02Z</time>
      </trkpt>
      <trkpt lat="46.8169" lon="-2.12847">
        <ele>-4.19</ele>
        <time>2015-08-07T08:30:13Z</time>
      </trkpt>
      <trkpt lat="46.817" lon="-2.12869">
        <ele>-4.67</ele>
        <time>2015-08-07T08:30:17Z</time>
      </trkpt>
      <trkpt lat="46.81717" lon="-2.12895">
        <ele>-5.63</ele>
        <time>2015-08-07T08:30:22Z</time>
      </trkpt>
      <trkpt lat="46.81733" lon="-2.12918">
        <ele>-6.59</ele>
        <time>2015-08-07T08:30:26Z</time>
      </trkpt>
      <trkpt lat="46.81744" lon="-2.12934">
        <ele>-6.59</ele>
        <time>2015-08-07T08:30:29Z</time>
      </trkpt>
      <trkpt lat="46.81803" lon="-2.13019">
        <ele>-8.51</ele>
        <time>2015-08-07T08:30:43Z</time>
      </trkpt>
      <trkpt lat="46.81809" lon="-2.1303">
        <ele>-9.48</ele>
        <time>2015-08-07T08:30:45Z</time>
      </trkpt>
      <trkpt lat="46.81834" lon="-2.13049">
        <ele>-9</ele>
        <time>2015-08-07T08:30:51Z</time>
      </trkpt>
      <trkpt lat="46.81901" lon="-2.1308">
        <ele>-7.07</ele>
        <time>2015-08-07T08:31:03Z</time>
      </trkpt>
      <trkpt lat="46.81926" lon="-2.13108">
        <ele>-7.07</ele>
        <time>2015-08-07T08:31:09Z</time>
      </trkpt>
      <trkpt lat="46.81931" lon="-2.13124">
        <ele>-7.55</ele>
        <time>2015-08-07T08:31:12Z</time>
      </trkpt>
      <trkpt lat="46.8194" lon="-2.13143">
        <ele>-7.55</ele>
        <time>2015-08-07T08:31:16Z</time>
      </trkpt>
      <trkpt lat="46.81968" lon="-2.13177">
        <ele>-6.59</ele>
        <time>2015-08-07T08:31:26Z</time>
      </trkpt>
      <trkpt lat="46.81986" lon="-2.13207">
        <ele>-6.59</ele>
        <time>2015-08-07T08:31:31Z</time>
      </trkpt>
      <trkpt lat="46.82" lon="-2.13246">
        <ele>-10.44</ele>
        <time>2015-08-07T08:31:35Z</time>
      </trkpt>
      <trkpt lat="46.82003" lon="-2.13265">
        <ele>-10.44</ele>
        <time>2015-08-07T08:31:37Z</time>
      </trkpt>
      <trkpt lat="46.82001" lon="-2.13321">
        <ele>-14.28</ele>
        <time>2015-08-07T08:31:45Z</time>
      </trkpt>
      <trkpt lat="46.81995" lon="-2.13392">
        <ele>-20.05</ele>
        <time>2015-08-07T08:31:57Z</time>
      </trkpt>
      <trkpt lat="46.81994" lon="-2.1342">
        <ele>-21.49</ele>
        <time>2015-08-07T08:32:01Z</time>
      </trkpt>
      <trkpt lat="46.81992" lon="-2.13452">
        <ele>-22.45</ele>
        <time>2015-08-07T08:32:06Z</time>
      </trkpt>
      <trkpt lat="46.81997" lon="-2.1351">
        <ele>-21.97</ele>
        <time>2015-08-07T08:32:15Z</time>
      </trkpt>
      <trkpt lat="46.82004" lon="-2.13557">
        <ele>-21.49</ele>
        <time>2015-08-07T08:32:23Z</time>
      </trkpt>
      <trkpt lat="46.8201" lon="-2.13586">
        <ele>-17.65</ele>
        <time>2015-08-07T08:32:27Z</time>
      </trkpt>
      <trkpt lat="46.82017" lon="-2.13616">
        <ele>-16.69</ele>
        <time>2015-08-07T08:32:31Z</time>
      </trkpt>
      <trkpt lat="46.82025" lon="-2.13661">
        <ele>-13.32</ele>
        <time>2015-08-07T08:32:37Z</time>
      </trkpt>
      <trkpt lat="46.82036" lon="-2.13696">
        <ele>-9.96</ele>
        <time>2015-08-07T08:32:43Z</time>
      </trkpt>
      <trkpt lat="46.82054" lon="-2.13718">
        <ele>-3.71</ele>
        <time>2015-08-07T08:32:53Z</time>
      </trkpt>
      <trkpt lat="46.82077" lon="-2.13729">
        <ele>-0.82</ele>
        <time>2015-08-07T08:32:59Z</time>
      </trkpt>
      <trkpt lat="46.8213" lon="-2.1375">
        <ele>1.58</ele>
        <time>2015-08-07T08:33:09Z</time>
      </trkpt>
      <trkpt lat="46.82166" lon="-2.13761">
        <ele>5.42</ele>
        <time>2015-08-07T08:33:18Z</time>
      </trkpt>
      <trkpt lat="46.82191" lon="-2.13771">
        <ele>6.39</ele>
        <time>2015-08-07T08:33:23Z</time>
      </trkpt>
      <trkpt lat="46.82207" lon="-2.13773">
        <ele>5.42</ele>
        <time>2015-08-07T08:33:27Z</time>
      </trkpt>
      <trkpt lat="46.82235" lon="-2.13789">
        <ele>6.87</ele>
        <time>2015-08-07T08:33:37Z</time>
      </trkpt>
      <trkpt lat="46.8224" lon="-2.13791">
        <ele>7.35</ele>
        <time>2015-08-07T08:33:39Z</time>
      </trkpt>
      <trkpt lat="46.82279" lon="-2.13802">
        <ele>9.75</ele>
        <time>2015-08-07T08:33:52Z</time>
      </trkpt>
      <trkpt lat="46.82317" lon="-2.13815">
        <ele>12.15</ele>
        <time>2015-08-07T08:34:03Z</time>
      </trkpt>
      <trkpt lat="46.82373" lon="-2.13827">
        <ele>13.12</ele>
        <time>2015-08-07T08:34:16Z</time>
      </trkpt>
      <trkpt lat="46.82439" lon="-2.13843">
        <ele>11.67</ele>
        <time>2015-08-07T08:34:28Z</time>
      </trkpt>
      <trkpt lat="46.82483" lon="-2.13856">
        <ele>12.63</ele>
        <time>2015-08-07T08:34:36Z</time>
      </trkpt>
      <trkpt lat="46.82506" lon="-2.13859">
        <ele>13.6</ele>
        <time>2015-08-07T08:34:40Z</time>
      </trkpt>
      <trkpt lat="46.82548" lon="-2.13877">
        <ele>15.04</ele>
        <time>2015-08-07T08:34:49Z</time>
      </trkpt>
      <trkpt lat="46.82575" lon="-2.13886">
        <ele>12.15</ele>
        <time>2015-08-07T08:34:58Z</time>
      </trkpt>
      <trkpt lat="46.82583" lon="-2.13887">
        <ele>10.71</ele>
        <time>2015-08-07T08:35:01Z</time>
      </trkpt>
      <trkpt lat="46.82594" lon="-2.13895">
        <ele>10.71</ele>
        <time>2015-08-07T08:35:05Z</time>
      </trkpt>
      <trkpt lat="46.8262" lon="-2.13907">
        <ele>9.75</ele>
        <time>2015-08-07T08:35:15Z</time>
      </trkpt>
      <trkpt lat="46.82634" lon="-2.13916">
        <ele>9.75</ele>
        <time>2015-08-07T08:35:18Z</time>
      </trkpt>
      <trkpt lat="46.82686" lon="-2.13935">
        <ele>9.27</ele>
        <time>2015-08-07T08:35:30Z</time>
      </trkpt>
      <trkpt lat="46.82691" lon="-2.13938">
        <ele>8.79</ele>
        <time>2015-08-07T08:35:31Z</time>
      </trkpt>
      <trkpt lat="46.82749" lon="-2.13948">
        <ele>9.27</ele>
        <time>2015-08-07T08:35:43Z</time>
      </trkpt>
      <trkpt lat="46.82815" lon="-2.13963">
        <ele>9.75</ele>
        <time>2015-08-07T08:35:58Z</time>
      </trkpt>
      <trkpt lat="46.82832" lon="-2.13961">
        <ele>10.71</ele>
        <time>2015-08-07T08:36:03Z</time>
      </trkpt>
      <trkpt lat="46.82871" lon="-2.13961">
        <ele>11.67</ele>
        <time>2015-08-07T08:36:14Z</time>
      </trkpt>
      <trkpt lat="46.82903" lon="-2.13961">
        <ele>10.71</ele>
        <time>2015-08-07T08:36:24Z</time>
      </trkpt>
      <trkpt lat="46.82966" lon="-2.13985">
        <ele>10.23</ele>
        <time>2015-08-07T08:36:37Z</time>
      </trkpt>
      <trkpt lat="46.82991" lon="-2.1399">
        <ele>9.75</ele>
        <time>2015-08-07T08:36:42Z</time>
      </trkpt>
      <trkpt lat="46.8306" lon="-2.14012">
        <ele>9.75</ele>
        <time>2015-08-07T08:36:57Z</time>
      </trkpt>
      <trkpt lat="46.83074" lon="-2.14017">
        <ele>9.75</ele>
        <time>2015-08-07T08:37:00Z</time>
      </trkpt>
      <trkpt lat="46.83087" lon="-2.14018">
        <ele>10.23</ele>
        <time>2015-08-07T08:37:03Z</time>
      </trkpt>
      <trkpt lat="46.83117" lon="-2.14016">
        <ele>10.23</ele>
        <time>2015-08-07T08:37:14Z</time>
      </trkpt>
      <trkpt lat="46.83129" lon="-2.14008">
        <ele>10.23</ele>
        <time>2015-08-07T08:37:19Z</time>
      </trkpt>
      <trkpt lat="46.83165" lon="-2.13978">
        <ele>7.83</ele>
        <time>2015-08-07T08:37:29Z</time>
      </trkpt>
      <trkpt lat="46.83226" lon="-2.13935">
        <ele>6.39</ele>
        <time>2015-08-07T08:37:44Z</time>
      </trkpt>
      <trkpt lat="46.8329" lon="-2.13891">
        <ele>5.42</ele>
        <time>2015-08-07T08:37:57Z</time>
      </trkpt>
      <trkpt lat="46.83352" lon="-2.13854">
        <ele>6.87</ele>
        <time>2015-08-07T08:38:11Z</time>
      </trkpt>
      <trkpt lat="46.8339" lon="-2.13831">
        <ele>8.79</ele>
        <time>2015-08-07T08:38:24Z</time>
      </trkpt>
      <trkpt lat="46.8342" lon="-2.13812">
        <ele>9.75</ele>
        <time>2015-08-07T08:38:33Z</time>
      </trkpt>
      <trkpt lat="46.83444" lon="-2.13809">
        <ele>8.79</ele>
        <time>2015-08-07T08:38:41Z</time>
      </trkpt>
      <trkpt lat="46.83488" lon="-2.13815">
        <ele>7.83</ele>
        <time>2015-08-07T08:38:53Z</time>
      </trkpt>
      <trkpt lat="46.835" lon="-2.13816">
        <ele>7.83</ele>
        <time>2015-08-07T08:38:56Z</time>
      </trkpt>
      <trkpt lat="46.83542" lon="-2.13813">
        <ele>5.42</ele>
        <time>2015-08-07T08:39:05Z</time>
      </trkpt>
      <trkpt lat="46.83555" lon="-2.13809">
        <ele>4.46</ele>
        <time>2015-08-07T08:39:08Z</time>
      </trkpt>
      <trkpt lat="46.83613" lon="-2.13781">
        <ele>0.62</ele>
        <time>2015-08-07T08:39:20Z</time>
      </trkpt>
      <trkpt lat="46.83663" lon="-2.13765">
        <ele>-3.71</ele>
        <time>2015-08-07T08:39:32Z</time>
      </trkpt>
      <trkpt lat="46.83707" lon="-2.13757">
        <ele>-6.59</ele>
        <time>2015-08-07T08:39:43Z</time>
      </trkpt>
      <trkpt lat="46.83741" lon="-2.13779">
        <ele>-3.23</ele>
        <time>2015-08-07T08:39:53Z</time>
      </trkpt>
      <trkpt lat="46.83753" lon="-2.13783">
        <ele>-2.75</ele>
        <time>2015-08-07T08:39:56Z</time>
      </trkpt>
      <trkpt lat="46.83785" lon="-2.13797">
        <ele>-2.27</ele>
        <time>2015-08-07T08:40:03Z</time>
      </trkpt>
      <trkpt lat="46.83829" lon="-2.13822">
        <ele>-1.79</ele>
        <time>2015-08-07T08:40:11Z</time>
      </trkpt>
      <trkpt lat="46.83877" lon="-2.1383">
        <ele>-1.3</ele>
        <time>2015-08-07T08:40:21Z</time>
      </trkpt>
      <trkpt lat="46.83898" lon="-2.13851">
        <ele>-1.79</ele>
        <time>2015-08-07T08:40:27Z</time>
      </trkpt>
      <trkpt lat="46.83959" lon="-2.13881">
        <ele>-3.23</ele>
        <time>2015-08-07T08:40:39Z</time>
      </trkpt>
      <trkpt lat="46.84014" lon="-2.139">
        <ele>-3.71</ele>
        <time>2015-08-07T08:40:48Z</time>
      </trkpt>
      <trkpt lat="46.84044" lon="-2.13907">
        <ele>-3.71</ele>
        <time>2015-08-07T08:40:53Z</time>
      </trkpt>
      <trkpt lat="46.84116" lon="-2.13927">
        <ele>-0.82</ele>
        <time>2015-08-07T08:41:07Z</time>
      </trkpt>
      <trkpt lat="46.84138" lon="-2.1393">
        <ele>0.62</ele>
        <time>2015-08-07T08:41:11Z</time>
      </trkpt>
      <trkpt lat="46.84172" lon="-2.1391">
        <ele>-3.71</ele>
        <time>2015-08-07T08:41:19Z</time>
      </trkpt>
      <trkpt lat="46.84174" lon="-2.13908">
        <ele>-4.19</ele>
        <time>2015-08-07T08:41:20Z</time>
      </trkpt>
      <trkpt lat="46.84175" lon="-2.13893">
        <ele>-4.67</ele>
        <time>2015-08-07T08:41:24Z</time>
      </trkpt>
      <trkpt lat="46.84165" lon="-2.13832">
        <ele>-5.63</ele>
        <time>2015-08-07T08:41:36Z</time>
      </trkpt>
      <trkpt lat="46.84162" lon="-2.13806">
        <ele>-6.11</ele>
        <time>2015-08-07T08:41:40Z</time>
      </trkpt>
      <trkpt lat="46.84153" lon="-2.13702">
        <ele>-8.03</ele>
        <time>2015-08-07T08:41:53Z</time>
      </trkpt>
      <trkpt lat="46.84155" lon="-2.13633">
        <ele>-12.36</ele>
        <time>2015-08-07T08:42:04Z</time>
      </trkpt>
      <trkpt lat="46.84156" lon="-2.1361">
        <ele>-14.76</ele>
        <time>2015-08-07T08:42:08Z</time>
      </trkpt>
      <trkpt lat="46.84148" lon="-2.13552">
        <ele>-21.97</ele>
        <time>2015-08-07T08:42:19Z</time>
      </trkpt>
      <trkpt lat="46.84153" lon="-2.13492">
        <ele>-23.9</ele>
        <time>2015-08-07T08:42:29Z</time>
      </trkpt>
      <trkpt lat="46.84159" lon="-2.13488">
        <ele>-19.57</ele>
        <time>2015-08-07T08:42:39Z</time>
      </trkpt>
      <trkpt lat="46.84173" lon="-2.13482">
        <ele>-17.17</ele>
        <time>2015-08-07T08:42:45Z</time>
      </trkpt>
      <trkpt lat="46.8419" lon="-2.13477">
        <ele>-16.21</ele>
        <time>2015-08-07T08:42:49Z</time>
      </trkpt>
      <trkpt lat="46.84235" lon="-2.13446">
        <ele>-13.32</ele>
        <time>2015-08-07T08:43:01Z</time>
      </trkpt>
      <trkpt lat="46.84263" lon="-2.1343">
        <ele>-9</ele>
        <time>2015-08-07T08:43:07Z</time>
      </trkpt>
      <trkpt lat="46.84281" lon="-2.13417">
        <ele>-6.11</ele>
        <time>2015-08-07T08:43:11Z</time>
      </trkpt>
      <trkpt lat="46.84336" lon="-2.13351">
        <ele>-5.15</ele>
        <time>2015-08-07T08:43:24Z</time>
      </trkpt>
      <trkpt lat="46.84352" lon="-2.13335">
        <ele>-6.11</ele>
        <time>2015-08-07T08:43:28Z</time>
      </trkpt>
      <trkpt lat="46.84374" lon="-2.13322">
        <ele>-7.07</ele>
        <time>2015-08-07T08:43:32Z</time>
      </trkpt>
      <trkpt lat="46.84436" lon="-2.13313">
        <ele>-3.23</ele>
        <time>2015-08-07T08:43:44Z</time>
      </trkpt>
      <trkpt lat="46.84457" lon="-2.13283">
        <ele>0.14</ele>
        <time>2015-08-07T08:43:51Z</time>
      </trkpt>
      <trkpt lat="46.84471" lon="-2.13269">
        <ele>-0.34</ele>
        <time>2015-08-07T08:43:55Z</time>
      </trkpt>
      <trkpt lat="46.84484" lon="-2.13261">
        <ele>-0.82</ele>
        <time>2015-08-07T08:43:58Z</time>
      </trkpt>
      <trkpt lat="46.84493" lon="-2.13256">
        <ele>-0.82</ele>
        <time>2015-08-07T08:44:00Z</time>
      </trkpt>
      <trkpt lat="46.84503" lon="-2.13252">
        <ele>-0.82</ele>
        <time>2015-08-07T08:44:02Z</time>
      </trkpt>
      <trkpt lat="46.84533" lon="-2.13244">
        <ele>-0.82</ele>
        <time>2015-08-07T08:44:08Z</time>
      </trkpt>
      <trkpt lat="46.84553" lon="-2.13239">
        <ele>-2.27</ele>
        <time>2015-08-07T08:44:12Z</time>
      </trkpt>
      <trkpt lat="46.84573" lon="-2.13235">
        <ele>-3.71</ele>
        <time>2015-08-07T08:44:16Z</time>
      </trkpt>
      <trkpt lat="46.84583" lon="-2.13231">
        <ele>-4.19</ele>
        <time>2015-08-07T08:44:18Z</time>
      </trkpt>
      <trkpt lat="46.84598" lon="-2.13221">
        <ele>-5.15</ele>
        <time>2015-08-07T08:44:21Z</time>
      </trkpt>
      <trkpt lat="46.8463" lon="-2.13175">
        <ele>-5.15</ele>
        <time>2015-08-07T08:44:32Z</time>
      </trkpt>
      <trkpt lat="46.84653" lon="-2.13153">
        <ele>-3.71</ele>
        <time>2015-08-07T08:44:40Z</time>
      </trkpt>
      <trkpt lat="46.84666" lon="-2.1313">
        <ele>-3.71</ele>
        <time>2015-08-07T08:44:44Z</time>
      </trkpt>
      <trkpt lat="46.84675" lon="-2.13103">
        <ele>-3.71</ele>
        <time>2015-08-07T08:44:48Z</time>
      </trkpt>
      <trkpt lat="46.84708" lon="-2.13072">
        <ele>-4.67</ele>
        <time>2015-08-07T08:44:56Z</time>
      </trkpt>
      <trkpt lat="46.84731" lon="-2.13073">
        <ele>-4.67</ele>
        <time>2015-08-07T08:45:00Z</time>
      </trkpt>
      <trkpt lat="46.84742" lon="-2.13072">
        <ele>-4.19</ele>
        <time>2015-08-07T08:45:02Z</time>
      </trkpt>
      <trkpt lat="46.84761" lon="-2.13067">
        <ele>-3.23</ele>
        <time>2015-08-07T08:45:06Z</time>
      </trkpt>
      <trkpt lat="46.84771" lon="-2.13065">
        <ele>-2.75</ele>
        <time>2015-08-07T08:45:08Z</time>
      </trkpt>
      <trkpt lat="46.84795" lon="-2.13035">
        <ele>-1.79</ele>
        <time>2015-08-07T08:45:14Z</time>
      </trkpt>
      <trkpt lat="46.84821" lon="-2.13018">
        <ele>-1.3</ele>
        <time>2015-08-07T08:45:20Z</time>
      </trkpt>
      <trkpt lat="46.84836" lon="-2.13015">
        <ele>-1.3</ele>
        <time>2015-08-07T08:45:23Z</time>
      </trkpt>
      <trkpt lat="46.84854" lon="-2.13007">
        <ele>0.14</ele>
        <time>2015-08-07T08:45:27Z</time>
      </trkpt>
      <trkpt lat="46.84902" lon="-2.12967">
        <ele>6.39</ele>
        <time>2015-08-07T08:45:39Z</time>
      </trkpt>
      <trkpt lat="46.84909" lon="-2.12963">
        <ele>7.83</ele>
        <time>2015-08-07T08:45:41Z</time>
      </trkpt>
      <trkpt lat="46.84943" lon="-2.12947">
        <ele>10.23</ele>
        <time>2015-08-07T08:45:48Z</time>
      </trkpt>
      <trkpt lat="46.8497" lon="-2.12918">
        <ele>9.75</ele>
        <time>2015-08-07T08:45:57Z</time>
      </trkpt>
      <trkpt lat="46.84981" lon="-2.12888">
        <ele>7.83</ele>
        <time>2015-08-07T08:46:07Z</time>
      </trkpt>
      <trkpt lat="46.85006" lon="-2.12858">
        <ele>8.79</ele>
        <time>2015-08-07T08:46:16Z</time>
      </trkpt>
      <trkpt lat="46.85016" lon="-2.12858">
        <ele>8.79</ele>
        <time>2015-08-07T08:46:18Z</time>
      </trkpt>
      <trkpt lat="46.85042" lon="-2.1284">
        <ele>9.27</ele>
        <time>2015-08-07T08:46:25Z</time>
      </trkpt>
      <trkpt lat="46.8505" lon="-2.12828">
        <ele>9.27</ele>
        <time>2015-08-07T08:46:27Z</time>
      </trkpt>
      <trkpt lat="46.85069" lon="-2.1281">
        <ele>9.27</ele>
        <time>2015-08-07T08:46:31Z</time>
      </trkpt>
      <trkpt lat="46.8508" lon="-2.12804">
        <ele>9.75</ele>
        <time>2015-08-07T08:46:33Z</time>
      </trkpt>
      <trkpt lat="46.85093" lon="-2.128">
        <ele>9.75</ele>
        <time>2015-08-07T08:46:35Z</time>
      </trkpt>
      <trkpt lat="46.85118" lon="-2.12798">
        <ele>10.23</ele>
        <time>2015-08-07T08:46:39Z</time>
      </trkpt>
      <trkpt lat="46.85129" lon="-2.12796">
        <ele>10.71</ele>
        <time>2015-08-07T08:46:41Z</time>
      </trkpt>
      <trkpt lat="46.85147" lon="-2.12785">
        <ele>11.67</ele>
        <time>2015-08-07T08:46:45Z</time>
      </trkpt>
      <trkpt lat="46.85193" lon="-2.12731">
        <ele>11.19</ele>
        <time>2015-08-07T08:46:55Z</time>
      </trkpt>
      <trkpt lat="46.85246" lon="-2.12657">
        <ele>8.79</ele>
        <time>2015-08-07T08:47:08Z</time>
      </trkpt>
      <trkpt lat="46.85303" lon="-2.12595">
        <ele>7.35</ele>
        <time>2015-08-07T08:47:21Z</time>
      </trkpt>
      <trkpt lat="46.85329" lon="-2.12566">
        <ele>7.35</ele>
        <time>2015-08-07T08:47:27Z</time>
      </trkpt>
      <trkpt lat="46.85342" lon="-2.12551">
        <ele>7.83</ele>
        <time>2015-08-07T08:47:30Z</time>
      </trkpt>
      <trkpt lat="46.85385" lon="-2.12499">
        <ele>9.75</ele>
        <time>2015-08-07T08:47:42Z</time>
      </trkpt>
      <trkpt lat="46.85399" lon="-2.12489">
        <ele>9.75</ele>
        <time>2015-08-07T08:47:45Z</time>
      </trkpt>
      <trkpt lat="46.85408" lon="-2.12487">
        <ele>10.23</ele>
        <time>2015-08-07T08:47:47Z</time>
      </trkpt>
      <trkpt lat="46.85424" lon="-2.12475">
        <ele>10.71</ele>
        <time>2015-08-07T08:47:51Z</time>
      </trkpt>
      <trkpt lat="46.85465" lon="-2.12414">
        <ele>6.87</ele>
        <time>2015-08-07T08:48:01Z</time>
      </trkpt>
      <trkpt lat="46.85505" lon="-2.1237">
        <ele>3.5</ele>
        <time>2015-08-07T08:48:10Z</time>
      </trkpt>
      <trkpt lat="46.85518" lon="-2.12354">
        <ele>1.58</ele>
        <time>2015-08-07T08:48:13Z</time>
      </trkpt>
      <trkpt lat="46.8553" lon="-2.12339">
        <ele>0.14</ele>
        <time>2015-08-07T08:48:16Z</time>
      </trkpt>
      <trkpt lat="46.85561" lon="-2.12312">
        <ele>-2.27</ele>
        <time>2015-08-07T08:48:23Z</time>
      </trkpt>
      <trkpt lat="46.8557" lon="-2.12306">
        <ele>-2.75</ele>
        <time>2015-08-07T08:48:25Z</time>
      </trkpt>
      <trkpt lat="46.8559" lon="-2.12302">
        <ele>-3.23</ele>
        <time>2015-08-07T08:48:29Z</time>
      </trkpt>
      <trkpt lat="46.85608" lon="-2.12299">
        <ele>-1.79</ele>
        <time>2015-08-07T08:48:32Z</time>
      </trkpt>
      <trkpt lat="46.85636" lon="-2.12298">
        <ele>-0.34</ele>
        <time>2015-08-07T08:48:37Z</time>
      </trkpt>
      <trkpt lat="46.85676" lon="-2.12269">
        <ele>1.58</ele>
        <time>2015-08-07T08:48:46Z</time>
      </trkpt>
      <trkpt lat="46.85667" lon="-2.12219">
        <ele>-2.27</ele>
        <time>2015-08-07T08:48:55Z</time>
      </trkpt>
      <trkpt lat="46.85666" lon="-2.12212">
        <ele>-2.75</ele>
        <time>2015-08-07T08:48:56Z</time>
      </trkpt>
      <trkpt lat="46.85667" lon="-2.12184">
        <ele>-4.19</ele>
        <time>2015-08-07T08:49:00Z</time>
      </trkpt>
      <trkpt lat="46.85685" lon="-2.1214">
        <ele>-3.23</ele>
        <time>2015-08-07T08:49:07Z</time>
      </trkpt>
      <trkpt lat="46.85702" lon="-2.12118">
        <ele>-1.3</ele>
        <time>2015-08-07T08:49:11Z</time>
      </trkpt>
      <trkpt lat="46.85717" lon="-2.12099">
        <ele>0.14</ele>
        <time>2015-08-07T08:49:15Z</time>
      </trkpt>
      <trkpt lat="46.85731" lon="-2.12087">
        <ele>1.1</ele>
        <time>2015-08-07T08:49:18Z</time>
      </trkpt>
      <trkpt lat="46.85747" lon="-2.12067">
        <ele>2.54</ele>
        <time>2015-08-07T08:49:22Z</time>
      </trkpt>
      <trkpt lat="46.8578" lon="-2.12038">
        <ele>1.58</ele>
        <time>2015-08-07T08:49:29Z</time>
      </trkpt>
      <trkpt lat="46.85808" lon="-2.12002">
        <ele>2.54</ele>
        <time>2015-08-07T08:49:36Z</time>
      </trkpt>
      <trkpt lat="46.85827" lon="-2.11978">
        <ele>3.02</ele>
        <time>2015-08-07T08:49:41Z</time>
      </trkpt>
      <trkpt lat="46.85845" lon="-2.11959">
        <ele>3.02</ele>
        <time>2015-08-07T08:49:45Z</time>
      </trkpt>
      <trkpt lat="46.85856" lon="-2.11915">
        <ele>1.58</ele>
        <time>2015-08-07T08:49:50Z</time>
      </trkpt>
      <trkpt lat="46.85899" lon="-2.11827">
        <ele>-3.71</ele>
        <time>2015-08-07T08:50:01Z</time>
      </trkpt>
      <trkpt lat="46.8593" lon="-2.1182">
        <ele>-5.63</ele>
        <time>2015-08-07T08:50:08Z</time>
      </trkpt>
      <trkpt lat="46.85938" lon="-2.1183">
        <ele>-5.15</ele>
        <time>2015-08-07T08:50:10Z</time>
      </trkpt>
      <trkpt lat="46.85992" lon="-2.11892">
        <ele>-3.71</ele>
        <time>2015-08-07T08:50:22Z</time>
      </trkpt>
      <trkpt lat="46.85998" lon="-2.11897">
        <ele>-3.71</ele>
        <time>2015-08-07T08:50:24Z</time>
      </trkpt>
      <trkpt lat="46.86014" lon="-2.11914">
        <ele>-4.19</ele>
        <time>2015-08-07T08:50:28Z</time>
      </trkpt>
      <trkpt lat="46.86049" lon="-2.11952">
        <ele>-3.71</ele>
        <time>2015-08-07T08:50:36Z</time>
      </trkpt>
      <trkpt lat="46.8607" lon="-2.11975">
        <ele>-2.75</ele>
        <time>2015-08-07T08:50:41Z</time>
      </trkpt>
      <trkpt lat="46.86079" lon="-2.11983">
        <ele>-2.75</ele>
        <time>2015-08-07T08:50:43Z</time>
      </trkpt>
      <trkpt lat="46.86087" lon="-2.11993">
        <ele>-2.75</ele>
        <time>2015-08-07T08:50:45Z</time>
      </trkpt>
      <trkpt lat="46.86094" lon="-2.12004">
        <ele>-2.75</ele>
        <time>2015-08-07T08:50:47Z</time>
      </trkpt>
      <trkpt lat="46.86138" lon="-2.12023">
        <ele>0.14</ele>
        <time>2015-08-07T08:50:58Z</time>
      </trkpt>
      <trkpt lat="46.86191" lon="-2.12035">
        <ele>4.46</ele>
        <time>2015-08-07T08:51:10Z</time>
      </trkpt>
      <trkpt lat="46.86223" lon="-2.12072">
        <ele>4.46</ele>
        <time>2015-08-07T08:51:20Z</time>
      </trkpt>
      <trkpt lat="46.86225" lon="-2.12085">
        <ele>5.42</ele>
        <time>2015-08-07T08:51:24Z</time>
      </trkpt>
      <trkpt lat="46.86226" lon="-2.12104">
        <ele>5.91</ele>
        <time>2015-08-07T08:51:28Z</time>
      </trkpt>
      <trkpt lat="46.86224" lon="-2.12119">
        <ele>6.39</ele>
        <time>2015-08-07T08:51:30Z</time>
      </trkpt>
      <trkpt lat="46.86215" lon="-2.12155">
        <ele>6.87</ele>
        <time>2015-08-07T08:51:35Z</time>
      </trkpt>
      <trkpt lat="46.86226" lon="-2.12203">
        <ele>5.91</ele>
        <time>2015-08-07T08:51:42Z</time>
      </trkpt>
      <trkpt lat="46.86236" lon="-2.12213">
        <ele>6.39</ele>
        <time>2015-08-07T08:51:44Z</time>
      </trkpt>
      <trkpt lat="46.86268" lon="-2.12268">
        <ele>7.83</ele>
        <time>2015-08-07T08:51:54Z</time>
      </trkpt>
      <trkpt lat="46.86276" lon="-2.12303">
        <ele>8.31</ele>
        <time>2015-08-07T08:51:59Z</time>
      </trkpt>
      <trkpt lat="46.86286" lon="-2.12331">
        <ele>6.87</ele>
        <time>2015-08-07T08:52:02Z</time>
      </trkpt>
      <trkpt lat="46.86298" lon="-2.12364">
        <ele>5.91</ele>
        <time>2015-08-07T08:52:06Z</time>
      </trkpt>
      <trkpt lat="46.86322" lon="-2.12413">
        <ele>3.98</ele>
        <time>2015-08-07T08:52:13Z</time>
      </trkpt>
      <trkpt lat="46.86333" lon="-2.12439">
        <ele>3.02</ele>
        <time>2015-08-07T08:52:16Z</time>
      </trkpt>
      <trkpt lat="46.86352" lon="-2.12493">
        <ele>1.1</ele>
        <time>2015-08-07T08:52:22Z</time>
      </trkpt>
      <trkpt lat="46.86361" lon="-2.12521">
        <ele>-0.34</ele>
        <time>2015-08-07T08:52:25Z</time>
      </trkpt>
      <trkpt lat="46.86376" lon="-2.12556">
        <ele>-1.3</ele>
        <time>2015-08-07T08:52:29Z</time>
      </trkpt>
      <trkpt lat="46.86389" lon="-2.12601">
        <ele>-1.79</ele>
        <time>2015-08-07T08:52:34Z</time>
      </trkpt>
      <trkpt lat="46.86393" lon="-2.12644">
        <ele>-0.34</ele>
        <time>2015-08-07T08:52:39Z</time>
      </trkpt>
      <trkpt lat="46.86392" lon="-2.12666">
        <ele>1.1</ele>
        <time>2015-08-07T08:52:42Z</time>
      </trkpt>
      <trkpt lat="46.86391" lon="-2.12683">
        <ele>1.58</ele>
        <time>2015-08-07T08:52:44Z</time>
      </trkpt>
      <trkpt lat="46.86379" lon="-2.12725">
        <ele>3.02</ele>
        <time>2015-08-07T08:52:49Z</time>
      </trkpt>
      <trkpt lat="46.86347" lon="-2.1278">
        <ele>2.54</ele>
        <time>2015-08-07T08:52:56Z</time>
      </trkpt>
      <trkpt lat="46.86335" lon="-2.12828">
        <ele>1.1</ele>
        <time>2015-08-07T08:53:01Z</time>
      </trkpt>
      <trkpt lat="46.8634" lon="-2.12955">
        <ele>-3.71</ele>
        <time>2015-08-07T08:53:12Z</time>
      </trkpt>
      <trkpt lat="46.86335" lon="-2.12987">
        <ele>-4.67</ele>
        <time>2015-08-07T08:53:15Z</time>
      </trkpt>
      <trkpt lat="46.86334" lon="-2.13067">
        <ele>-7.55</ele>
        <time>2015-08-07T08:53:22Z</time>
      </trkpt>
      <trkpt lat="46.86327" lon="-2.13212">
        <ele>-10.92</ele>
        <time>2015-08-07T08:53:35Z</time>
      </trkpt>
      <trkpt lat="46.86321" lon="-2.13379">
        <ele>-10.92</ele>
        <time>2015-08-07T08:53:50Z</time>
      </trkpt>
      <trkpt lat="46.86323" lon="-2.13401">
        <ele>-10.44</ele>
        <time>2015-08-07T08:53:52Z</time>
      </trkpt>
      <trkpt lat="46.86317" lon="-2.13557">
        <ele>-9.96</ele>
        <time>2015-08-07T08:54:06Z</time>
      </trkpt>
      <trkpt lat="46.86307" lon="-2.13706">
        <ele>-9.48</ele>
        <time>2015-08-07T08:54:19Z</time>
      </trkpt>
      <trkpt lat="46.86293" lon="-2.13866">
        <ele>-10.44</ele>
        <time>2015-08-07T08:54:33Z</time>
      </trkpt>
      <trkpt lat="46.86289" lon="-2.1391">
        <ele>-10.92</ele>
        <time>2015-08-07T08:54:37Z</time>
      </trkpt>
      <trkpt lat="46.86269" lon="-2.14081">
        <ele>-11.88</ele>
        <time>2015-08-07T08:54:52Z</time>
      </trkpt>
      <trkpt lat="46.86262" lon="-2.14212">
        <ele>-10.92</ele>
        <time>2015-08-07T08:55:04Z</time>
      </trkpt>
      <trkpt lat="46.86251" lon="-2.14296">
        <ele>-10.92</ele>
        <time>2015-08-07T08:55:12Z</time>
      </trkpt>
      <trkpt lat="46.8624" lon="-2.14376">
        <ele>-6.59</ele>
        <time>2015-08-07T08:55:21Z</time>
      </trkpt>
      <trkpt lat="46.86244" lon="-2.14407">
        <ele>-4.67</ele>
        <time>2015-08-07T08:55:25Z</time>
      </trkpt>
      <trkpt lat="46.86252" lon="-2.14448">
        <ele>-1.79</ele>
        <time>2015-08-07T08:55:31Z</time>
      </trkpt>
      <trkpt lat="46.86261" lon="-2.1452">
        <ele>0.14</ele>
        <time>2015-08-07T08:55:43Z</time>
      </trkpt>
      <trkpt lat="46.86265" lon="-2.14524">
        <ele>0.14</ele>
        <time>2015-08-07T08:55:46Z</time>
      </trkpt>
      <trkpt lat="46.86265" lon="-2.14521">
        <ele>0.62</ele>
        <time>2015-08-07T08:55:52Z</time>
      </trkpt>
      <trkpt lat="46.86263" lon="-2.14523">
        <ele>1.1</ele>
        <time>2015-08-07T08:55:56Z</time>
      </trkpt>
      <trkpt lat="46.86257" lon="-2.14488">
        <ele>3.02</ele>
        <time>2015-08-07T08:56:07Z</time>
      </trkpt>
      <trkpt lat="46.8625" lon="-2.14427">
        <ele>4.46</ele>
        <time>2015-08-07T08:56:17Z</time>
      </trkpt>
      <trkpt lat="46.86239" lon="-2.14376">
        <ele>4.94</ele>
        <time>2015-08-07T08:56:25Z</time>
      </trkpt>
      <trkpt lat="46.86248" lon="-2.14328">
        <ele>4.94</ele>
        <time>2015-08-07T08:56:31Z</time>
      </trkpt>
      <trkpt lat="46.8625" lon="-2.143">
        <ele>4.46</ele>
        <time>2015-08-07T08:56:34Z</time>
      </trkpt>
      <trkpt lat="46.86264" lon="-2.14162">
        <ele>4.46</ele>
        <time>2015-08-07T08:56:47Z</time>
      </trkpt>
      <trkpt lat="46.86273" lon="-2.14023">
        <ele>6.39</ele>
        <time>2015-08-07T08:57:01Z</time>
      </trkpt>
      <trkpt lat="46.86291" lon="-2.13886">
        <ele>6.87</ele>
        <time>2015-08-07T08:57:15Z</time>
      </trkpt>
      <trkpt lat="46.86303" lon="-2.13755">
        <ele>5.91</ele>
        <time>2015-08-07T08:57:28Z</time>
      </trkpt>
      <trkpt lat="46.86309" lon="-2.13629">
        <ele>5.42</ele>
        <time>2015-08-07T08:57:41Z</time>
      </trkpt>
      <trkpt lat="46.8632" lon="-2.13507">
        <ele>4.94</ele>
        <time>2015-08-07T08:57:54Z</time>
      </trkpt>
      <trkpt lat="46.8632" lon="-2.13381">
        <ele>3.5</ele>
        <time>2015-08-07T08:58:08Z</time>
      </trkpt>
      <trkpt lat="46.86319" lon="-2.13373">
        <ele>3.02</ele>
        <time>2015-08-07T08:58:09Z</time>
      </trkpt>
      <trkpt lat="46.86322" lon="-2.13241">
        <ele>-0.34</ele>
        <time>2015-08-07T08:58:24Z</time>
      </trkpt>
      <trkpt lat="46.86328" lon="-2.13117">
        <ele>-4.19</ele>
        <time>2015-08-07T08:58:38Z</time>
      </trkpt>
      <trkpt lat="46.86334" lon="-2.13004">
        <ele>-5.15</ele>
        <time>2015-08-07T08:58:51Z</time>
      </trkpt>
      <trkpt lat="46.86335" lon="-2.1299">
        <ele>-5.15</ele>
        <time>2015-08-07T08:58:53Z</time>
      </trkpt>
      <trkpt lat="46.86341" lon="-2.12962">
        <ele>-4.67</ele>
        <time>2015-08-07T08:58:57Z</time>
      </trkpt>
      <trkpt lat="46.86337" lon="-2.1288">
        <ele>-7.07</ele>
        <time>2015-08-07T08:59:09Z</time>
      </trkpt>
      <trkpt lat="46.86337" lon="-2.12807">
        <ele>-3.71</ele>
        <time>2015-08-07T08:59:21Z</time>
      </trkpt>
      <trkpt lat="46.86363" lon="-2.1275">
        <ele>3.5</ele>
        <time>2015-08-07T08:59:33Z</time>
      </trkpt>
      <trkpt lat="46.86385" lon="-2.12715">
        <ele>5.91</ele>
        <time>2015-08-07T08:59:40Z</time>
      </trkpt>
      <trkpt lat="46.86389" lon="-2.1269">
        <ele>6.39</ele>
        <time>2015-08-07T08:59:44Z</time>
      </trkpt>
      <trkpt lat="46.86388" lon="-2.12677">
        <ele>6.39</ele>
        <time>2015-08-07T08:59:46Z</time>
      </trkpt>
      <trkpt lat="46.86392" lon="-2.12646">
        <ele>5.91</ele>
        <time>2015-08-07T08:59:50Z</time>
      </trkpt>
      <trkpt lat="46.86389" lon="-2.1261">
        <ele>5.42</ele>
        <time>2015-08-07T08:59:54Z</time>
      </trkpt>
      <trkpt lat="46.86379" lon="-2.12575">
        <ele>3.5</ele>
        <time>2015-08-07T08:59:58Z</time>
      </trkpt>
      <trkpt lat="46.86368" lon="-2.1255">
        <ele>2.54</ele>
        <time>2015-08-07T09:00:01Z</time>
      </trkpt>
      <trkpt lat="46.86355" lon="-2.12513">
        <ele>0.62</ele>
        <time>2015-08-07T09:00:07Z</time>
      </trkpt>
      <trkpt lat="46.86364" lon="-2.125">
        <ele>0.62</ele>
        <time>2015-08-07T09:00:12Z</time>
      </trkpt>
      <trkpt lat="46.86368" lon="-2.12499">
        <ele>0.62</ele>
        <time>2015-08-07T09:00:14Z</time>
      </trkpt>
      <trkpt lat="46.86378" lon="-2.12495">
        <ele>0.62</ele>
        <time>2015-08-07T09:00:18Z</time>
      </trkpt>
      <trkpt lat="46.8643" lon="-2.12495">
        <ele>-1.3</ele>
        <time>2015-08-07T09:00:31Z</time>
      </trkpt>
      <trkpt lat="46.86465" lon="-2.1248">
        <ele>0.14</ele>
        <time>2015-08-07T09:00:40Z</time>
      </trkpt>
      <trkpt lat="46.865" lon="-2.12453">
        <ele>0.62</ele>
        <time>2015-08-07T09:00:50Z</time>
      </trkpt>
      <trkpt lat="46.86514" lon="-2.12452">
        <ele>1.58</ele>
        <time>2015-08-07T09:00:53Z</time>
      </trkpt>
      <trkpt lat="46.86554" lon="-2.12426">
        <ele>3.02</ele>
        <time>2015-08-07T09:01:01Z</time>
      </trkpt>
      <trkpt lat="46.86621" lon="-2.12394">
        <ele>3.5</ele>
        <time>2015-08-07T09:01:13Z</time>
      </trkpt>
      <trkpt lat="46.86638" lon="-2.12388">
        <ele>3.02</ele>
        <time>2015-08-07T09:01:16Z</time>
      </trkpt>
      <trkpt lat="46.86668" lon="-2.12396">
        <ele>2.06</ele>
        <time>2015-08-07T09:01:22Z</time>
      </trkpt>
      <trkpt lat="46.86685" lon="-2.12414">
        <ele>2.06</ele>
        <time>2015-08-07T09:01:26Z</time>
      </trkpt>
      <trkpt lat="46.86731" lon="-2.12453">
        <ele>0.14</ele>
        <time>2015-08-07T09:01:36Z</time>
      </trkpt>
      <trkpt lat="46.86736" lon="-2.12457">
        <ele>0.14</ele>
        <time>2015-08-07T09:01:37Z</time>
      </trkpt>
      <trkpt lat="46.86751" lon="-2.12466">
        <ele>-0.34</ele>
        <time>2015-08-07T09:01:40Z</time>
      </trkpt>
      <trkpt lat="46.868" lon="-2.12482">
        <ele>0.14</ele>
        <time>2015-08-07T09:01:49Z</time>
      </trkpt>
      <trkpt lat="46.8681" lon="-2.12483">
        <ele>0.14</ele>
        <time>2015-08-07T09:01:51Z</time>
      </trkpt>
      <trkpt lat="46.86843" lon="-2.12474">
        <ele>0.14</ele>
        <time>2015-08-07T09:01:57Z</time>
      </trkpt>
      <trkpt lat="46.86865" lon="-2.12479">
        <ele>0.62</ele>
        <time>2015-08-07T09:02:01Z</time>
      </trkpt>
      <trkpt lat="46.86898" lon="-2.12489">
        <ele>2.54</ele>
        <time>2015-08-07T09:02:08Z</time>
      </trkpt>
      <trkpt lat="46.86917" lon="-2.12484">
        <ele>3.02</ele>
        <time>2015-08-07T09:02:12Z</time>
      </trkpt>
      <trkpt lat="46.86975" lon="-2.12438">
        <ele>-0.34</ele>
        <time>2015-08-07T09:02:25Z</time>
      </trkpt>
      <trkpt lat="46.87003" lon="-2.12406">
        <ele>-0.82</ele>
        <time>2015-08-07T09:02:34Z</time>
      </trkpt>
      <trkpt lat="46.87011" lon="-2.12396">
        <ele>-1.3</ele>
        <time>2015-08-07T09:02:36Z</time>
      </trkpt>
      <trkpt lat="46.87064" lon="-2.12359">
        <ele>-1.79</ele>
        <time>2015-08-07T09:02:46Z</time>
      </trkpt>
      <trkpt lat="46.87085" lon="-2.12354">
        <ele>-2.27</ele>
        <time>2015-08-07T09:02:50Z</time>
      </trkpt>
      <trkpt lat="46.87094" lon="-2.12353">
        <ele>-2.75</ele>
        <time>2015-08-07T09:02:52Z</time>
      </trkpt>
      <trkpt lat="46.87163" lon="-2.12365">
        <ele>-6.11</ele>
        <time>2015-08-07T09:03:05Z</time>
      </trkpt>
      <trkpt lat="46.87185" lon="-2.12372">
        <ele>-7.55</ele>
        <time>2015-08-07T09:03:09Z</time>
      </trkpt>
      <trkpt lat="46.87197" lon="-2.12377">
        <ele>-7.55</ele>
        <time>2015-08-07T09:03:11Z</time>
      </trkpt>
      <trkpt lat="46.87219" lon="-2.12392">
        <ele>-8.03</ele>
        <time>2015-08-07T09:03:15Z</time>
      </trkpt>
      <trkpt lat="46.87269" lon="-2.12421">
        <ele>-9</ele>
        <time>2015-08-07T09:03:26Z</time>
      </trkpt>
      <trkpt lat="46.87279" lon="-2.12427">
        <ele>-9.48</ele>
        <time>2015-08-07T09:03:28Z</time>
      </trkpt>
      <trkpt lat="46.87325" lon="-2.12436">
        <ele>-12.84</ele>
        <time>2015-08-07T09:03:36Z</time>
      </trkpt>
      <trkpt lat="46.87354" lon="-2.12445">
        <ele>-14.28</ele>
        <time>2015-08-07T09:03:41Z</time>
      </trkpt>
      <trkpt lat="46.87379" lon="-2.12434">
        <ele>-14.28</ele>
        <time>2015-08-07T09:03:46Z</time>
      </trkpt>
      <trkpt lat="46.87392" lon="-2.12425">
        <ele>-14.28</ele>
        <time>2015-08-07T09:03:49Z</time>
      </trkpt>
      <trkpt lat="46.87425" lon="-2.12384">
        <ele>-12.84</ele>
        <time>2015-08-07T09:03:57Z</time>
      </trkpt>
      <trkpt lat="46.87474" lon="-2.12356">
        <ele>-12.36</ele>
        <time>2015-08-07T09:04:08Z</time>
      </trkpt>
      <trkpt lat="46.87518" lon="-2.12356">
        <ele>-12.36</ele>
        <time>2015-08-07T09:04:17Z</time>
      </trkpt>
      <trkpt lat="46.87534" lon="-2.12364">
        <ele>-12.84</ele>
        <time>2015-08-07T09:04:20Z</time>
      </trkpt>
      <trkpt lat="46.87577" lon="-2.12402">
        <ele>-13.32</ele>
        <time>2015-08-07T09:04:27Z</time>
      </trkpt>
      <trkpt lat="46.87641" lon="-2.1244">
        <ele>-13.8</ele>
        <time>2015-08-07T09:04:39Z</time>
      </trkpt>
      <trkpt lat="46.87662" lon="-2.12454">
        <ele>-14.28</ele>
        <time>2015-08-07T09:04:43Z</time>
      </trkpt>
      <trkpt lat="46.87674" lon="-2.12463">
        <ele>-14.76</ele>
        <time>2015-08-07T09:04:45Z</time>
      </trkpt>
      <trkpt lat="46.87712" lon="-2.12484">
        <ele>-17.17</ele>
        <time>2015-08-07T09:04:52Z</time>
      </trkpt>
      <trkpt lat="46.8773" lon="-2.12489">
        <ele>-17.17</ele>
        <time>2015-08-07T09:04:55Z</time>
      </trkpt>
      <trkpt lat="46.87774" lon="-2.12506">
        <ele>-16.69</ele>
        <time>2015-08-07T09:05:03Z</time>
      </trkpt>
      <trkpt lat="46.87784" lon="-2.12509">
        <ele>-15.24</ele>
        <time>2015-08-07T09:05:05Z</time>
      </trkpt>
      <trkpt lat="46.87831" lon="-2.12508">
        <ele>-7.07</ele>
        <time>2015-08-07T09:05:17Z</time>
      </trkpt>
      <trkpt lat="46.87856" lon="-2.12488">
        <ele>-2.27</ele>
        <time>2015-08-07T09:05:25Z</time>
      </trkpt>
      <trkpt lat="46.87875" lon="-2.12469">
        <ele>-0.34</ele>
        <time>2015-08-07T09:05:30Z</time>
      </trkpt>
      <trkpt lat="46.87907" lon="-2.12457">
        <ele>3.02</ele>
        <time>2015-08-07T09:05:37Z</time>
      </trkpt>
      <trkpt lat="46.8798" lon="-2.12472">
        <ele>5.42</ele>
        <time>2015-08-07T09:05:50Z</time>
      </trkpt>
      <trkpt lat="46.87996" lon="-2.12477">
        <ele>5.42</ele>
        <time>2015-08-07T09:05:53Z</time>
      </trkpt>
      <trkpt lat="46.8806" lon="-2.12514">
        <ele>3.5</ele>
        <time>2015-08-07T09:06:05Z</time>
      </trkpt>
      <trkpt lat="46.8813" lon="-2.12543">
        <ele>0.14</ele>
        <time>2015-08-07T09:06:17Z</time>
      </trkpt>
      <trkpt lat="46.88201" lon="-2.12562">
        <ele>-1.3</ele>
        <time>2015-08-07T09:06:30Z</time>
      </trkpt>
      <trkpt lat="46.8825" lon="-2.12564">
        <ele>-1.3</ele>
        <time>2015-08-07T09:06:39Z</time>
      </trkpt>
      <trkpt lat="46.88305" lon="-2.12545">
        <ele>-4.67</ele>
        <time>2015-08-07T09:06:48Z</time>
      </trkpt>
      <trkpt lat="46.88325" lon="-2.1253">
        <ele>-4.19</ele>
        <time>2015-08-07T09:06:52Z</time>
      </trkpt>
      <trkpt lat="46.88387" lon="-2.1248">
        <ele>-1.79</ele>
        <time>2015-08-07T09:07:07Z</time>
      </trkpt>
      <trkpt lat="46.88447" lon="-2.12492">
        <ele>0.14</ele>
        <time>2015-08-07T09:07:21Z</time>
      </trkpt>
      <trkpt lat="46.88458" lon="-2.12496">
        <ele>1.1</ele>
        <time>2015-08-07T09:07:26Z</time>
      </trkpt>
      <trkpt lat="46.88475" lon="-2.12475">
        <ele>0.14</ele>
        <time>2015-08-07T09:07:36Z</time>
      </trkpt>
      <trkpt lat="46.88477" lon="-2.12444">
        <ele>-0.82</ele>
        <time>2015-08-07T09:07:42Z</time>
      </trkpt>
      <trkpt lat="46.88485" lon="-2.12438">
        <ele>-1.79</ele>
        <time>2015-08-07T09:07:52Z</time>
      </trkpt>
      <trkpt lat="46.8849" lon="-2.12435">
        <ele>-0.82</ele>
        <time>2015-08-07T09:08:18Z</time>
      </trkpt>
      <trkpt lat="46.88494" lon="-2.12434">
        <ele>-0.82</ele>
        <time>2015-08-07T09:08:21Z</time>
      </trkpt>
      <trkpt lat="46.88498" lon="-2.12446">
        <ele>1.58</ele>
        <time>2015-08-07T09:08:27Z</time>
      </trkpt>
      <trkpt lat="46.88509" lon="-2.12463">
        <ele>2.54</ele>
        <time>2015-08-07T09:08:33Z</time>
      </trkpt>
      <trkpt lat="46.88551" lon="-2.12444">
        <ele>1.58</ele>
        <time>2015-08-07T09:08:45Z</time>
      </trkpt>
      <trkpt lat="46.88602" lon="-2.12437">
        <ele>4.94</ele>
        <time>2015-08-07T09:08:57Z</time>
      </trkpt>
      <trkpt lat="46.88616" lon="-2.12436">
        <ele>6.39</ele>
        <time>2015-08-07T09:09:00Z</time>
      </trkpt>
      <trkpt lat="46.88679" lon="-2.12461">
        <ele>9.75</ele>
        <time>2015-08-07T09:09:15Z</time>
      </trkpt>
      <trkpt lat="46.887" lon="-2.125">
        <ele>9.27</ele>
        <time>2015-08-07T09:09:24Z</time>
      </trkpt>
      <trkpt lat="46.88704" lon="-2.12512">
        <ele>9.27</ele>
        <time>2015-08-07T09:09:26Z</time>
      </trkpt>
      <trkpt lat="46.88706" lon="-2.12518">
        <ele>8.79</ele>
        <time>2015-08-07T09:09:27Z</time>
      </trkpt>
      <trkpt lat="46.88708" lon="-2.12524">
        <ele>8.79</ele>
        <time>2015-08-07T09:09:28Z</time>
      </trkpt>
      <trkpt lat="46.88727" lon="-2.12587">
        <ele>8.79</ele>
        <time>2015-08-07T09:09:37Z</time>
      </trkpt>
      <trkpt lat="46.8873" lon="-2.12595">
        <ele>8.79</ele>
        <time>2015-08-07T09:09:38Z</time>
      </trkpt>
      <trkpt lat="46.88733" lon="-2.12603">
        <ele>8.31</ele>
        <time>2015-08-07T09:09:39Z</time>
      </trkpt>
      <trkpt lat="46.8877" lon="-2.12687">
        <ele>7.35</ele>
        <time>2015-08-07T09:09:50Z</time>
      </trkpt>
      <trkpt lat="46.88793" lon="-2.12729">
        <ele>6.87</ele>
        <time>2015-08-07T09:10:02Z</time>
      </trkpt>
      <trkpt lat="46.88803" lon="-2.1275">
        <ele>5.42</ele>
        <time>2015-08-07T09:10:07Z</time>
      </trkpt>
      <trkpt lat="46.88806" lon="-2.12755">
        <ele>4.94</ele>
        <time>2015-08-07T09:10:08Z</time>
      </trkpt>
      <trkpt lat="46.88838" lon="-2.12821">
        <ele>0.62</ele>
        <time>2015-08-07T09:10:18Z</time>
      </trkpt>
      <trkpt lat="46.88841" lon="-2.12827">
        <ele>0.14</ele>
        <time>2015-08-07T09:10:19Z</time>
      </trkpt>
      <trkpt lat="46.88843" lon="-2.12833">
        <ele>-0.34</ele>
        <time>2015-08-07T09:10:20Z</time>
      </trkpt>
      <trkpt lat="46.88853" lon="-2.12849">
        <ele>-1.79</ele>
        <time>2015-08-07T09:10:23Z</time>
      </trkpt>
      <trkpt lat="46.88856" lon="-2.12854">
        <ele>-2.27</ele>
        <time>2015-08-07T09:10:24Z</time>
      </trkpt>
      <trkpt lat="46.88858" lon="-2.12858">
        <ele>-2.75</ele>
        <time>2015-08-07T09:10:25Z</time>
      </trkpt>
      <trkpt lat="46.88861" lon="-2.12861">
        <ele>-3.23</ele>
        <time>2015-08-07T09:10:26Z</time>
      </trkpt>
      <trkpt lat="46.88863" lon="-2.12865">
        <ele>-3.71</ele>
        <time>2015-08-07T09:10:27Z</time>
      </trkpt>
      <trkpt lat="46.88864" lon="-2.12869">
        <ele>-3.71</ele>
        <time>2015-08-07T09:10:28Z</time>
      </trkpt>
      <trkpt lat="46.88884" lon="-2.12904">
        <ele>-7.55</ele>
        <time>2015-08-07T09:10:39Z</time>
      </trkpt>
      <trkpt lat="46.8892" lon="-2.12966">
        <ele>-7.55</ele>
        <time>2015-08-07T09:10:52Z</time>
      </trkpt>
      <trkpt lat="46.88968" lon="-2.13052">
        <ele>-5.15</ele>
        <time>2015-08-07T09:11:09Z</time>
      </trkpt>
      <trkpt lat="46.88987" lon="-2.13081">
        <ele>-3.71</ele>
        <time>2015-08-07T09:11:18Z</time>
      </trkpt>
      <trkpt lat="46.89004" lon="-2.13117">
        <ele>-2.27</ele>
        <time>2015-08-07T09:11:25Z</time>
      </trkpt>
      <trkpt lat="46.89013" lon="-2.13186">
        <ele>-0.82</ele>
        <time>2015-08-07T09:11:37Z</time>
      </trkpt>
      <trkpt lat="46.89018" lon="-2.1322">
        <ele>-0.34</ele>
        <time>2015-08-07T09:11:42Z</time>
      </trkpt>
      <trkpt lat="46.89019" lon="-2.13227">
        <ele>-0.34</ele>
        <time>2015-08-07T09:11:43Z</time>
      </trkpt>
      <trkpt lat="46.8902" lon="-2.13234">
        <ele>-0.34</ele>
        <time>2015-08-07T09:11:44Z</time>
      </trkpt>
      <trkpt lat="46.89032" lon="-2.13344">
        <ele>3.5</ele>
        <time>2015-08-07T09:12:00Z</time>
      </trkpt>
      <trkpt lat="46.89033" lon="-2.1335">
        <ele>3.5</ele>
        <time>2015-08-07T09:12:01Z</time>
      </trkpt>
      <trkpt lat="46.89033" lon="-2.13355">
        <ele>3.98</ele>
        <time>2015-08-07T09:12:02Z</time>
      </trkpt>
      <trkpt lat="46.89034" lon="-2.13359">
        <ele>3.98</ele>
        <time>2015-08-07T09:12:03Z</time>
      </trkpt>
      <trkpt lat="46.89035" lon="-2.13362">
        <ele>4.46</ele>
        <time>2015-08-07T09:12:04Z</time>
      </trkpt>
      <trkpt lat="46.89041" lon="-2.13424">
        <ele>5.42</ele>
        <time>2015-08-07T09:12:14Z</time>
      </trkpt>
      <trkpt lat="46.89048" lon="-2.13498">
        <ele>4.46</ele>
        <time>2015-08-07T09:12:25Z</time>
      </trkpt>
      <trkpt lat="46.89052" lon="-2.13505">
        <ele>3.98</ele>
        <time>2015-08-07T09:12:27Z</time>
      </trkpt>
      <trkpt lat="46.89091" lon="-2.13504">
        <ele>4.46</ele>
        <time>2015-08-07T09:12:39Z</time>
      </trkpt>
      <trkpt lat="46.89121" lon="-2.13499">
        <ele>4.46</ele>
        <time>2015-08-07T09:12:49Z</time>
      </trkpt>
      <trkpt lat="46.89125" lon="-2.13499">
        <ele>4.46</ele>
        <time>2015-08-07T09:12:51Z</time>
      </trkpt>
      <trkpt lat="46.8913" lon="-2.13509">
        <ele>3.5</ele>
        <time>2015-08-07T09:12:55Z</time>
      </trkpt>
      <trkpt lat="46.89134" lon="-2.1355">
        <ele>3.02</ele>
        <time>2015-08-07T09:13:03Z</time>
      </trkpt>
      <trkpt lat="46.89153" lon="-2.13587">
        <ele>3.02</ele>
        <time>2015-08-07T09:13:12Z</time>
      </trkpt>
      <trkpt lat="46.89151" lon="-2.13612">
        <ele>3.02</ele>
        <time>2015-08-07T09:13:18Z</time>
      </trkpt>
      <trkpt lat="46.89134" lon="-2.13672">
        <ele>3.02</ele>
        <time>2015-08-07T09:13:33Z</time>
      </trkpt>
      <trkpt lat="46.89131" lon="-2.13713">
        <ele>2.54</ele>
        <time>2015-08-07T09:13:44Z</time>
      </trkpt>
      <trkpt lat="46.8913" lon="-2.13713">
        <ele>3.98</ele>
        <time>2015-08-07T09:14:03Z</time>
      </trkpt>
      <trkpt lat="46.8913" lon="-2.13714">
        <ele>3.98</ele>
        <time>2015-08-07T09:14:27Z</time>
      </trkpt>
      <trkpt lat="46.8913" lon="-2.13713">
        <ele>4.46</ele>
        <time>2015-08-07T09:14:49Z</time>
      </trkpt>
      <trkpt lat="46.8913" lon="-2.13714">
        <ele>4.94</ele>
        <time>2015-08-07T09:15:08Z</time>
      </trkpt>
      <trkpt lat="46.8913" lon="-2.13714">
        <ele>4.94</ele>
        <time>2015-08-07T09:15:09Z</time>
      </trkpt>
      <trkpt lat="46.89134" lon="-2.13714">
        <ele>4.46</ele>
        <time>2015-08-07T09:15:24Z</time>
      </trkpt>
      <trkpt lat="46.89134" lon="-2.13713">
        <ele>4.94</ele>
        <time>2015-08-07T09:15:52Z</time>
      </trkpt>
      <trkpt lat="46.89134" lon="-2.13712">
        <ele>6.39</ele>
        <time>2015-08-07T09:16:25Z</time>
      </trkpt>
      <trkpt lat="46.89135" lon="-2.13713">
        <ele>6.39</ele>
        <time>2015-08-07T09:16:40Z</time>
      </trkpt>
      <trkpt lat="46.89132" lon="-2.13719">
        <ele>4.94</ele>
        <time>2015-08-07T09:16:45Z</time>
      </trkpt>
      <trkpt lat="46.89125" lon="-2.13708">
        <ele>3.98</ele>
        <time>2015-08-07T09:16:52Z</time>
      </trkpt>
      <trkpt lat="46.89135" lon="-2.13631">
        <ele>4.46</ele>
        <time>2015-08-07T09:17:07Z</time>
      </trkpt>
      <trkpt lat="46.89133" lon="-2.13581">
        <ele>4.94</ele>
        <time>2015-08-07T09:17:17Z</time>
      </trkpt>
      <trkpt lat="46.89131" lon="-2.13554">
        <ele>4.94</ele>
        <time>2015-08-07T09:17:21Z</time>
      </trkpt>
      <trkpt lat="46.89114" lon="-2.13412">
        <ele>5.91</ele>
        <time>2015-08-07T09:17:38Z</time>
      </trkpt>
      <trkpt lat="46.89101" lon="-2.13311">
        <ele>5.42</ele>
        <time>2015-08-07T09:17:51Z</time>
      </trkpt>
      <trkpt lat="46.89082" lon="-2.1316">
        <ele>6.39</ele>
        <time>2015-08-07T09:18:10Z</time>
      </trkpt>
      <trkpt lat="46.89065" lon="-2.13038">
        <ele>5.91</ele>
        <time>2015-08-07T09:18:25Z</time>
      </trkpt>
      <trkpt lat="46.89046" lon="-2.12892">
        <ele>5.42</ele>
        <time>2015-08-07T09:18:43Z</time>
      </trkpt>
      <trkpt lat="46.89045" lon="-2.12884">
        <ele>5.42</ele>
        <time>2015-08-07T09:18:44Z</time>
      </trkpt>
      <trkpt lat="46.89042" lon="-2.12877">
        <ele>5.42</ele>
        <time>2015-08-07T09:18:45Z</time>
      </trkpt>
      <trkpt lat="46.8904" lon="-2.12869">
        <ele>4.94</ele>
        <time>2015-08-07T09:18:46Z</time>
      </trkpt>
      <trkpt lat="46.89038" lon="-2.12861">
        <ele>4.94</ele>
        <time>2015-08-07T09:18:47Z</time>
      </trkpt>
      <trkpt lat="46.89037" lon="-2.12853">
        <ele>4.94</ele>
        <time>2015-08-07T09:18:48Z</time>
      </trkpt>
      <trkpt lat="46.89036" lon="-2.12846">
        <ele>4.94</ele>
        <time>2015-08-07T09:18:49Z</time>
      </trkpt>
      <trkpt lat="46.89022" lon="-2.12736">
        <ele>4.94</ele>
        <time>2015-08-07T09:19:03Z</time>
      </trkpt>
      <trkpt lat="46.89004" lon="-2.12598">
        <ele>5.91</ele>
        <time>2015-08-07T09:19:21Z</time>
      </trkpt>
      <trkpt lat="46.88989" lon="-2.12478">
        <ele>4.94</ele>
        <time>2015-08-07T09:19:37Z</time>
      </trkpt>
      <trkpt lat="46.88975" lon="-2.12393">
        <ele>5.91</ele>
        <time>2015-08-07T09:19:49Z</time>
      </trkpt>
      <trkpt lat="46.88957" lon="-2.12347">
        <ele>5.42</ele>
        <time>2015-08-07T09:19:59Z</time>
      </trkpt>
      <trkpt lat="46.88969" lon="-2.12328">
        <ele>4.46</ele>
        <time>2015-08-07T09:20:06Z</time>
      </trkpt>
      <trkpt lat="46.88968" lon="-2.12314">
        <ele>4.46</ele>
        <time>2015-08-07T09:20:10Z</time>
      </trkpt>
      <trkpt lat="46.88962" lon="-2.12272">
        <ele>4.94</ele>
        <time>2015-08-07T09:20:17Z</time>
      </trkpt>
      <trkpt lat="46.88947" lon="-2.1216">
        <ele>4.94</ele>
        <time>2015-08-07T09:20:33Z</time>
      </trkpt>
      <trkpt lat="46.8894" lon="-2.12086">
        <ele>5.42</ele>
        <time>2015-08-07T09:20:44Z</time>
      </trkpt>
      <trkpt lat="46.88938" lon="-2.12063">
        <ele>4.94</ele>
        <time>2015-08-07T09:20:47Z</time>
      </trkpt>
      <trkpt lat="46.88934" lon="-2.1204">
        <ele>4.46</ele>
        <time>2015-08-07T09:20:50Z</time>
      </trkpt>
      <trkpt lat="46.8893" lon="-2.11975">
        <ele>3.5</ele>
        <time>2015-08-07T09:20:58Z</time>
      </trkpt>
      <trkpt lat="46.8893" lon="-2.1196">
        <ele>3.5</ele>
        <time>2015-08-07T09:21:00Z</time>
      </trkpt>
      <trkpt lat="46.88923" lon="-2.11862">
        <ele>3.02</ele>
        <time>2015-08-07T09:21:13Z</time>
      </trkpt>
      <trkpt lat="46.88916" lon="-2.1173">
        <ele>2.54</ele>
        <time>2015-08-07T09:21:29Z</time>
      </trkpt>
      <trkpt lat="46.88909" lon="-2.11608">
        <ele>2.54</ele>
        <time>2015-08-07T09:21:45Z</time>
      </trkpt>
      <trkpt lat="46.88908" lon="-2.11594">
        <ele>2.54</ele>
        <time>2015-08-07T09:21:47Z</time>
      </trkpt>
      <trkpt lat="46.88904" lon="-2.11488">
        <ele>2.54</ele>
        <time>2015-08-07T09:22:03Z</time>
      </trkpt>
      <trkpt lat="46.88904" lon="-2.11482">
        <ele>2.54</ele>
        <time>2015-08-07T09:22:04Z</time>
      </trkpt>
      <trkpt lat="46.88902" lon="-2.11389">
        <ele>3.02</ele>
        <time>2015-08-07T09:22:18Z</time>
      </trkpt>
      <trkpt lat="46.88902" lon="-2.11382">
        <ele>3.02</ele>
        <time>2015-08-07T09:22:19Z</time>
      </trkpt>
      <trkpt lat="46.88899" lon="-2.11368">
        <ele>3.02</ele>
        <time>2015-08-07T09:22:21Z</time>
      </trkpt>
      <trkpt lat="46.88896" lon="-2.11334">
        <ele>2.54</ele>
        <time>2015-08-07T09:22:26Z</time>
      </trkpt>
      <trkpt lat="46.88894" lon="-2.11283">
        <ele>2.06</ele>
        <time>2015-08-07T09:22:36Z</time>
      </trkpt>
      <trkpt lat="46.88894" lon="-2.11277">
        <ele>2.06</ele>
        <time>2015-08-07T09:22:37Z</time>
      </trkpt>
      <trkpt lat="46.88891" lon="-2.11211">
        <ele>3.02</ele>
        <time>2015-08-07T09:22:46Z</time>
      </trkpt>
      <trkpt lat="46.8889" lon="-2.11204">
        <ele>3.5</ele>
        <time>2015-08-07T09:22:47Z</time>
      </trkpt>
      <trkpt lat="46.88888" lon="-2.11199">
        <ele>3.5</ele>
        <time>2015-08-07T09:22:48Z</time>
      </trkpt>
      <trkpt lat="46.88885" lon="-2.11195">
        <ele>3.02</ele>
        <time>2015-08-07T09:22:49Z</time>
      </trkpt>
      <trkpt lat="46.88882" lon="-2.11192">
        <ele>3.02</ele>
        <time>2015-08-07T09:22:50Z</time>
      </trkpt>
      <trkpt lat="46.88879" lon="-2.11189">
        <ele>3.02</ele>
        <time>2015-08-07T09:22:51Z</time>
      </trkpt>
      <trkpt lat="46.88874" lon="-2.11176">
        <ele>2.54</ele>
        <time>2015-08-07T09:22:54Z</time>
      </trkpt>
      <trkpt lat="46.88874" lon="-2.1117">
        <ele>2.54</ele>
        <time>2015-08-07T09:22:55Z</time>
      </trkpt>
      <trkpt lat="46.88876" lon="-2.11165">
        <ele>2.54</ele>
        <time>2015-08-07T09:22:56Z</time>
      </trkpt>
      <trkpt lat="46.88878" lon="-2.1116">
        <ele>2.06</ele>
        <time>2015-08-07T09:22:57Z</time>
      </trkpt>
      <trkpt lat="46.8888" lon="-2.11155">
        <ele>2.06</ele>
        <time>2015-08-07T09:22:58Z</time>
      </trkpt>
      <trkpt lat="46.88883" lon="-2.11149">
        <ele>2.54</ele>
        <time>2015-08-07T09:22:59Z</time>
      </trkpt>
      <trkpt lat="46.88885" lon="-2.11143">
        <ele>2.54</ele>
        <time>2015-08-07T09:23:00Z</time>
      </trkpt>
      <trkpt lat="46.88887" lon="-2.11136">
        <ele>2.54</ele>
        <time>2015-08-07T09:23:01Z</time>
      </trkpt>
      <trkpt lat="46.88914" lon="-2.11042">
        <ele>3.02</ele>
        <time>2015-08-07T09:23:14Z</time>
      </trkpt>
      <trkpt lat="46.88927" lon="-2.10897">
        <ele>3.98</ele>
        <time>2015-08-07T09:23:32Z</time>
      </trkpt>
      <trkpt lat="46.88936" lon="-2.10712">
        <ele>3.5</ele>
        <time>2015-08-07T09:23:51Z</time>
      </trkpt>
      <trkpt lat="46.88946" lon="-2.10502">
        <ele>3.02</ele>
        <time>2015-08-07T09:24:13Z</time>
      </trkpt>
      <trkpt lat="46.88955" lon="-2.10312">
        <ele>3.98</ele>
        <time>2015-08-07T09:24:33Z</time>
      </trkpt>
      <trkpt lat="46.88964" lon="-2.10142">
        <ele>3.02</ele>
        <time>2015-08-07T09:24:51Z</time>
      </trkpt>
      <trkpt lat="46.88973" lon="-2.09952">
        <ele>3.02</ele>
        <time>2015-08-07T09:25:12Z</time>
      </trkpt>
      <trkpt lat="46.88979" lon="-2.09801">
        <ele>3.5</ele>
        <time>2015-08-07T09:25:30Z</time>
      </trkpt>
      <trkpt lat="46.88977" lon="-2.09794">
        <ele>3.5</ele>
        <time>2015-08-07T09:25:31Z</time>
      </trkpt>
      <trkpt lat="46.88973" lon="-2.09778">
        <ele>3.02</ele>
        <time>2015-08-07T09:25:33Z</time>
      </trkpt>
      <trkpt lat="46.88973" lon="-2.0977">
        <ele>3.02</ele>
        <time>2015-08-07T09:25:34Z</time>
      </trkpt>
      <trkpt lat="46.88975" lon="-2.09762">
        <ele>3.02</ele>
        <time>2015-08-07T09:25:35Z</time>
      </trkpt>
      <trkpt lat="46.88978" lon="-2.09755">
        <ele>3.02</ele>
        <time>2015-08-07T09:25:36Z</time>
      </trkpt>
      <trkpt lat="46.88981" lon="-2.09747">
        <ele>3.02</ele>
        <time>2015-08-07T09:25:37Z</time>
      </trkpt>
      <trkpt lat="46.88983" lon="-2.09739">
        <ele>3.02</ele>
        <time>2015-08-07T09:25:38Z</time>
      </trkpt>
      <trkpt lat="46.88984" lon="-2.09731">
        <ele>3.02</ele>
        <time>2015-08-07T09:25:39Z</time>
      </trkpt>
      <trkpt lat="46.88984" lon="-2.09723">
        <ele>2.54</ele>
        <time>2015-08-07T09:25:40Z</time>
      </trkpt>
      <trkpt lat="46.88989" lon="-2.09554">
        <ele>2.06</ele>
        <time>2015-08-07T09:25:59Z</time>
      </trkpt>
      <trkpt lat="46.88972" lon="-2.09382">
        <ele>1.58</ele>
        <time>2015-08-07T09:26:17Z</time>
      </trkpt>
      <trkpt lat="46.8895" lon="-2.09191">
        <ele>1.58</ele>
        <time>2015-08-07T09:26:37Z</time>
      </trkpt>
      <trkpt lat="46.88926" lon="-2.08989">
        <ele>1.1</ele>
        <time>2015-08-07T09:26:59Z</time>
      </trkpt>
      <trkpt lat="46.88905" lon="-2.08811">
        <ele>1.58</ele>
        <time>2015-08-07T09:27:18Z</time>
      </trkpt>
      <trkpt lat="46.8888" lon="-2.08592">
        <ele>1.1</ele>
        <time>2015-08-07T09:27:42Z</time>
      </trkpt>
      <trkpt lat="46.88859" lon="-2.08413">
        <ele>1.58</ele>
        <time>2015-08-07T09:28:03Z</time>
      </trkpt>
      <trkpt lat="46.8884" lon="-2.08248">
        <ele>3.02</ele>
        <time>2015-08-07T09:28:22Z</time>
      </trkpt>
      <trkpt lat="46.88819" lon="-2.08067">
        <ele>3.98</ele>
        <time>2015-08-07T09:28:42Z</time>
      </trkpt>
      <trkpt lat="46.88796" lon="-2.07865">
        <ele>3.5</ele>
        <time>2015-08-07T09:29:05Z</time>
      </trkpt>
      <trkpt lat="46.88768" lon="-2.07629">
        <ele>2.06</ele>
        <time>2015-08-07T09:29:32Z</time>
      </trkpt>
      <trkpt lat="46.88759" lon="-2.07524">
        <ele>2.06</ele>
        <time>2015-08-07T09:29:44Z</time>
      </trkpt>
      <trkpt lat="46.88791" lon="-2.07414">
        <ele>2.06</ele>
        <time>2015-08-07T09:29:58Z</time>
      </trkpt>
      <trkpt lat="46.88855" lon="-2.07304">
        <ele>2.06</ele>
        <time>2015-08-07T09:30:15Z</time>
      </trkpt>
      <trkpt lat="46.88933" lon="-2.07168">
        <ele>1.58</ele>
        <time>2015-08-07T09:30:36Z</time>
      </trkpt>
      <trkpt lat="46.8901" lon="-2.0705">
        <ele>1.58</ele>
        <time>2015-08-07T09:30:57Z</time>
      </trkpt>
      <trkpt lat="46.89099" lon="-2.06935">
        <ele>2.54</ele>
        <time>2015-08-07T09:31:18Z</time>
      </trkpt>
      <trkpt lat="46.89146" lon="-2.06813">
        <ele>3.02</ele>
        <time>2015-08-07T09:31:34Z</time>
      </trkpt>
      <trkpt lat="46.89215" lon="-2.06707">
        <ele>3.02</ele>
        <time>2015-08-07T09:31:50Z</time>
      </trkpt>
      <trkpt lat="46.89308" lon="-2.06594">
        <ele>2.54</ele>
        <time>2015-08-07T09:32:10Z</time>
      </trkpt>
      <trkpt lat="46.89318" lon="-2.06583">
        <ele>2.54</ele>
        <time>2015-08-07T09:32:12Z</time>
      </trkpt>
      <trkpt lat="46.89398" lon="-2.06541">
        <ele>2.06</ele>
        <time>2015-08-07T09:32:27Z</time>
      </trkpt>
      <trkpt lat="46.89499" lon="-2.06481">
        <ele>0.62</ele>
        <time>2015-08-07T09:32:46Z</time>
      </trkpt>
      <trkpt lat="46.89525" lon="-2.06462">
        <ele>0.62</ele>
        <time>2015-08-07T09:32:51Z</time>
      </trkpt>
      <trkpt lat="46.89623" lon="-2.06417">
        <ele>1.1</ele>
        <time>2015-08-07T09:33:09Z</time>
      </trkpt>
      <trkpt lat="46.89722" lon="-2.06382">
        <ele>0.14</ele>
        <time>2015-08-07T09:33:26Z</time>
      </trkpt>
      <trkpt lat="46.89838" lon="-2.06343">
        <ele>0.62</ele>
        <time>2015-08-07T09:33:47Z</time>
      </trkpt>
      <trkpt lat="46.89955" lon="-2.06299">
        <ele>1.1</ele>
        <time>2015-08-07T09:34:08Z</time>
      </trkpt>
      <trkpt lat="46.90035" lon="-2.06209">
        <ele>0.62</ele>
        <time>2015-08-07T09:34:25Z</time>
      </trkpt>
      <trkpt lat="46.90099" lon="-2.0609">
        <ele>0.62</ele>
        <time>2015-08-07T09:34:44Z</time>
      </trkpt>
      <trkpt lat="46.90165" lon="-2.05969">
        <ele>1.58</ele>
        <time>2015-08-07T09:35:04Z</time>
      </trkpt>
      <trkpt lat="46.90243" lon="-2.05873">
        <ele>0.62</ele>
        <time>2015-08-07T09:35:22Z</time>
      </trkpt>
      <trkpt lat="46.90331" lon="-2.05763">
        <ele>0.62</ele>
        <time>2015-08-07T09:35:42Z</time>
      </trkpt>
      <trkpt lat="46.90386" lon="-2.05652">
        <ele>1.1</ele>
        <time>2015-08-07T09:35:58Z</time>
      </trkpt>
      <trkpt lat="46.90417" lon="-2.05527">
        <ele>2.06</ele>
        <time>2015-08-07T09:36:14Z</time>
      </trkpt>
      <trkpt lat="46.90418" lon="-2.05399">
        <ele>2.06</ele>
        <time>2015-08-07T09:36:29Z</time>
      </trkpt>
      <trkpt lat="46.90453" lon="-2.0524">
        <ele>2.06</ele>
        <time>2015-08-07T09:36:48Z</time>
      </trkpt>
      <trkpt lat="46.90483" lon="-2.05136">
        <ele>2.54</ele>
        <time>2015-08-07T09:37:01Z</time>
      </trkpt>
      <trkpt lat="46.905" lon="-2.05109">
        <ele>2.54</ele>
        <time>2015-08-07T09:37:09Z</time>
      </trkpt>
      <trkpt lat="46.90524" lon="-2.05074">
        <ele>2.06</ele>
        <time>2015-08-07T09:37:16Z</time>
      </trkpt>
      <trkpt lat="46.90526" lon="-2.0507">
        <ele>2.54</ele>
        <time>2015-08-07T09:37:17Z</time>
      </trkpt>
      <trkpt lat="46.90529" lon="-2.05066">
        <ele>2.54</ele>
        <time>2015-08-07T09:37:18Z</time>
      </trkpt>
      <trkpt lat="46.90554" lon="-2.05042">
        <ele>2.54</ele>
        <time>2015-08-07T09:37:24Z</time>
      </trkpt>
      <trkpt lat="46.90642" lon="-2.04982">
        <ele>2.54</ele>
        <time>2015-08-07T09:37:42Z</time>
      </trkpt>
      <trkpt lat="46.9071" lon="-2.04931">
        <ele>3.02</ele>
        <time>2015-08-07T09:37:53Z</time>
      </trkpt>
      <trkpt lat="46.90747" lon="-2.04907">
        <ele>3.5</ele>
        <time>2015-08-07T09:38:01Z</time>
      </trkpt>
      <trkpt lat="46.90816" lon="-2.04857">
        <ele>3.5</ele>
        <time>2015-08-07T09:38:13Z</time>
      </trkpt>
      <trkpt lat="46.90922" lon="-2.04794">
        <ele>3.02</ele>
        <time>2015-08-07T09:38:31Z</time>
      </trkpt>
      <trkpt lat="46.91" lon="-2.04742">
        <ele>3.5</ele>
        <time>2015-08-07T09:38:47Z</time>
      </trkpt>
      <trkpt lat="46.91024" lon="-2.04726">
        <ele>3.5</ele>
        <time>2015-08-07T09:38:52Z</time>
      </trkpt>
      <trkpt lat="46.91079" lon="-2.04695">
        <ele>4.94</ele>
        <time>2015-08-07T09:39:04Z</time>
      </trkpt>
      <trkpt lat="46.91084" lon="-2.04691">
        <ele>4.94</ele>
        <time>2015-08-07T09:39:05Z</time>
      </trkpt>
      <trkpt lat="46.91087" lon="-2.04687">
        <ele>4.94</ele>
        <time>2015-08-07T09:39:06Z</time>
      </trkpt>
      <trkpt lat="46.91091" lon="-2.04683">
        <ele>4.94</ele>
        <time>2015-08-07T09:39:07Z</time>
      </trkpt>
      <trkpt lat="46.91095" lon="-2.0468">
        <ele>4.94</ele>
        <time>2015-08-07T09:39:08Z</time>
      </trkpt>
      <trkpt lat="46.911" lon="-2.04677">
        <ele>5.42</ele>
        <time>2015-08-07T09:39:09Z</time>
      </trkpt>
      <trkpt lat="46.91174" lon="-2.04626">
        <ele>5.91</ele>
        <time>2015-08-07T09:39:25Z</time>
      </trkpt>
      <trkpt lat="46.91257" lon="-2.04574">
        <ele>6.39</ele>
        <time>2015-08-07T09:39:42Z</time>
      </trkpt>
      <trkpt lat="46.91267" lon="-2.04569">
        <ele>6.39</ele>
        <time>2015-08-07T09:39:44Z</time>
      </trkpt>
      <trkpt lat="46.91359" lon="-2.04531">
        <ele>6.39</ele>
        <time>2015-08-07T09:40:02Z</time>
      </trkpt>
      <trkpt lat="46.91412" lon="-2.04537">
        <ele>6.87</ele>
        <time>2015-08-07T09:40:12Z</time>
      </trkpt>
      <trkpt lat="46.91477" lon="-2.04593">
        <ele>5.42</ele>
        <time>2015-08-07T09:40:26Z</time>
      </trkpt>
      <trkpt lat="46.91545" lon="-2.04645">
        <ele>3.98</ele>
        <time>2015-08-07T09:40:42Z</time>
      </trkpt>
      <trkpt lat="46.91548" lon="-2.04644">
        <ele>4.46</ele>
        <time>2015-08-07T09:40:43Z</time>
      </trkpt>
      <trkpt lat="46.91568" lon="-2.04646">
        <ele>5.91</ele>
        <time>2015-08-07T09:40:52Z</time>
      </trkpt>
      <trkpt lat="46.91568" lon="-2.04646">
        <ele>6.87</ele>
        <time>2015-08-07T09:41:05Z</time>
      </trkpt>
      <trkpt lat="46.91568" lon="-2.04646">
        <ele>7.35</ele>
        <time>2015-08-07T09:41:35Z</time>
      </trkpt>
      <trkpt lat="46.91568" lon="-2.04646">
        <ele>6.87</ele>
        <time>2015-08-07T09:42:06Z</time>
      </trkpt>
      <trkpt lat="46.91569" lon="-2.04644">
        <ele>6.87</ele>
        <time>2015-08-07T09:42:36Z</time>
      </trkpt>
      <trkpt lat="46.91568" lon="-2.04643">
        <ele>7.35</ele>
        <time>2015-08-07T09:43:09Z</time>
      </trkpt>
      <trkpt lat="46.91569" lon="-2.04643">
        <ele>7.35</ele>
        <time>2015-08-07T09:43:31Z</time>
      </trkpt>
      <trkpt lat="46.91569" lon="-2.04644">
        <ele>7.35</ele>
        <time>2015-08-07T09:43:32Z</time>
      </trkpt>
      <trkpt lat="46.9159" lon="-2.04652">
        <ele>7.35</ele>
        <time>2015-08-07T09:43:42Z</time>
      </trkpt>
      <trkpt lat="46.91602" lon="-2.04653">
        <ele>7.83</ele>
        <time>2015-08-07T09:43:46Z</time>
      </trkpt>
      <trkpt lat="46.91655" lon="-2.04642">
        <ele>10.23</ele>
        <time>2015-08-07T09:44:00Z</time>
      </trkpt>
      <trkpt lat="46.91688" lon="-2.04623">
        <ele>8.79</ele>
        <time>2015-08-07T09:44:08Z</time>
      </trkpt>
      <trkpt lat="46.91707" lon="-2.04606">
        <ele>8.31</ele>
        <time>2015-08-07T09:44:13Z</time>
      </trkpt>
      <trkpt lat="46.91759" lon="-2.04546">
        <ele>6.87</ele>
        <time>2015-08-07T09:44:30Z</time>
      </trkpt>
      <trkpt lat="46.9181" lon="-2.0447">
        <ele>5.91</ele>
        <time>2015-08-07T09:44:46Z</time>
      </trkpt>
      <trkpt lat="46.91842" lon="-2.04418">
        <ele>4.94</ele>
        <time>2015-08-07T09:45:00Z</time>
      </trkpt>
      <trkpt lat="46.91844" lon="-2.04409">
        <ele>4.94</ele>
        <time>2015-08-07T09:45:03Z</time>
      </trkpt>
      <trkpt lat="46.91859" lon="-2.04396">
        <ele>4.94</ele>
        <time>2015-08-07T09:45:10Z</time>
      </trkpt>
      <trkpt lat="46.91881" lon="-2.0437">
        <ele>4.94</ele>
        <time>2015-08-07T09:45:19Z</time>
      </trkpt>
      <trkpt lat="46.91884" lon="-2.04384">
        <ele>4.46</ele>
        <time>2015-08-07T09:45:26Z</time>
      </trkpt>
      <trkpt lat="46.91881" lon="-2.04387">
        <ele>3.98</ele>
        <time>2015-08-07T09:45:27Z</time>
      </trkpt>
      <trkpt lat="46.91871" lon="-2.04396">
        <ele>3.5</ele>
        <time>2015-08-07T09:45:30Z</time>
      </trkpt>
      <trkpt lat="46.91865" lon="-2.04404">
        <ele>3.5</ele>
        <time>2015-08-07T09:45:32Z</time>
      </trkpt>
      <trkpt lat="46.9187" lon="-2.04428">
        <ele>3.02</ele>
        <time>2015-08-07T09:45:37Z</time>
      </trkpt>
      <trkpt lat="46.91935" lon="-2.04483">
        <ele>2.54</ele>
        <time>2015-08-07T09:45:54Z</time>
      </trkpt>
      <trkpt lat="46.92006" lon="-2.0454">
        <ele>2.06</ele>
        <time>2015-08-07T09:46:11Z</time>
      </trkpt>
      <trkpt lat="46.92096" lon="-2.04614">
        <ele>2.54</ele>
        <time>2015-08-07T09:46:32Z</time>
      </trkpt>
      <trkpt lat="46.9218" lon="-2.04695">
        <ele>2.06</ele>
        <time>2015-08-07T09:46:52Z</time>
      </trkpt>
      <trkpt lat="46.92256" lon="-2.0477">
        <ele>3.02</ele>
        <time>2015-08-07T09:47:10Z</time>
      </trkpt>
      <trkpt lat="46.92268" lon="-2.04784">
        <ele>3.02</ele>
        <time>2015-08-07T09:47:13Z</time>
      </trkpt>
      <trkpt lat="46.92337" lon="-2.04836">
        <ele>2.54</ele>
        <time>2015-08-07T09:47:28Z</time>
      </trkpt>
      <trkpt lat="46.92418" lon="-2.04891">
        <ele>3.02</ele>
        <time>2015-08-07T09:47:45Z</time>
      </trkpt>
      <trkpt lat="46.92478" lon="-2.0493">
        <ele>3.5</ele>
        <time>2015-08-07T09:47:57Z</time>
      </trkpt>
      <trkpt lat="46.92534" lon="-2.04972">
        <ele>3.98</ele>
        <time>2015-08-07T09:48:09Z</time>
      </trkpt>
      <trkpt lat="46.92598" lon="-2.05027">
        <ele>4.46</ele>
        <time>2015-08-07T09:48:23Z</time>
      </trkpt>
      <trkpt lat="46.92672" lon="-2.05099">
        <ele>3.98</ele>
        <time>2015-08-07T09:48:40Z</time>
      </trkpt>
      <trkpt lat="46.92741" lon="-2.05147">
        <ele>3.02</ele>
        <time>2015-08-07T09:48:55Z</time>
      </trkpt>
      <trkpt lat="46.92829" lon="-2.05155">
        <ele>3.5</ele>
        <time>2015-08-07T09:49:12Z</time>
      </trkpt>
      <trkpt lat="46.92883" lon="-2.05171">
        <ele>3.5</ele>
        <time>2015-08-07T09:49:22Z</time>
      </trkpt>
      <trkpt lat="46.92961" lon="-2.05235">
        <ele>2.54</ele>
        <time>2015-08-07T09:49:38Z</time>
      </trkpt>
      <trkpt lat="46.93036" lon="-2.05287">
        <ele>2.06</ele>
        <time>2015-08-07T09:49:53Z</time>
      </trkpt>
      <trkpt lat="46.93093" lon="-2.05364">
        <ele>2.54</ele>
        <time>2015-08-07T09:50:07Z</time>
      </trkpt>
      <trkpt lat="46.93124" lon="-2.05377">
        <ele>2.54</ele>
        <time>2015-08-07T09:50:13Z</time>
      </trkpt>
      <trkpt lat="46.93198" lon="-2.0537">
        <ele>3.5</ele>
        <time>2015-08-07T09:50:27Z</time>
      </trkpt>
      <trkpt lat="46.93219" lon="-2.0537">
        <ele>3.5</ele>
        <time>2015-08-07T09:50:31Z</time>
      </trkpt>
      <trkpt lat="46.93244" lon="-2.0538">
        <ele>3.5</ele>
        <time>2015-08-07T09:50:36Z</time>
      </trkpt>
      <trkpt lat="46.93265" lon="-2.05401">
        <ele>3.02</ele>
        <time>2015-08-07T09:50:41Z</time>
      </trkpt>
      <trkpt lat="46.9334" lon="-2.05496">
        <ele>2.54</ele>
        <time>2015-08-07T09:51:01Z</time>
      </trkpt>
      <trkpt lat="46.93413" lon="-2.05544">
        <ele>2.06</ele>
        <time>2015-08-07T09:51:17Z</time>
      </trkpt>
      <trkpt lat="46.93477" lon="-2.05607">
        <ele>1.58</ele>
        <time>2015-08-07T09:51:32Z</time>
      </trkpt>
      <trkpt lat="46.93491" lon="-2.05641">
        <ele>2.54</ele>
        <time>2015-08-07T09:51:42Z</time>
      </trkpt>
      <trkpt lat="46.9348" lon="-2.05673">
        <ele>3.5</ele>
        <time>2015-08-07T09:51:49Z</time>
      </trkpt>
      <trkpt lat="46.93464" lon="-2.05717">
        <ele>4.94</ele>
        <time>2015-08-07T09:51:57Z</time>
      </trkpt>
      <trkpt lat="46.93455" lon="-2.0574">
        <ele>5.91</ele>
        <time>2015-08-07T09:52:01Z</time>
      </trkpt>
      <trkpt lat="46.93442" lon="-2.05782">
        <ele>6.39</ele>
        <time>2015-08-07T09:52:08Z</time>
      </trkpt>
      <trkpt lat="46.93397" lon="-2.05863">
        <ele>8.79</ele>
        <time>2015-08-07T09:52:20Z</time>
      </trkpt>
      <trkpt lat="46.93357" lon="-2.0596">
        <ele>8.31</ele>
        <time>2015-08-07T09:52:33Z</time>
      </trkpt>
      <trkpt lat="46.93342" lon="-2.06106">
        <ele>6.39</ele>
        <time>2015-08-07T09:52:51Z</time>
      </trkpt>
      <trkpt lat="46.93327" lon="-2.06253">
        <ele>5.42</ele>
        <time>2015-08-07T09:53:10Z</time>
      </trkpt>
      <trkpt lat="46.93322" lon="-2.06393">
        <ele>4.94</ele>
        <time>2015-08-07T09:53:28Z</time>
      </trkpt>
      <trkpt lat="46.93321" lon="-2.06566">
        <ele>4.94</ele>
        <time>2015-08-07T09:53:49Z</time>
      </trkpt>
      <trkpt lat="46.93322" lon="-2.06666">
        <ele>4.46</ele>
        <time>2015-08-07T09:54:01Z</time>
      </trkpt>
      <trkpt lat="46.93325" lon="-2.06698">
        <ele>4.46</ele>
        <time>2015-08-07T09:54:05Z</time>
      </trkpt>
      <trkpt lat="46.93337" lon="-2.06732">
        <ele>4.46</ele>
        <time>2015-08-07T09:54:10Z</time>
      </trkpt>
      <trkpt lat="46.93388" lon="-2.06816">
        <ele>5.42</ele>
        <time>2015-08-07T09:54:25Z</time>
      </trkpt>
      <trkpt lat="46.93448" lon="-2.06941">
        <ele>5.91</ele>
        <time>2015-08-07T09:54:44Z</time>
      </trkpt>
      <trkpt lat="46.935" lon="-2.07054">
        <ele>6.87</ele>
        <time>2015-08-07T09:55:03Z</time>
      </trkpt>
      <trkpt lat="46.93543" lon="-2.07087">
        <ele>5.91</ele>
        <time>2015-08-07T09:55:16Z</time>
      </trkpt>
      <trkpt lat="46.93558" lon="-2.07088">
        <ele>5.91</ele>
        <time>2015-08-07T09:55:20Z</time>
      </trkpt>
      <trkpt lat="46.93595" lon="-2.07101">
        <ele>5.91</ele>
        <time>2015-08-07T09:55:30Z</time>
      </trkpt>
      <trkpt lat="46.93606" lon="-2.07099">
        <ele>5.91</ele>
        <time>2015-08-07T09:55:40Z</time>
      </trkpt>
      <trkpt lat="46.93607" lon="-2.07098">
        <ele>4.46</ele>
        <time>2015-08-07T09:56:16Z</time>
      </trkpt>
      <trkpt lat="46.93607" lon="-2.07098">
        <ele>3.5</ele>
        <time>2015-08-07T09:56:42Z</time>
      </trkpt>
      <trkpt lat="46.9362" lon="-2.07054">
        <ele>3.02</ele>
        <time>2015-08-07T09:56:55Z</time>
      </trkpt>
      <trkpt lat="46.9363" lon="-2.06956">
        <ele>2.54</ele>
        <time>2015-08-07T09:57:09Z</time>
      </trkpt>
      <trkpt lat="46.93638" lon="-2.06831">
        <ele>1.58</ele>
        <time>2015-08-07T09:57:25Z</time>
      </trkpt>
      <trkpt lat="46.93659" lon="-2.06705">
        <ele>1.1</ele>
        <time>2015-08-07T09:57:42Z</time>
      </trkpt>
      <trkpt lat="46.93711" lon="-2.06571">
        <ele>2.06</ele>
        <time>2015-08-07T09:58:02Z</time>
      </trkpt>
      <trkpt lat="46.93744" lon="-2.06472">
        <ele>2.54</ele>
        <time>2015-08-07T09:58:17Z</time>
      </trkpt>
      <trkpt lat="46.93763" lon="-2.06339">
        <ele>2.54</ele>
        <time>2015-08-07T09:58:35Z</time>
      </trkpt>
      <trkpt lat="46.93782" lon="-2.06207">
        <ele>2.54</ele>
        <time>2015-08-07T09:58:53Z</time>
      </trkpt>
      <trkpt lat="46.93807" lon="-2.06057">
        <ele>2.54</ele>
        <time>2015-08-07T09:59:14Z</time>
      </trkpt>
      <trkpt lat="46.93835" lon="-2.06006">
        <ele>3.02</ele>
        <time>2015-08-07T09:59:25Z</time>
      </trkpt>
      <trkpt lat="46.93866" lon="-2.05951">
        <ele>3.02</ele>
        <time>2015-08-07T09:59:35Z</time>
      </trkpt>
      <trkpt lat="46.93945" lon="-2.05835">
        <ele>3.5</ele>
        <time>2015-08-07T09:59:57Z</time>
      </trkpt>
      <trkpt lat="46.93979" lon="-2.05771">
        <ele>3.02</ele>
        <time>2015-08-07T10:00:08Z</time>
      </trkpt>
      <trkpt lat="46.93998" lon="-2.05746">
        <ele>2.54</ele>
        <time>2015-08-07T10:00:13Z</time>
      </trkpt>
      <trkpt lat="46.94008" lon="-2.05714">
        <ele>3.02</ele>
        <time>2015-08-07T10:00:18Z</time>
      </trkpt>
      <trkpt lat="46.94014" lon="-2.0561">
        <ele>2.54</ele>
        <time>2015-08-07T10:00:32Z</time>
      </trkpt>
      <trkpt lat="46.94022" lon="-2.05514">
        <ele>1.1</ele>
        <time>2015-08-07T10:00:45Z</time>
      </trkpt>
      <trkpt lat="46.94024" lon="-2.05485">
        <ele>1.1</ele>
        <time>2015-08-07T10:00:49Z</time>
      </trkpt>
      <trkpt lat="46.94046" lon="-2.05351">
        <ele>0.14</ele>
        <time>2015-08-07T10:01:07Z</time>
      </trkpt>
      <trkpt lat="46.94056" lon="-2.05278">
        <ele>0.14</ele>
        <time>2015-08-07T10:01:17Z</time>
      </trkpt>
      <trkpt lat="46.94067" lon="-2.05253">
        <ele>-0.34</ele>
        <time>2015-08-07T10:01:21Z</time>
      </trkpt>
      <trkpt lat="46.94136" lon="-2.05158">
        <ele>0.62</ele>
        <time>2015-08-07T10:01:39Z</time>
      </trkpt>
      <trkpt lat="46.94151" lon="-2.05138">
        <ele>0.62</ele>
        <time>2015-08-07T10:01:43Z</time>
      </trkpt>
      <trkpt lat="46.94172" lon="-2.05132">
        <ele>0.62</ele>
        <time>2015-08-07T10:01:48Z</time>
      </trkpt>
      <trkpt lat="46.94183" lon="-2.05141">
        <ele>0.62</ele>
        <time>2015-08-07T10:01:51Z</time>
      </trkpt>
      <trkpt lat="46.94194" lon="-2.05138">
        <ele>1.58</ele>
        <time>2015-08-07T10:01:55Z</time>
      </trkpt>
      <trkpt lat="46.94255" lon="-2.05068">
        <ele>1.1</ele>
        <time>2015-08-07T10:02:10Z</time>
      </trkpt>
      <trkpt lat="46.94317" lon="-2.04996">
        <ele>1.58</ele>
        <time>2015-08-07T10:02:26Z</time>
      </trkpt>
      <trkpt lat="46.9438" lon="-2.04912">
        <ele>1.58</ele>
        <time>2015-08-07T10:02:43Z</time>
      </trkpt>
      <trkpt lat="46.9444" lon="-2.0482">
        <ele>1.1</ele>
        <time>2015-08-07T10:03:00Z</time>
      </trkpt>
      <trkpt lat="46.94501" lon="-2.04724">
        <ele>1.58</ele>
        <time>2015-08-07T10:03:17Z</time>
      </trkpt>
      <trkpt lat="46.94535" lon="-2.04617">
        <ele>2.06</ele>
        <time>2015-08-07T10:03:32Z</time>
      </trkpt>
      <trkpt lat="46.94578" lon="-2.0452">
        <ele>1.58</ele>
        <time>2015-08-07T10:03:47Z</time>
      </trkpt>
      <trkpt lat="46.94657" lon="-2.04446">
        <ele>2.54</ele>
        <time>2015-08-07T10:04:04Z</time>
      </trkpt>
      <trkpt lat="46.94748" lon="-2.0437">
        <ele>3.02</ele>
        <time>2015-08-07T10:04:23Z</time>
      </trkpt>
      <trkpt lat="46.9479" lon="-2.04334">
        <ele>3.02</ele>
        <time>2015-08-07T10:04:32Z</time>
      </trkpt>
      <trkpt lat="46.94829" lon="-2.04354">
        <ele>3.5</ele>
        <time>2015-08-07T10:04:41Z</time>
      </trkpt>
      <trkpt lat="46.94872" lon="-2.04484">
        <ele>2.54</ele>
        <time>2015-08-07T10:04:59Z</time>
      </trkpt>
      <trkpt lat="46.94907" lon="-2.0459">
        <ele>1.58</ele>
        <time>2015-08-07T10:05:15Z</time>
      </trkpt>
      <trkpt lat="46.94918" lon="-2.04624">
        <ele>1.58</ele>
        <time>2015-08-07T10:05:20Z</time>
      </trkpt>
      <trkpt lat="46.94954" lon="-2.04738">
        <ele>1.58</ele>
        <time>2015-08-07T10:05:37Z</time>
      </trkpt>
      <trkpt lat="46.9496" lon="-2.04755">
        <ele>2.06</ele>
        <time>2015-08-07T10:05:41Z</time>
      </trkpt>
      <trkpt lat="46.94968" lon="-2.04752">
        <ele>2.06</ele>
        <time>2015-08-07T10:05:46Z</time>
      </trkpt>
      <trkpt lat="46.95001" lon="-2.04725">
        <ele>1.58</ele>
        <time>2015-08-07T10:05:59Z</time>
      </trkpt>
      <trkpt lat="46.95055" lon="-2.04691">
        <ele>1.1</ele>
        <time>2015-08-07T10:06:15Z</time>
      </trkpt>
      <trkpt lat="46.95105" lon="-2.04656">
        <ele>1.1</ele>
        <time>2015-08-07T10:06:28Z</time>
      </trkpt>
      <trkpt lat="46.9518" lon="-2.04604">
        <ele>2.06</ele>
        <time>2015-08-07T10:06:46Z</time>
      </trkpt>
      <trkpt lat="46.95264" lon="-2.04544">
        <ele>2.54</ele>
        <time>2015-08-07T10:07:06Z</time>
      </trkpt>
      <trkpt lat="46.95355" lon="-2.0448">
        <ele>2.06</ele>
        <time>2015-08-07T10:07:26Z</time>
      </trkpt>
      <trkpt lat="46.95455" lon="-2.04411">
        <ele>2.54</ele>
        <time>2015-08-07T10:07:48Z</time>
      </trkpt>
      <trkpt lat="46.95525" lon="-2.04362">
        <ele>2.06</ele>
        <time>2015-08-07T10:08:04Z</time>
      </trkpt>
      <trkpt lat="46.9561" lon="-2.043">
        <ele>2.54</ele>
        <time>2015-08-07T10:08:24Z</time>
      </trkpt>
      <trkpt lat="46.95664" lon="-2.04265">
        <ele>3.02</ele>
        <time>2015-08-07T10:08:36Z</time>
      </trkpt>
      <trkpt lat="46.95729" lon="-2.04241">
        <ele>3.02</ele>
        <time>2015-08-07T10:08:50Z</time>
      </trkpt>
      <trkpt lat="46.95803" lon="-2.04251">
        <ele>2.54</ele>
        <time>2015-08-07T10:09:05Z</time>
      </trkpt>
      <trkpt lat="46.95905" lon="-2.0427">
        <ele>1.58</ele>
        <time>2015-08-07T10:09:24Z</time>
      </trkpt>
      <trkpt lat="46.95999" lon="-2.04285">
        <ele>1.58</ele>
        <time>2015-08-07T10:09:43Z</time>
      </trkpt>
      <trkpt lat="46.96092" lon="-2.04302">
        <ele>1.1</ele>
        <time>2015-08-07T10:10:02Z</time>
      </trkpt>
      <trkpt lat="46.96161" lon="-2.04315">
        <ele>0.62</ele>
        <time>2015-08-07T10:10:18Z</time>
      </trkpt>
      <trkpt lat="46.96203" lon="-2.04323">
        <ele>1.1</ele>
        <time>2015-08-07T10:10:31Z</time>
      </trkpt>
      <trkpt lat="46.96231" lon="-2.04327">
        <ele>0.14</ele>
        <time>2015-08-07T10:10:44Z</time>
      </trkpt>
      <trkpt lat="46.9627" lon="-2.04334">
        <ele>1.1</ele>
        <time>2015-08-07T10:10:59Z</time>
      </trkpt>
      <trkpt lat="46.96338" lon="-2.04346">
        <ele>1.1</ele>
        <time>2015-08-07T10:11:15Z</time>
      </trkpt>
      <trkpt lat="46.96397" lon="-2.04357">
        <ele>0.14</ele>
        <time>2015-08-07T10:11:28Z</time>
      </trkpt>
      <trkpt lat="46.96415" lon="-2.04363">
        <ele>0.14</ele>
        <time>2015-08-07T10:11:32Z</time>
      </trkpt>
      <trkpt lat="46.96499" lon="-2.04374">
        <ele>0.62</ele>
        <time>2015-08-07T10:11:50Z</time>
      </trkpt>
      <trkpt lat="46.96596" lon="-2.04391">
        <ele>0.62</ele>
        <time>2015-08-07T10:12:11Z</time>
      </trkpt>
      <trkpt lat="46.96654" lon="-2.04401">
        <ele>1.1</ele>
        <time>2015-08-07T10:12:23Z</time>
      </trkpt>
      <trkpt lat="46.96672" lon="-2.04397">
        <ele>1.58</ele>
        <time>2015-08-07T10:12:27Z</time>
      </trkpt>
      <trkpt lat="46.96695" lon="-2.04384">
        <ele>1.58</ele>
        <time>2015-08-07T10:12:32Z</time>
      </trkpt>
      <trkpt lat="46.96733" lon="-2.04363">
        <ele>2.54</ele>
        <time>2015-08-07T10:12:40Z</time>
      </trkpt>
      <trkpt lat="46.96746" lon="-2.04357">
        <ele>2.54</ele>
        <time>2015-08-07T10:12:43Z</time>
      </trkpt>
      <trkpt lat="46.96771" lon="-2.04353">
        <ele>2.54</ele>
        <time>2015-08-07T10:12:48Z</time>
      </trkpt>
      <trkpt lat="46.96791" lon="-2.04325">
        <ele>3.02</ele>
        <time>2015-08-07T10:12:54Z</time>
      </trkpt>
      <trkpt lat="46.96798" lon="-2.04242">
        <ele>3.5</ele>
        <time>2015-08-07T10:13:05Z</time>
      </trkpt>
      <trkpt lat="46.96813" lon="-2.04196">
        <ele>4.46</ele>
        <time>2015-08-07T10:13:13Z</time>
      </trkpt>
      <trkpt lat="46.96826" lon="-2.04071">
        <ele>5.91</ele>
        <time>2015-08-07T10:13:31Z</time>
      </trkpt>
      <trkpt lat="46.96838" lon="-2.03931">
        <ele>6.39</ele>
        <time>2015-08-07T10:13:49Z</time>
      </trkpt>
      <trkpt lat="46.9685" lon="-2.03882">
        <ele>6.87</ele>
        <time>2015-08-07T10:13:59Z</time>
      </trkpt>
      <trkpt lat="46.96862" lon="-2.03788">
        <ele>6.39</ele>
        <time>2015-08-07T10:14:15Z</time>
      </trkpt>
      <trkpt lat="46.96873" lon="-2.03712">
        <ele>5.42</ele>
        <time>2015-08-07T10:14:27Z</time>
      </trkpt>
      <trkpt lat="46.96878" lon="-2.03597">
        <ele>3.98</ele>
        <time>2015-08-07T10:14:45Z</time>
      </trkpt>
      <trkpt lat="46.96884" lon="-2.03458">
        <ele>3.02</ele>
        <time>2015-08-07T10:15:04Z</time>
      </trkpt>
      <trkpt lat="46.96887" lon="-2.03355">
        <ele>0.62</ele>
        <time>2015-08-07T10:15:20Z</time>
      </trkpt>
      <trkpt lat="46.9691" lon="-2.03344">
        <ele>1.58</ele>
        <time>2015-08-07T10:15:28Z</time>
      </trkpt>
      <trkpt lat="46.96928" lon="-2.03345">
        <ele>0.62</ele>
        <time>2015-08-07T10:15:38Z</time>
      </trkpt>
      <trkpt lat="46.96928" lon="-2.03347">
        <ele>3.98</ele>
        <time>2015-08-07T10:16:03Z</time>
      </trkpt>
      <trkpt lat="46.96928" lon="-2.03348">
        <ele>4.46</ele>
        <time>2015-08-07T10:16:33Z</time>
      </trkpt>
      <trkpt lat="46.96928" lon="-2.03348">
        <ele>4.94</ele>
        <time>2015-08-07T10:17:05Z</time>
      </trkpt>
      <trkpt lat="46.96947" lon="-2.03349">
        <ele>3.98</ele>
        <time>2015-08-07T10:17:17Z</time>
      </trkpt>
      <trkpt lat="46.97" lon="-2.03343">
        <ele>3.02</ele>
        <time>2015-08-07T10:17:33Z</time>
      </trkpt>
      <trkpt lat="46.97063" lon="-2.03347">
        <ele>2.54</ele>
        <time>2015-08-07T10:17:49Z</time>
      </trkpt>
      <trkpt lat="46.97083" lon="-2.03352">
        <ele>2.54</ele>
        <time>2015-08-07T10:17:54Z</time>
      </trkpt>
      <trkpt lat="46.97096" lon="-2.0336">
        <ele>2.54</ele>
        <time>2015-08-07T10:17:57Z</time>
      </trkpt>
      <trkpt lat="46.97121" lon="-2.03385">
        <ele>2.54</ele>
        <time>2015-08-07T10:18:04Z</time>
      </trkpt>
      <trkpt lat="46.97133" lon="-2.03391">
        <ele>3.02</ele>
        <time>2015-08-07T10:18:07Z</time>
      </trkpt>
      <trkpt lat="46.97142" lon="-2.03394">
        <ele>3.02</ele>
        <time>2015-08-07T10:18:09Z</time>
      </trkpt>
      <trkpt lat="46.97216" lon="-2.03393">
        <ele>3.02</ele>
        <time>2015-08-07T10:18:26Z</time>
      </trkpt>
      <trkpt lat="46.97262" lon="-2.03396">
        <ele>2.54</ele>
        <time>2015-08-07T10:18:36Z</time>
      </trkpt>
      <trkpt lat="46.97333" lon="-2.03377">
        <ele>2.54</ele>
        <time>2015-08-07T10:18:52Z</time>
      </trkpt>
      <trkpt lat="46.97412" lon="-2.03379">
        <ele>2.06</ele>
        <time>2015-08-07T10:19:09Z</time>
      </trkpt>
      <trkpt lat="46.97499" lon="-2.03402">
        <ele>2.06</ele>
        <time>2015-08-07T10:19:28Z</time>
      </trkpt>
      <trkpt lat="46.9759" lon="-2.03452">
        <ele>2.54</ele>
        <time>2015-08-07T10:19:48Z</time>
      </trkpt>
      <trkpt lat="46.97623" lon="-2.03478">
        <ele>3.02</ele>
        <time>2015-08-07T10:19:56Z</time>
      </trkpt>
      <trkpt lat="46.97707" lon="-2.0349">
        <ele>3.5</ele>
        <time>2015-08-07T10:20:14Z</time>
      </trkpt>
      <trkpt lat="46.97778" lon="-2.03487">
        <ele>3.98</ele>
        <time>2015-08-07T10:20:28Z</time>
      </trkpt>
      <trkpt lat="46.97792" lon="-2.03485">
        <ele>4.46</ele>
        <time>2015-08-07T10:20:31Z</time>
      </trkpt>
      <trkpt lat="46.97855" lon="-2.03447">
        <ele>4.46</ele>
        <time>2015-08-07T10:20:45Z</time>
      </trkpt>
      <trkpt lat="46.97944" lon="-2.03396">
        <ele>3.5</ele>
        <time>2015-08-07T10:21:04Z</time>
      </trkpt>
      <trkpt lat="46.97955" lon="-2.03375">
        <ele>3.5</ele>
        <time>2015-08-07T10:21:08Z</time>
      </trkpt>
      <trkpt lat="46.9797" lon="-2.0327">
        <ele>3.98</ele>
        <time>2015-08-07T10:21:23Z</time>
      </trkpt>
      <trkpt lat="46.97992" lon="-2.03245">
        <ele>3.98</ele>
        <time>2015-08-07T10:21:29Z</time>
      </trkpt>
      <trkpt lat="46.98032" lon="-2.03252">
        <ele>3.5</ele>
        <time>2015-08-07T10:21:37Z</time>
      </trkpt>
      <trkpt lat="46.98062" lon="-2.03254">
        <ele>3.5</ele>
        <time>2015-08-07T10:21:43Z</time>
      </trkpt>
      <trkpt lat="46.98086" lon="-2.03241">
        <ele>3.02</ele>
        <time>2015-08-07T10:21:48Z</time>
      </trkpt>
      <trkpt lat="46.98109" lon="-2.03231">
        <ele>3.02</ele>
        <time>2015-08-07T10:21:53Z</time>
      </trkpt>
      <trkpt lat="46.98139" lon="-2.03225">
        <ele>2.54</ele>
        <time>2015-08-07T10:21:59Z</time>
      </trkpt>
      <trkpt lat="46.98156" lon="-2.03193">
        <ele>2.54</ele>
        <time>2015-08-07T10:22:05Z</time>
      </trkpt>
      <trkpt lat="46.98164" lon="-2.03094">
        <ele>3.02</ele>
        <time>2015-08-07T10:22:18Z</time>
      </trkpt>
      <trkpt lat="46.98177" lon="-2.0307">
        <ele>3.02</ele>
        <time>2015-08-07T10:22:22Z</time>
      </trkpt>
      <trkpt lat="46.98215" lon="-2.03052">
        <ele>3.5</ele>
        <time>2015-08-07T10:22:30Z</time>
      </trkpt>
      <trkpt lat="46.9823" lon="-2.03049">
        <ele>3.5</ele>
        <time>2015-08-07T10:22:33Z</time>
      </trkpt>
      <trkpt lat="46.98253" lon="-2.03072">
        <ele>3.5</ele>
        <time>2015-08-07T10:22:39Z</time>
      </trkpt>
      <trkpt lat="46.98273" lon="-2.03106">
        <ele>3.5</ele>
        <time>2015-08-07T10:22:46Z</time>
      </trkpt>
      <trkpt lat="46.98372" lon="-2.03112">
        <ele>3.98</ele>
        <time>2015-08-07T10:23:06Z</time>
      </trkpt>
      <trkpt lat="46.9845" lon="-2.0314">
        <ele>3.5</ele>
        <time>2015-08-07T10:23:22Z</time>
      </trkpt>
      <trkpt lat="46.98465" lon="-2.03144">
        <ele>3.5</ele>
        <time>2015-08-07T10:23:25Z</time>
      </trkpt>
      <trkpt lat="46.98503" lon="-2.03115">
        <ele>3.02</ele>
        <time>2015-08-07T10:23:34Z</time>
      </trkpt>
      <trkpt lat="46.98505" lon="-2.03108">
        <ele>3.02</ele>
        <time>2015-08-07T10:23:35Z</time>
      </trkpt>
      <trkpt lat="46.98557" lon="-2.02982">
        <ele>3.02</ele>
        <time>2015-08-07T10:23:54Z</time>
      </trkpt>
      <trkpt lat="46.98584" lon="-2.02921">
        <ele>2.54</ele>
        <time>2015-08-07T10:24:06Z</time>
      </trkpt>
      <trkpt lat="46.9861" lon="-2.02919">
        <ele>2.54</ele>
        <time>2015-08-07T10:24:19Z</time>
      </trkpt>
      <trkpt lat="46.98665" lon="-2.02931">
        <ele>3.02</ele>
        <time>2015-08-07T10:24:34Z</time>
      </trkpt>
      <trkpt lat="46.98688" lon="-2.02953">
        <ele>3.02</ele>
        <time>2015-08-07T10:24:40Z</time>
      </trkpt>
      <trkpt lat="46.98749" lon="-2.03055">
        <ele>3.02</ele>
        <time>2015-08-07T10:25:00Z</time>
      </trkpt>
      <trkpt lat="46.98758" lon="-2.03071">
        <ele>3.02</ele>
        <time>2015-08-07T10:25:03Z</time>
      </trkpt>
      <trkpt lat="46.98765" lon="-2.03081">
        <ele>3.02</ele>
        <time>2015-08-07T10:25:05Z</time>
      </trkpt>
      <trkpt lat="46.98833" lon="-2.03138">
        <ele>3.02</ele>
        <time>2015-08-07T10:25:22Z</time>
      </trkpt>
      <trkpt lat="46.98854" lon="-2.03149">
        <ele>2.54</ele>
        <time>2015-08-07T10:25:27Z</time>
      </trkpt>
      <trkpt lat="46.98863" lon="-2.03151">
        <ele>2.54</ele>
        <time>2015-08-07T10:25:29Z</time>
      </trkpt>
      <trkpt lat="46.98881" lon="-2.0315">
        <ele>3.02</ele>
        <time>2015-08-07T10:25:33Z</time>
      </trkpt>
      <trkpt lat="46.98909" lon="-2.03121">
        <ele>2.54</ele>
        <time>2015-08-07T10:25:41Z</time>
      </trkpt>
      <trkpt lat="46.9894" lon="-2.03059">
        <ele>3.02</ele>
        <time>2015-08-07T10:25:53Z</time>
      </trkpt>
      <trkpt lat="46.98972" lon="-2.03045">
        <ele>3.02</ele>
        <time>2015-08-07T10:26:01Z</time>
      </trkpt>
      <trkpt lat="46.98985" lon="-2.03045">
        <ele>3.02</ele>
        <time>2015-08-07T10:26:04Z</time>
      </trkpt>
      <trkpt lat="46.99001" lon="-2.03037">
        <ele>3.02</ele>
        <time>2015-08-07T10:26:08Z</time>
      </trkpt>
      <trkpt lat="46.99035" lon="-2.02991">
        <ele>3.02</ele>
        <time>2015-08-07T10:26:21Z</time>
      </trkpt>
      <trkpt lat="46.99103" lon="-2.02942">
        <ele>3.98</ele>
        <time>2015-08-07T10:26:38Z</time>
      </trkpt>
      <trkpt lat="46.99188" lon="-2.029">
        <ele>3.98</ele>
        <time>2015-08-07T10:26:56Z</time>
      </trkpt>
      <trkpt lat="46.99282" lon="-2.02853">
        <ele>3.02</ele>
        <time>2015-08-07T10:27:16Z</time>
      </trkpt>
      <trkpt lat="46.99366" lon="-2.0281">
        <ele>3.5</ele>
        <time>2015-08-07T10:27:34Z</time>
      </trkpt>
      <trkpt lat="46.99466" lon="-2.02758">
        <ele>3.5</ele>
        <time>2015-08-07T10:27:54Z</time>
      </trkpt>
      <trkpt lat="46.9958" lon="-2.027">
        <ele>3.02</ele>
        <time>2015-08-07T10:28:17Z</time>
      </trkpt>
      <trkpt lat="46.99616" lon="-2.02683">
        <ele>3.02</ele>
        <time>2015-08-07T10:28:25Z</time>
      </trkpt>
      <trkpt lat="46.99671" lon="-2.02678">
        <ele>2.06</ele>
        <time>2015-08-07T10:28:37Z</time>
      </trkpt>
      <trkpt lat="46.99716" lon="-2.02664">
        <ele>3.02</ele>
        <time>2015-08-07T10:28:50Z</time>
      </trkpt>
      <trkpt lat="46.99717" lon="-2.02664">
        <ele>3.98</ele>
        <time>2015-08-07T10:29:03Z</time>
      </trkpt>
      <trkpt lat="46.99736" lon="-2.02658">
        <ele>3.5</ele>
        <time>2015-08-07T10:29:13Z</time>
      </trkpt>
      <trkpt lat="46.99746" lon="-2.02672">
        <ele>3.5</ele>
        <time>2015-08-07T10:29:18Z</time>
      </trkpt>
      <trkpt lat="46.99762" lon="-2.02733">
        <ele>3.02</ele>
        <time>2015-08-07T10:29:29Z</time>
      </trkpt>
      <trkpt lat="46.99765" lon="-2.02745">
        <ele>3.02</ele>
        <time>2015-08-07T10:29:31Z</time>
      </trkpt>
      <trkpt lat="46.99786" lon="-2.02841">
        <ele>3.02</ele>
        <time>2015-08-07T10:29:47Z</time>
      </trkpt>
      <trkpt lat="46.99796" lon="-2.02896">
        <ele>3.98</ele>
        <time>2015-08-07T10:29:56Z</time>
      </trkpt>
      <trkpt lat="46.99813" lon="-2.02901">
        <ele>3.5</ele>
        <time>2015-08-07T10:30:01Z</time>
      </trkpt>
      <trkpt lat="46.99859" lon="-2.02892">
        <ele>3.02</ele>
        <time>2015-08-07T10:30:11Z</time>
      </trkpt>
      <trkpt lat="46.9988" lon="-2.02876">
        <ele>2.54</ele>
        <time>2015-08-07T10:30:16Z</time>
      </trkpt>
      <trkpt lat="46.99906" lon="-2.02833">
        <ele>2.54</ele>
        <time>2015-08-07T10:30:24Z</time>
      </trkpt>
      <trkpt lat="46.99937" lon="-2.02815">
        <ele>3.02</ele>
        <time>2015-08-07T10:30:31Z</time>
      </trkpt>
      <trkpt lat="47.00009" lon="-2.02818">
        <ele>3.02</ele>
        <time>2015-08-07T10:30:46Z</time>
      </trkpt>
      <trkpt lat="47.00098" lon="-2.02808">
        <ele>3.02</ele>
        <time>2015-08-07T10:31:04Z</time>
      </trkpt>
      <trkpt lat="47.00191" lon="-2.02783">
        <ele>2.06</ele>
        <time>2015-08-07T10:31:23Z</time>
      </trkpt>
      <trkpt lat="47.00283" lon="-2.02741">
        <ele>1.58</ele>
        <time>2015-08-07T10:31:42Z</time>
      </trkpt>
      <trkpt lat="47.00372" lon="-2.02694">
        <ele>0.62</ele>
        <time>2015-08-07T10:32:01Z</time>
      </trkpt>
      <trkpt lat="47.00456" lon="-2.02654">
        <ele>1.1</ele>
        <time>2015-08-07T10:32:19Z</time>
      </trkpt>
      <trkpt lat="47.00546" lon="-2.02616">
        <ele>1.1</ele>
        <time>2015-08-07T10:32:38Z</time>
      </trkpt>
      <trkpt lat="47.00595" lon="-2.02598">
        <ele>1.1</ele>
        <time>2015-08-07T10:32:49Z</time>
      </trkpt>
      <trkpt lat="47.00635" lon="-2.02586">
        <ele>1.1</ele>
        <time>2015-08-07T10:32:58Z</time>
      </trkpt>
      <trkpt lat="47.00662" lon="-2.02568">
        <ele>1.58</ele>
        <time>2015-08-07T10:33:04Z</time>
      </trkpt>
      <trkpt lat="47.00699" lon="-2.02591">
        <ele>1.58</ele>
        <time>2015-08-07T10:33:13Z</time>
      </trkpt>
      <trkpt lat="47.00716" lon="-2.0269">
        <ele>2.06</ele>
        <time>2015-08-07T10:33:30Z</time>
      </trkpt>
      <trkpt lat="47.00717" lon="-2.02695">
        <ele>2.06</ele>
        <time>2015-08-07T10:33:31Z</time>
      </trkpt>
      <trkpt lat="47.00736" lon="-2.02715">
        <ele>1.58</ele>
        <time>2015-08-07T10:33:37Z</time>
      </trkpt>
      <trkpt lat="47.00764" lon="-2.02711">
        <ele>1.1</ele>
        <time>2015-08-07T10:33:43Z</time>
      </trkpt>
      <trkpt lat="47.00836" lon="-2.0273">
        <ele>2.06</ele>
        <time>2015-08-07T10:33:59Z</time>
      </trkpt>
      <trkpt lat="47.00868" lon="-2.02732">
        <ele>1.58</ele>
        <time>2015-08-07T10:34:06Z</time>
      </trkpt>
      <trkpt lat="47.00896" lon="-2.02734">
        <ele>1.1</ele>
        <time>2015-08-07T10:34:12Z</time>
      </trkpt>
      <trkpt lat="47.00909" lon="-2.02708">
        <ele>1.1</ele>
        <time>2015-08-07T10:34:18Z</time>
      </trkpt>
      <trkpt lat="47.00907" lon="-2.02682">
        <ele>1.58</ele>
        <time>2015-08-07T10:34:22Z</time>
      </trkpt>
      <trkpt lat="47.00907" lon="-2.02668">
        <ele>1.58</ele>
        <time>2015-08-07T10:34:24Z</time>
      </trkpt>
      <trkpt lat="47.00909" lon="-2.02639">
        <ele>1.58</ele>
        <time>2015-08-07T10:34:28Z</time>
      </trkpt>
      <trkpt lat="47.00938" lon="-2.02511">
        <ele>2.06</ele>
        <time>2015-08-07T10:34:46Z</time>
      </trkpt>
      <trkpt lat="47.00979" lon="-2.02391">
        <ele>3.02</ele>
        <time>2015-08-07T10:35:04Z</time>
      </trkpt>
      <trkpt lat="47.01016" lon="-2.02277">
        <ele>3.02</ele>
        <time>2015-08-07T10:35:21Z</time>
      </trkpt>
      <trkpt lat="47.01051" lon="-2.02177">
        <ele>2.54</ele>
        <time>2015-08-07T10:35:36Z</time>
      </trkpt>
      <trkpt lat="47.01086" lon="-2.02068">
        <ele>3.02</ele>
        <time>2015-08-07T10:35:52Z</time>
      </trkpt>
      <trkpt lat="47.01109" lon="-2.02009">
        <ele>3.02</ele>
        <time>2015-08-07T10:36:01Z</time>
      </trkpt>
      <trkpt lat="47.01125" lon="-2.01991">
        <ele>3.5</ele>
        <time>2015-08-07T10:36:05Z</time>
      </trkpt>
      <trkpt lat="47.01148" lon="-2.01976">
        <ele>3.98</ele>
        <time>2015-08-07T10:36:10Z</time>
      </trkpt>
      <trkpt lat="47.01167" lon="-2.01943">
        <ele>4.46</ele>
        <time>2015-08-07T10:36:18Z</time>
      </trkpt>
      <trkpt lat="47.01183" lon="-2.01884">
        <ele>5.42</ele>
        <time>2015-08-07T10:36:35Z</time>
      </trkpt>
      <trkpt lat="47.01188" lon="-2.01806">
        <ele>4.94</ele>
        <time>2015-08-07T10:36:48Z</time>
      </trkpt>
      <trkpt lat="47.01189" lon="-2.01764">
        <ele>3.98</ele>
        <time>2015-08-07T10:36:53Z</time>
      </trkpt>
      <trkpt lat="47.0119" lon="-2.01727">
        <ele>3.02</ele>
        <time>2015-08-07T10:36:59Z</time>
      </trkpt>
      <trkpt lat="47.01196" lon="-2.01717">
        <ele>2.54</ele>
        <time>2015-08-07T10:37:03Z</time>
      </trkpt>
      <trkpt lat="47.01214" lon="-2.01707">
        <ele>2.06</ele>
        <time>2015-08-07T10:37:09Z</time>
      </trkpt>
      <trkpt lat="47.01225" lon="-2.01687">
        <ele>1.58</ele>
        <time>2015-08-07T10:37:14Z</time>
      </trkpt>
      <trkpt lat="47.01266" lon="-2.01583">
        <ele>1.58</ele>
        <time>2015-08-07T10:37:32Z</time>
      </trkpt>
      <trkpt lat="47.01313" lon="-2.01501">
        <ele>1.58</ele>
        <time>2015-08-07T10:37:47Z</time>
      </trkpt>
      <trkpt lat="47.0135" lon="-2.01407">
        <ele>1.58</ele>
        <time>2015-08-07T10:38:02Z</time>
      </trkpt>
      <trkpt lat="47.01404" lon="-2.01316">
        <ele>2.06</ele>
        <time>2015-08-07T10:38:18Z</time>
      </trkpt>
      <trkpt lat="47.01411" lon="-2.01306">
        <ele>2.06</ele>
        <time>2015-08-07T10:38:20Z</time>
      </trkpt>
      <trkpt lat="47.01437" lon="-2.01297">
        <ele>2.06</ele>
        <time>2015-08-07T10:38:28Z</time>
      </trkpt>
      <trkpt lat="47.01447" lon="-2.01298">
        <ele>2.06</ele>
        <time>2015-08-07T10:38:31Z</time>
      </trkpt>
      <trkpt lat="47.01479" lon="-2.01274">
        <ele>0.62</ele>
        <time>2015-08-07T10:38:38Z</time>
      </trkpt>
      <trkpt lat="47.01554" lon="-2.01167">
        <ele>0.62</ele>
        <time>2015-08-07T10:38:57Z</time>
      </trkpt>
      <trkpt lat="47.01597" lon="-2.01138">
        <ele>1.58</ele>
        <time>2015-08-07T10:39:06Z</time>
      </trkpt>
      <trkpt lat="47.01612" lon="-2.011">
        <ele>2.54</ele>
        <time>2015-08-07T10:39:12Z</time>
      </trkpt>
      <trkpt lat="47.01617" lon="-2.0107">
        <ele>3.5</ele>
        <time>2015-08-07T10:39:17Z</time>
      </trkpt>
      <trkpt lat="47.01657" lon="-2.01015">
        <ele>5.42</ele>
        <time>2015-08-07T10:39:31Z</time>
      </trkpt>
      <trkpt lat="47.01656" lon="-2.0096">
        <ele>4.94</ele>
        <time>2015-08-07T10:39:39Z</time>
      </trkpt>
      <trkpt lat="47.01643" lon="-2.00947">
        <ele>4.94</ele>
        <time>2015-08-07T10:39:42Z</time>
      </trkpt>
      <trkpt lat="47.01629" lon="-2.00938">
        <ele>4.94</ele>
        <time>2015-08-07T10:39:45Z</time>
      </trkpt>
      <trkpt lat="47.0161" lon="-2.00926">
        <ele>4.46</ele>
        <time>2015-08-07T10:39:49Z</time>
      </trkpt>
      <trkpt lat="47.01592" lon="-2.00891">
        <ele>3.98</ele>
        <time>2015-08-07T10:39:55Z</time>
      </trkpt>
      <trkpt lat="47.01574" lon="-2.00752">
        <ele>3.02</ele>
        <time>2015-08-07T10:40:13Z</time>
      </trkpt>
      <trkpt lat="47.01555" lon="-2.00713">
        <ele>3.02</ele>
        <time>2015-08-07T10:40:19Z</time>
      </trkpt>
      <trkpt lat="47.01524" lon="-2.00681">
        <ele>3.02</ele>
        <time>2015-08-07T10:40:26Z</time>
      </trkpt>
      <trkpt lat="47.01492" lon="-2.00607">
        <ele>2.54</ele>
        <time>2015-08-07T10:40:37Z</time>
      </trkpt>
      <trkpt lat="47.01488" lon="-2.00584">
        <ele>2.06</ele>
        <time>2015-08-07T10:40:40Z</time>
      </trkpt>
      <trkpt lat="47.01479" lon="-2.00558">
        <ele>2.54</ele>
        <time>2015-08-07T10:40:44Z</time>
      </trkpt>
      <trkpt lat="47.0147" lon="-2.00548">
        <ele>2.54</ele>
        <time>2015-08-07T10:40:46Z</time>
      </trkpt>
      <trkpt lat="47.01457" lon="-2.00515">
        <ele>2.54</ele>
        <time>2015-08-07T10:40:51Z</time>
      </trkpt>
      <trkpt lat="47.01425" lon="-2.00387">
        <ele>3.02</ele>
        <time>2015-08-07T10:41:08Z</time>
      </trkpt>
      <trkpt lat="47.01399" lon="-2.00319">
        <ele>3.02</ele>
        <time>2015-08-07T10:41:18Z</time>
      </trkpt>
      <trkpt lat="47.01397" lon="-2.00306">
        <ele>3.02</ele>
        <time>2015-08-07T10:41:20Z</time>
      </trkpt>
      <trkpt lat="47.01397" lon="-2.00284">
        <ele>3.02</ele>
        <time>2015-08-07T10:41:24Z</time>
      </trkpt>
      <trkpt lat="47.01422" lon="-2.00181">
        <ele>2.54</ele>
        <time>2015-08-07T10:41:42Z</time>
      </trkpt>
      <trkpt lat="47.01442" lon="-2.00096">
        <ele>2.06</ele>
        <time>2015-08-07T10:41:55Z</time>
      </trkpt>
      <trkpt lat="47.01436" lon="-2.00027">
        <ele>2.06</ele>
        <time>2015-08-07T10:42:05Z</time>
      </trkpt>
      <trkpt lat="47.01414" lon="-1.99888">
        <ele>2.06</ele>
        <time>2015-08-07T10:42:25Z</time>
      </trkpt>
      <trkpt lat="47.01411" lon="-1.99871">
        <ele>2.54</ele>
        <time>2015-08-07T10:42:31Z</time>
      </trkpt>
      <trkpt lat="47.01405" lon="-1.99823">
        <ele>2.06</ele>
        <time>2015-08-07T10:42:45Z</time>
      </trkpt>
      <trkpt lat="47.01393" lon="-1.99747">
        <ele>2.06</ele>
        <time>2015-08-07T10:42:59Z</time>
      </trkpt>
      <trkpt lat="47.01385" lon="-1.99697">
        <ele>2.54</ele>
        <time>2015-08-07T10:43:10Z</time>
      </trkpt>
      <trkpt lat="47.0138" lon="-1.99587">
        <ele>2.06</ele>
        <time>2015-08-07T10:43:28Z</time>
      </trkpt>
      <trkpt lat="47.01376" lon="-1.99458">
        <ele>2.54</ele>
        <time>2015-08-07T10:43:47Z</time>
      </trkpt>
      <trkpt lat="47.01372" lon="-1.99339">
        <ele>3.02</ele>
        <time>2015-08-07T10:44:04Z</time>
      </trkpt>
      <trkpt lat="47.01365" lon="-1.99191">
        <ele>2.54</ele>
        <time>2015-08-07T10:44:24Z</time>
      </trkpt>
      <trkpt lat="47.0136" lon="-1.99038">
        <ele>2.54</ele>
        <time>2015-08-07T10:44:44Z</time>
      </trkpt>
      <trkpt lat="47.01354" lon="-1.98892">
        <ele>2.54</ele>
        <time>2015-08-07T10:45:03Z</time>
      </trkpt>
      <trkpt lat="47.01348" lon="-1.98725">
        <ele>3.02</ele>
        <time>2015-08-07T10:45:25Z</time>
      </trkpt>
      <trkpt lat="47.01348" lon="-1.98718">
        <ele>3.02</ele>
        <time>2015-08-07T10:45:26Z</time>
      </trkpt>
      <trkpt lat="47.01367" lon="-1.98693">
        <ele>3.02</ele>
        <time>2015-08-07T10:45:34Z</time>
      </trkpt>
      <trkpt lat="47.01442" lon="-1.98691">
        <ele>2.06</ele>
        <time>2015-08-07T10:45:51Z</time>
      </trkpt>
      <trkpt lat="47.01522" lon="-1.9869">
        <ele>1.1</ele>
        <time>2015-08-07T10:46:08Z</time>
      </trkpt>
      <trkpt lat="47.01583" lon="-1.98688">
        <ele>0.62</ele>
        <time>2015-08-07T10:46:21Z</time>
      </trkpt>
      <trkpt lat="47.01603" lon="-1.98677">
        <ele>0.62</ele>
        <time>2015-08-07T10:46:27Z</time>
      </trkpt>
      <trkpt lat="47.01609" lon="-1.98669">
        <ele>1.1</ele>
        <time>2015-08-07T10:46:29Z</time>
      </trkpt>
      <trkpt lat="47.01654" lon="-1.98584">
        <ele>1.58</ele>
        <time>2015-08-07T10:46:45Z</time>
      </trkpt>
      <trkpt lat="47.0172" lon="-1.98459">
        <ele>2.06</ele>
        <time>2015-08-07T10:47:07Z</time>
      </trkpt>
      <trkpt lat="47.01779" lon="-1.9835">
        <ele>1.58</ele>
        <time>2015-08-07T10:47:25Z</time>
      </trkpt>
      <trkpt lat="47.01836" lon="-1.9824">
        <ele>1.58</ele>
        <time>2015-08-07T10:47:42Z</time>
      </trkpt>
      <trkpt lat="47.01903" lon="-1.98113">
        <ele>1.58</ele>
        <time>2015-08-07T10:48:02Z</time>
      </trkpt>
      <trkpt lat="47.01962" lon="-1.98002">
        <ele>1.58</ele>
        <time>2015-08-07T10:48:19Z</time>
      </trkpt>
      <trkpt lat="47.02036" lon="-1.97863">
        <ele>1.58</ele>
        <time>2015-08-07T10:48:40Z</time>
      </trkpt>
      <trkpt lat="47.02102" lon="-1.97737">
        <ele>1.58</ele>
        <time>2015-08-07T10:48:59Z</time>
      </trkpt>
      <trkpt lat="47.02163" lon="-1.97625">
        <ele>1.1</ele>
        <time>2015-08-07T10:49:16Z</time>
      </trkpt>
      <trkpt lat="47.02186" lon="-1.97608">
        <ele>1.58</ele>
        <time>2015-08-07T10:49:21Z</time>
      </trkpt>
      <trkpt lat="47.02283" lon="-1.97599">
        <ele>1.1</ele>
        <time>2015-08-07T10:49:39Z</time>
      </trkpt>
      <trkpt lat="47.02289" lon="-1.97599">
        <ele>1.58</ele>
        <time>2015-08-07T10:49:40Z</time>
      </trkpt>
      <trkpt lat="47.02405" lon="-1.97589">
        <ele>1.58</ele>
        <time>2015-08-07T10:50:02Z</time>
      </trkpt>
      <trkpt lat="47.02496" lon="-1.97581">
        <ele>0.62</ele>
        <time>2015-08-07T10:50:20Z</time>
      </trkpt>
      <trkpt lat="47.026" lon="-1.97572">
        <ele>0.62</ele>
        <time>2015-08-07T10:50:40Z</time>
      </trkpt>
      <trkpt lat="47.02673" lon="-1.97565">
        <ele>-0.34</ele>
        <time>2015-08-07T10:50:55Z</time>
      </trkpt>
      <trkpt lat="47.02689" lon="-1.97554">
        <ele>0.14</ele>
        <time>2015-08-07T10:50:59Z</time>
      </trkpt>
      <trkpt lat="47.02704" lon="-1.97527">
        <ele>1.1</ele>
        <time>2015-08-07T10:51:05Z</time>
      </trkpt>
      <trkpt lat="47.02712" lon="-1.97427">
        <ele>2.54</ele>
        <time>2015-08-07T10:51:23Z</time>
      </trkpt>
      <trkpt lat="47.02719" lon="-1.97302">
        <ele>3.5</ele>
        <time>2015-08-07T10:51:44Z</time>
      </trkpt>
      <trkpt lat="47.02721" lon="-1.97284">
        <ele>3.02</ele>
        <time>2015-08-07T10:51:47Z</time>
      </trkpt>
      <trkpt lat="47.02752" lon="-1.97183">
        <ele>3.02</ele>
        <time>2015-08-07T10:52:04Z</time>
      </trkpt>
      <trkpt lat="47.02763" lon="-1.97164">
        <ele>3.02</ele>
        <time>2015-08-07T10:52:08Z</time>
      </trkpt>
      <trkpt lat="47.02831" lon="-1.97099">
        <ele>3.5</ele>
        <time>2015-08-07T10:52:27Z</time>
      </trkpt>
      <trkpt lat="47.02861" lon="-1.97083">
        <ele>4.46</ele>
        <time>2015-08-07T10:52:40Z</time>
      </trkpt>
      <trkpt lat="47.02879" lon="-1.97072">
        <ele>4.94</ele>
        <time>2015-08-07T10:52:51Z</time>
      </trkpt>
      <trkpt lat="47.02879" lon="-1.97072">
        <ele>4.94</ele>
        <time>2015-08-07T10:53:16Z</time>
      </trkpt>
      <trkpt lat="47.0288" lon="-1.97072">
        <ele>5.42</ele>
        <time>2015-08-07T10:53:45Z</time>
      </trkpt>
      <trkpt lat="47.02879" lon="-1.97072">
        <ele>5.91</ele>
        <time>2015-08-07T10:54:10Z</time>
      </trkpt>
      <trkpt lat="47.02879" lon="-1.97072">
        <ele>5.91</ele>
        <time>2015-08-07T10:54:14Z</time>
      </trkpt>
      <trkpt lat="47.0288" lon="-1.97073">
        <ele>5.91</ele>
        <time>2015-08-07T10:54:16Z</time>
      </trkpt>
      <trkpt lat="47.02925" lon="-1.97069">
        <ele>4.46</ele>
        <time>2015-08-07T10:54:31Z</time>
      </trkpt>
      <trkpt lat="47.02991" lon="-1.97087">
        <ele>3.98</ele>
        <time>2015-08-07T10:54:47Z</time>
      </trkpt>
      <trkpt lat="47.03003" lon="-1.97092">
        <ele>3.98</ele>
        <time>2015-08-07T10:54:50Z</time>
      </trkpt>
      <trkpt lat="47.03012" lon="-1.97095">
        <ele>3.98</ele>
        <time>2015-08-07T10:54:52Z</time>
      </trkpt>
      <trkpt lat="47.03032" lon="-1.97102">
        <ele>3.98</ele>
        <time>2015-08-07T10:54:57Z</time>
      </trkpt>
      <trkpt lat="47.0305" lon="-1.97108">
        <ele>3.5</ele>
        <time>2015-08-07T10:55:01Z</time>
      </trkpt>
      <trkpt lat="47.03063" lon="-1.97111">
        <ele>3.02</ele>
        <time>2015-08-07T10:55:04Z</time>
      </trkpt>
      <trkpt lat="47.03144" lon="-1.97112">
        <ele>3.98</ele>
        <time>2015-08-07T10:55:23Z</time>
      </trkpt>
      <trkpt lat="47.03221" lon="-1.97088">
        <ele>3.5</ele>
        <time>2015-08-07T10:55:41Z</time>
      </trkpt>
      <trkpt lat="47.03239" lon="-1.97083">
        <ele>3.02</ele>
        <time>2015-08-07T10:55:45Z</time>
      </trkpt>
      <trkpt lat="47.03319" lon="-1.97072">
        <ele>2.54</ele>
        <time>2015-08-07T10:56:03Z</time>
      </trkpt>
      <trkpt lat="47.03382" lon="-1.97056">
        <ele>2.06</ele>
        <time>2015-08-07T10:56:17Z</time>
      </trkpt>
      <trkpt lat="47.03402" lon="-1.97043">
        <ele>2.54</ele>
        <time>2015-08-07T10:56:22Z</time>
      </trkpt>
      <trkpt lat="47.03423" lon="-1.97054">
        <ele>3.5</ele>
        <time>2015-08-07T10:56:29Z</time>
      </trkpt>
      <trkpt lat="47.03422" lon="-1.97118">
        <ele>4.94</ele>
        <time>2015-08-07T10:56:42Z</time>
      </trkpt>
      <trkpt lat="47.03419" lon="-1.97122">
        <ele>4.94</ele>
        <time>2015-08-07T10:56:43Z</time>
      </trkpt>
      <trkpt lat="47.03404" lon="-1.97132">
        <ele>4.94</ele>
        <time>2015-08-07T10:56:47Z</time>
      </trkpt>
      <trkpt lat="47.03329" lon="-1.9715">
        <ele>4.46</ele>
        <time>2015-08-07T10:57:03Z</time>
      </trkpt>
      <trkpt lat="47.03242" lon="-1.97162">
        <ele>5.42</ele>
        <time>2015-08-07T10:57:22Z</time>
      </trkpt>
      <trkpt lat="47.03154" lon="-1.97191">
        <ele>4.94</ele>
        <time>2015-08-07T10:57:41Z</time>
      </trkpt>
      <trkpt lat="47.03075" lon="-1.97209">
        <ele>4.94</ele>
        <time>2015-08-07T10:57:58Z</time>
      </trkpt>
      <trkpt lat="47.02996" lon="-1.97233">
        <ele>4.94</ele>
        <time>2015-08-07T10:58:15Z</time>
      </trkpt>
      <trkpt lat="47.02949" lon="-1.9725">
        <ele>4.94</ele>
        <time>2015-08-07T10:58:25Z</time>
      </trkpt>
      <trkpt lat="47.02925" lon="-1.97277">
        <ele>4.46</ele>
        <time>2015-08-07T10:58:31Z</time>
      </trkpt>
      <trkpt lat="47.02908" lon="-1.97356">
        <ele>4.94</ele>
        <time>2015-08-07T10:58:44Z</time>
      </trkpt>
      <trkpt lat="47.02911" lon="-1.97448">
        <ele>5.42</ele>
        <time>2015-08-07T10:59:00Z</time>
      </trkpt>
      <trkpt lat="47.02915" lon="-1.97554">
        <ele>4.46</ele>
        <time>2015-08-07T10:59:18Z</time>
      </trkpt>
      <trkpt lat="47.02918" lon="-1.97629">
        <ele>4.46</ele>
        <time>2015-08-07T10:59:31Z</time>
      </trkpt>
      <trkpt lat="47.02925" lon="-1.97744">
        <ele>4.94</ele>
        <time>2015-08-07T10:59:49Z</time>
      </trkpt>
      <trkpt lat="47.02927" lon="-1.97757">
        <ele>4.94</ele>
        <time>2015-08-07T10:59:51Z</time>
      </trkpt>
      <trkpt lat="47.02951" lon="-1.97855">
        <ele>4.94</ele>
        <time>2015-08-07T11:00:08Z</time>
      </trkpt>
      <trkpt lat="47.02978" lon="-1.97898">
        <ele>5.42</ele>
        <time>2015-08-07T11:00:20Z</time>
      </trkpt>
      <trkpt lat="47.03012" lon="-1.97922">
        <ele>5.42</ele>
        <time>2015-08-07T11:00:32Z</time>
      </trkpt>
      <trkpt lat="47.03014" lon="-1.97923">
        <ele>5.91</ele>
        <time>2015-08-07T11:00:33Z</time>
      </trkpt>
      <trkpt lat="47.03005" lon="-1.97925">
        <ele>5.91</ele>
        <time>2015-08-07T11:00:41Z</time>
      </trkpt>
      <trkpt lat="47.02979" lon="-1.97906">
        <ele>5.91</ele>
        <time>2015-08-07T11:00:50Z</time>
      </trkpt>
      <trkpt lat="47.02973" lon="-1.97935">
        <ele>5.42</ele>
        <time>2015-08-07T11:00:58Z</time>
      </trkpt>
      <trkpt lat="47.02987" lon="-1.97976">
        <ele>4.46</ele>
        <time>2015-08-07T11:01:06Z</time>
      </trkpt>
      <trkpt lat="47.02999" lon="-1.98021">
        <ele>3.98</ele>
        <time>2015-08-07T11:01:14Z</time>
      </trkpt>
      <trkpt lat="47.03006" lon="-1.98118">
        <ele>3.5</ele>
        <time>2015-08-07T11:01:30Z</time>
      </trkpt>
      <trkpt lat="47.0303" lon="-1.982">
        <ele>4.46</ele>
        <time>2015-08-07T11:01:46Z</time>
      </trkpt>
      <trkpt lat="47.03039" lon="-1.9825">
        <ele>4.46</ele>
        <time>2015-08-07T11:01:58Z</time>
      </trkpt>
      <trkpt lat="47.03035" lon="-1.98276">
        <ele>3.5</ele>
        <time>2015-08-07T11:02:10Z</time>
      </trkpt>
      <trkpt lat="47.03035" lon="-1.98278">
        <ele>3.5</ele>
        <time>2015-08-07T11:02:26Z</time>
      </trkpt>
      <trkpt lat="47.03031" lon="-1.98289">
        <ele>4.46</ele>
        <time>2015-08-07T11:02:41Z</time>
      </trkpt>
      <trkpt lat="47.03032" lon="-1.98289">
        <ele>4.94</ele>
        <time>2015-08-07T11:02:57Z</time>
      </trkpt>
      <trkpt lat="47.03032" lon="-1.98291">
        <ele>3.98</ele>
        <time>2015-08-07T11:03:31Z</time>
      </trkpt>
      <trkpt lat="47.03032" lon="-1.98292">
        <ele>4.46</ele>
        <time>2015-08-07T11:04:04Z</time>
      </trkpt>
      <trkpt lat="47.03032" lon="-1.98292">
        <ele>3.98</ele>
        <time>2015-08-07T11:04:23Z</time>
      </trkpt>
      <trkpt lat="47.03032" lon="-1.98293">
        <ele>3.98</ele>
        <time>2015-08-07T11:04:54Z</time>
      </trkpt>
      <trkpt lat="47.03032" lon="-1.98293">
        <ele>3.98</ele>
        <time>2015-08-07T11:05:19Z</time>
      </trkpt>
      <trkpt lat="47.03032" lon="-1.98292">
        <ele>3.98</ele>
        <time>2015-08-07T11:05:37Z</time>
      </trkpt>
      <trkpt lat="47.03032" lon="-1.98291">
        <ele>3.98</ele>
        <time>2015-08-07T11:06:06Z</time>
      </trkpt>
      <trkpt lat="47.03032" lon="-1.98291">
        <ele>4.46</ele>
        <time>2015-08-07T11:06:37Z</time>
      </trkpt>
      <trkpt lat="47.03031" lon="-1.98292">
        <ele>4.46</ele>
        <time>2015-08-07T11:07:10Z</time>
      </trkpt>
      <trkpt lat="47.03031" lon="-1.98291">
        <ele>3.98</ele>
        <time>2015-08-07T11:07:43Z</time>
      </trkpt>
      <trkpt lat="47.03031" lon="-1.98291">
        <ele>3.02</ele>
        <time>2015-08-07T11:08:14Z</time>
      </trkpt>
      <trkpt lat="47.03032" lon="-1.98291">
        <ele>2.06</ele>
        <time>2015-08-07T11:08:40Z</time>
      </trkpt>
      <trkpt lat="47.03032" lon="-1.98291">
        <ele>2.54</ele>
        <time>2015-08-07T11:09:14Z</time>
      </trkpt>
      <trkpt lat="47.03032" lon="-1.98291">
        <ele>2.54</ele>
        <time>2015-08-07T11:09:50Z</time>
      </trkpt>
      <trkpt lat="47.03032" lon="-1.98291">
        <ele>2.54</ele>
        <time>2015-08-07T11:10:22Z</time>
      </trkpt>
      <trkpt lat="47.03032" lon="-1.98291">
        <ele>2.54</ele>
        <time>2015-08-07T11:10:59Z</time>
      </trkpt>
      <trkpt lat="47.03032" lon="-1.98292">
        <ele>2.06</ele>
        <time>2015-08-07T11:11:39Z</time>
      </trkpt>
      <trkpt lat="47.03032" lon="-1.98292">
        <ele>2.54</ele>
        <time>2015-08-07T11:12:14Z</time>
      </trkpt>
      <trkpt lat="47.03032" lon="-1.98292">
        <ele>3.02</ele>
        <time>2015-08-07T11:12:46Z</time>
      </trkpt>
      <trkpt lat="47.03031" lon="-1.98292">
        <ele>2.54</ele>
        <time>2015-08-07T11:13:19Z</time>
      </trkpt>
      <trkpt lat="47.03031" lon="-1.98292">
        <ele>3.02</ele>
        <time>2015-08-07T11:13:53Z</time>
      </trkpt>
      <trkpt lat="47.03031" lon="-1.98292">
        <ele>2.54</ele>
        <time>2015-08-07T11:14:27Z</time>
      </trkpt>
      <trkpt lat="47.03031" lon="-1.98292">
        <ele>2.06</ele>
        <time>2015-08-07T11:14:59Z</time>
      </trkpt>
      <trkpt lat="47.03031" lon="-1.98292">
        <ele>2.54</ele>
        <time>2015-08-07T11:15:30Z</time>
      </trkpt>
      <trkpt lat="47.03032" lon="-1.98292">
        <ele>2.06</ele>
        <time>2015-08-07T11:16:04Z</time>
      </trkpt>
      <trkpt lat="47.03032" lon="-1.98292">
        <ele>1.1</ele>
        <time>2015-08-07T11:16:40Z</time>
      </trkpt>
      <trkpt lat="47.03032" lon="-1.98292">
        <ele>1.58</ele>
        <time>2015-08-07T11:17:14Z</time>
      </trkpt>
      <trkpt lat="47.03032" lon="-1.98292">
        <ele>1.1</ele>
        <time>2015-08-07T11:17:46Z</time>
      </trkpt>
      <trkpt lat="47.03032" lon="-1.98292">
        <ele>1.58</ele>
        <time>2015-08-07T11:18:20Z</time>
      </trkpt>
      <trkpt lat="47.03032" lon="-1.98292">
        <ele>1.1</ele>
        <time>2015-08-07T11:18:53Z</time>
      </trkpt>
      <trkpt lat="47.03032" lon="-1.98292">
        <ele>1.58</ele>
        <time>2015-08-07T11:19:28Z</time>
      </trkpt>
      <trkpt lat="47.03032" lon="-1.98292">
        <ele>2.54</ele>
        <time>2015-08-07T11:20:02Z</time>
      </trkpt>
      <trkpt lat="47.03032" lon="-1.98292">
        <ele>3.5</ele>
        <time>2015-08-07T11:20:39Z</time>
      </trkpt>
      <trkpt lat="47.03032" lon="-1.98291">
        <ele>2.54</ele>
        <time>2015-08-07T11:21:11Z</time>
      </trkpt>
      <trkpt lat="47.03031" lon="-1.98292">
        <ele>3.02</ele>
        <time>2015-08-07T11:21:44Z</time>
      </trkpt>
      <trkpt lat="47.03031" lon="-1.98291">
        <ele>3.02</ele>
        <time>2015-08-07T11:22:24Z</time>
      </trkpt>
      <trkpt lat="47.03031" lon="-1.98291">
        <ele>3.02</ele>
        <time>2015-08-07T11:22:55Z</time>
      </trkpt>
      <trkpt lat="47.03031" lon="-1.98291">
        <ele>3.02</ele>
        <time>2015-08-07T11:23:28Z</time>
      </trkpt>
      <trkpt lat="47.03032" lon="-1.98291">
        <ele>3.02</ele>
        <time>2015-08-07T11:24:00Z</time>
      </trkpt>
      <trkpt lat="47.03031" lon="-1.98291">
        <ele>2.54</ele>
        <time>2015-08-07T11:24:30Z</time>
      </trkpt>
      <trkpt lat="47.03031" lon="-1.98291">
        <ele>2.06</ele>
        <time>2015-08-07T11:25:04Z</time>
      </trkpt>
      <trkpt lat="47.03031" lon="-1.98291">
        <ele>1.1</ele>
        <time>2015-08-07T11:25:35Z</time>
      </trkpt>
      <trkpt lat="47.03031" lon="-1.98291">
        <ele>1.1</ele>
        <time>2015-08-07T11:26:08Z</time>
      </trkpt>
      <trkpt lat="47.03031" lon="-1.98291">
        <ele>1.1</ele>
        <time>2015-08-07T11:26:45Z</time>
      </trkpt>
      <trkpt lat="47.03031" lon="-1.98291">
        <ele>0.62</ele>
        <time>2015-08-07T11:27:19Z</time>
      </trkpt>
      <trkpt lat="47.03031" lon="-1.98292">
        <ele>0.62</ele>
        <time>2015-08-07T11:27:59Z</time>
      </trkpt>
      <trkpt lat="47.03032" lon="-1.98292">
        <ele>0.62</ele>
        <time>2015-08-07T11:28:30Z</time>
      </trkpt>
      <trkpt lat="47.03032" lon="-1.98292">
        <ele>1.1</ele>
        <time>2015-08-07T11:29:04Z</time>
      </trkpt>
      <trkpt lat="47.03032" lon="-1.98291">
        <ele>2.06</ele>
        <time>2015-08-07T11:29:37Z</time>
      </trkpt>
      <trkpt lat="47.03032" lon="-1.98291">
        <ele>2.54</ele>
        <time>2015-08-07T11:30:11Z</time>
      </trkpt>
      <trkpt lat="47.03032" lon="-1.98291">
        <ele>2.54</ele>
        <time>2015-08-07T11:30:42Z</time>
      </trkpt>
      <trkpt lat="47.03032" lon="-1.98292">
        <ele>3.02</ele>
        <time>2015-08-07T11:31:16Z</time>
      </trkpt>
      <trkpt lat="47.03032" lon="-1.98291">
        <ele>3.5</ele>
        <time>2015-08-07T11:31:50Z</time>
      </trkpt>
      <trkpt lat="47.03032" lon="-1.98291">
        <ele>3.98</ele>
        <time>2015-08-07T11:32:27Z</time>
      </trkpt>
      <trkpt lat="47.03032" lon="-1.98291">
        <ele>4.46</ele>
        <time>2015-08-07T11:33:03Z</time>
      </trkpt>
      <trkpt lat="47.03032" lon="-1.9829">
        <ele>4.46</ele>
        <time>2015-08-07T11:33:36Z</time>
      </trkpt>
      <trkpt lat="47.03032" lon="-1.98291">
        <ele>3.98</ele>
        <time>2015-08-07T11:34:08Z</time>
      </trkpt>
      <trkpt lat="47.03032" lon="-1.98291">
        <ele>3.98</ele>
        <time>2015-08-07T11:34:45Z</time>
      </trkpt>
      <trkpt lat="47.03032" lon="-1.98291">
        <ele>4.94</ele>
        <time>2015-08-07T11:35:25Z</time>
      </trkpt>
      <trkpt lat="47.03032" lon="-1.98291">
        <ele>4.46</ele>
        <time>2015-08-07T11:36:02Z</time>
      </trkpt>
      <trkpt lat="47.03032" lon="-1.98291">
        <ele>4.94</ele>
        <time>2015-08-07T11:36:38Z</time>
      </trkpt>
      <trkpt lat="47.03032" lon="-1.98291">
        <ele>4.94</ele>
        <time>2015-08-07T11:37:19Z</time>
      </trkpt>
      <trkpt lat="47.03032" lon="-1.98291">
        <ele>4.94</ele>
        <time>2015-08-07T11:37:59Z</time>
      </trkpt>
      <trkpt lat="47.03032" lon="-1.98292">
        <ele>4.94</ele>
        <time>2015-08-07T11:38:39Z</time>
      </trkpt>
      <trkpt lat="47.03032" lon="-1.98292">
        <ele>5.42</ele>
        <time>2015-08-07T11:39:20Z</time>
      </trkpt>
      <trkpt lat="47.03032" lon="-1.98292">
        <ele>5.42</ele>
        <time>2015-08-07T11:39:57Z</time>
      </trkpt>
      <trkpt lat="47.03031" lon="-1.98292">
        <ele>4.94</ele>
        <time>2015-08-07T11:40:33Z</time>
      </trkpt>
      <trkpt lat="47.03031" lon="-1.98292">
        <ele>4.46</ele>
        <time>2015-08-07T11:41:15Z</time>
      </trkpt>
      <trkpt lat="47.03031" lon="-1.98293">
        <ele>3.98</ele>
        <time>2015-08-07T11:41:54Z</time>
      </trkpt>
      <trkpt lat="47.0303" lon="-1.98293">
        <ele>3.98</ele>
        <time>2015-08-07T11:42:31Z</time>
      </trkpt>
      <trkpt lat="47.0303" lon="-1.98293">
        <ele>3.5</ele>
        <time>2015-08-07T11:43:10Z</time>
      </trkpt>
      <trkpt lat="47.0303" lon="-1.98293">
        <ele>3.02</ele>
        <time>2015-08-07T11:43:45Z</time>
      </trkpt>
      <trkpt lat="47.0303" lon="-1.98293">
        <ele>3.5</ele>
        <time>2015-08-07T11:44:24Z</time>
      </trkpt>
      <trkpt lat="47.0303" lon="-1.98292">
        <ele>3.5</ele>
        <time>2015-08-07T11:45:03Z</time>
      </trkpt>
      <trkpt lat="47.0303" lon="-1.98293">
        <ele>3.5</ele>
        <time>2015-08-07T11:45:42Z</time>
      </trkpt>
      <trkpt lat="47.0303" lon="-1.98293">
        <ele>3.02</ele>
        <time>2015-08-07T11:46:21Z</time>
      </trkpt>
      <trkpt lat="47.03031" lon="-1.98293">
        <ele>2.54</ele>
        <time>2015-08-07T11:46:58Z</time>
      </trkpt>
      <trkpt lat="47.0303" lon="-1.98293">
        <ele>3.02</ele>
        <time>2015-08-07T11:47:31Z</time>
      </trkpt>
      <trkpt lat="47.0303" lon="-1.98292">
        <ele>3.02</ele>
        <time>2015-08-07T11:48:08Z</time>
      </trkpt>
      <trkpt lat="47.0303" lon="-1.98293">
        <ele>3.02</ele>
        <time>2015-08-07T11:48:45Z</time>
      </trkpt>
      <trkpt lat="47.0303" lon="-1.98293">
        <ele>3.98</ele>
        <time>2015-08-07T11:49:22Z</time>
      </trkpt>
      <trkpt lat="47.0303" lon="-1.98293">
        <ele>3.5</ele>
        <time>2015-08-07T11:49:59Z</time>
      </trkpt>
      <trkpt lat="47.03031" lon="-1.98293">
        <ele>3.98</ele>
        <time>2015-08-07T11:50:42Z</time>
      </trkpt>
      <trkpt lat="47.03031" lon="-1.98293">
        <ele>3.5</ele>
        <time>2015-08-07T11:51:20Z</time>
      </trkpt>
      <trkpt lat="47.03031" lon="-1.98293">
        <ele>3.5</ele>
        <time>2015-08-07T11:51:58Z</time>
      </trkpt>
      <trkpt lat="47.03031" lon="-1.98292">
        <ele>3.5</ele>
        <time>2015-08-07T11:52:34Z</time>
      </trkpt>
      <trkpt lat="47.03031" lon="-1.98292">
        <ele>3.5</ele>
        <time>2015-08-07T11:53:09Z</time>
      </trkpt>
      <trkpt lat="47.03031" lon="-1.98293">
        <ele>3.98</ele>
        <time>2015-08-07T11:53:47Z</time>
      </trkpt>
      <trkpt lat="47.0303" lon="-1.98293">
        <ele>4.46</ele>
        <time>2015-08-07T11:54:25Z</time>
      </trkpt>
      <trkpt lat="47.03031" lon="-1.98294">
        <ele>4.46</ele>
        <time>2015-08-07T11:55:01Z</time>
      </trkpt>
      <trkpt lat="47.03031" lon="-1.98294">
        <ele>4.46</ele>
        <time>2015-08-07T11:55:32Z</time>
      </trkpt>
      <trkpt lat="47.0303" lon="-1.98295">
        <ele>4.46</ele>
        <time>2015-08-07T11:56:09Z</time>
      </trkpt>
      <trkpt lat="47.03031" lon="-1.98294">
        <ele>4.46</ele>
        <time>2015-08-07T11:56:47Z</time>
      </trkpt>
      <trkpt lat="47.03031" lon="-1.98293">
        <ele>4.46</ele>
        <time>2015-08-07T11:57:22Z</time>
      </trkpt>
      <trkpt lat="47.03031" lon="-1.98293">
        <ele>3.98</ele>
        <time>2015-08-07T11:57:55Z</time>
      </trkpt>
      <trkpt lat="47.03031" lon="-1.98293">
        <ele>3.98</ele>
        <time>2015-08-07T11:58:33Z</time>
      </trkpt>
      <trkpt lat="47.03031" lon="-1.98293">
        <ele>4.46</ele>
        <time>2015-08-07T11:59:02Z</time>
      </trkpt>
      <trkpt lat="47.03032" lon="-1.98293">
        <ele>3.98</ele>
        <time>2015-08-07T11:59:38Z</time>
      </trkpt>
      <trkpt lat="47.03031" lon="-1.98294">
        <ele>3.98</ele>
        <time>2015-08-07T12:00:19Z</time>
      </trkpt>
      <trkpt lat="47.03031" lon="-1.98294">
        <ele>3.5</ele>
        <time>2015-08-07T12:00:59Z</time>
      </trkpt>
      <trkpt lat="47.03031" lon="-1.98294">
        <ele>3.98</ele>
        <time>2015-08-07T12:01:36Z</time>
      </trkpt>
      <trkpt lat="47.03031" lon="-1.98294">
        <ele>3.98</ele>
        <time>2015-08-07T12:02:08Z</time>
      </trkpt>
      <trkpt lat="47.03031" lon="-1.98294">
        <ele>4.46</ele>
        <time>2015-08-07T12:02:44Z</time>
      </trkpt>
      <trkpt lat="47.03031" lon="-1.98295">
        <ele>4.94</ele>
        <time>2015-08-07T12:03:20Z</time>
      </trkpt>
      <trkpt lat="47.03032" lon="-1.98295">
        <ele>4.94</ele>
        <time>2015-08-07T12:03:48Z</time>
      </trkpt>
      <trkpt lat="47.03031" lon="-1.98295">
        <ele>4.94</ele>
        <time>2015-08-07T12:04:22Z</time>
      </trkpt>
      <trkpt lat="47.03031" lon="-1.98295">
        <ele>4.46</ele>
        <time>2015-08-07T12:04:48Z</time>
      </trkpt>
      <trkpt lat="47.03031" lon="-1.98295">
        <ele>4.46</ele>
        <time>2015-08-07T12:05:16Z</time>
      </trkpt>
      <trkpt lat="47.0303" lon="-1.98295">
        <ele>3.98</ele>
        <time>2015-08-07T12:05:48Z</time>
      </trkpt>
      <trkpt lat="47.03031" lon="-1.98295">
        <ele>3.98</ele>
        <time>2015-08-07T12:06:20Z</time>
      </trkpt>
      <trkpt lat="47.03031" lon="-1.98296">
        <ele>4.46</ele>
        <time>2015-08-07T12:06:56Z</time>
      </trkpt>
      <trkpt lat="47.03031" lon="-1.98295">
        <ele>4.94</ele>
        <time>2015-08-07T12:07:33Z</time>
      </trkpt>
      <trkpt lat="47.03031" lon="-1.98295">
        <ele>5.42</ele>
        <time>2015-08-07T12:08:09Z</time>
      </trkpt>
      <trkpt lat="47.03031" lon="-1.98295">
        <ele>4.94</ele>
        <time>2015-08-07T12:08:46Z</time>
      </trkpt>
      <trkpt lat="47.03031" lon="-1.98295">
        <ele>4.46</ele>
        <time>2015-08-07T12:09:22Z</time>
      </trkpt>
      <trkpt lat="47.03031" lon="-1.98295">
        <ele>4.46</ele>
        <time>2015-08-07T12:09:56Z</time>
      </trkpt>
      <trkpt lat="47.03031" lon="-1.98294">
        <ele>3.98</ele>
        <time>2015-08-07T12:10:32Z</time>
      </trkpt>
      <trkpt lat="47.03031" lon="-1.98293">
        <ele>3.5</ele>
        <time>2015-08-07T12:11:04Z</time>
      </trkpt>
      <trkpt lat="47.03031" lon="-1.98293">
        <ele>2.54</ele>
        <time>2015-08-07T12:11:38Z</time>
      </trkpt>
      <trkpt lat="47.03031" lon="-1.98293">
        <ele>2.54</ele>
        <time>2015-08-07T12:11:55Z</time>
      </trkpt>
      <trkpt lat="47.03031" lon="-1.98292">
        <ele>2.06</ele>
        <time>2015-08-07T12:12:29Z</time>
      </trkpt>
      <trkpt lat="47.03031" lon="-1.9829">
        <ele>1.1</ele>
        <time>2015-08-07T12:12:55Z</time>
      </trkpt>
      <trkpt lat="47.03033" lon="-1.98282">
        <ele>1.58</ele>
        <time>2015-08-07T12:13:11Z</time>
      </trkpt>
      <trkpt lat="47.03034" lon="-1.98281">
        <ele>1.58</ele>
        <time>2015-08-07T12:13:32Z</time>
      </trkpt>
      <trkpt lat="47.03035" lon="-1.98281">
        <ele>1.1</ele>
        <time>2015-08-07T12:14:08Z</time>
      </trkpt>
      <trkpt lat="47.03035" lon="-1.98281">
        <ele>2.54</ele>
        <time>2015-08-07T12:14:47Z</time>
      </trkpt>
      <trkpt lat="47.03035" lon="-1.98282">
        <ele>2.54</ele>
        <time>2015-08-07T12:15:21Z</time>
      </trkpt>
      <trkpt lat="47.03036" lon="-1.98282">
        <ele>3.02</ele>
        <time>2015-08-07T12:15:54Z</time>
      </trkpt>
      <trkpt lat="47.03036" lon="-1.98282">
        <ele>3.02</ele>
        <time>2015-08-07T12:16:27Z</time>
      </trkpt>
      <trkpt lat="47.03036" lon="-1.98283">
        <ele>2.54</ele>
        <time>2015-08-07T12:16:58Z</time>
      </trkpt>
      <trkpt lat="47.03036" lon="-1.98277">
        <ele>3.02</ele>
        <time>2015-08-07T12:17:19Z</time>
      </trkpt>
      <trkpt lat="47.03037" lon="-1.98276">
        <ele>3.5</ele>
        <time>2015-08-07T12:17:29Z</time>
      </trkpt>
      <trkpt lat="47.03037" lon="-1.98268">
        <ele>3.5</ele>
        <time>2015-08-07T12:17:34Z</time>
      </trkpt>
      <trkpt lat="47.0304" lon="-1.98249">
        <ele>2.54</ele>
        <time>2015-08-07T12:17:42Z</time>
      </trkpt>
      <trkpt lat="47.03026" lon="-1.98193">
        <ele>3.5</ele>
        <time>2015-08-07T12:17:57Z</time>
      </trkpt>
      <trkpt lat="47.03003" lon="-1.98107">
        <ele>3.02</ele>
        <time>2015-08-07T12:18:15Z</time>
      </trkpt>
      <trkpt lat="47.03003" lon="-1.98101">
        <ele>3.02</ele>
        <time>2015-08-07T12:18:16Z</time>
      </trkpt>
      <trkpt lat="47.02995" lon="-1.98008">
        <ele>3.02</ele>
        <time>2015-08-07T12:18:33Z</time>
      </trkpt>
      <trkpt lat="47.02972" lon="-1.97933">
        <ele>2.54</ele>
        <time>2015-08-07T12:18:49Z</time>
      </trkpt>
      <trkpt lat="47.02972" lon="-1.97899">
        <ele>3.5</ele>
        <time>2015-08-07T12:18:59Z</time>
      </trkpt>
      <trkpt lat="47.02982" lon="-1.97899">
        <ele>2.54</ele>
        <time>2015-08-07T12:19:04Z</time>
      </trkpt>
      <trkpt lat="47.03031" lon="-1.97939">
        <ele>3.5</ele>
        <time>2015-08-07T12:19:21Z</time>
      </trkpt>
      <trkpt lat="47.03082" lon="-1.97988">
        <ele>3.5</ele>
        <time>2015-08-07T12:19:38Z</time>
      </trkpt>
      <trkpt lat="47.03131" lon="-1.98043">
        <ele>3.98</ele>
        <time>2015-08-07T12:19:54Z</time>
      </trkpt>
      <trkpt lat="47.03177" lon="-1.98119">
        <ele>4.46</ele>
        <time>2015-08-07T12:20:12Z</time>
      </trkpt>
      <trkpt lat="47.03223" lon="-1.98169">
        <ele>5.42</ele>
        <time>2015-08-07T12:20:28Z</time>
      </trkpt>
      <trkpt lat="47.0328" lon="-1.98213">
        <ele>7.83</ele>
        <time>2015-08-07T12:20:45Z</time>
      </trkpt>
      <trkpt lat="47.03325" lon="-1.98265">
        <ele>8.79</ele>
        <time>2015-08-07T12:21:00Z</time>
      </trkpt>
      <trkpt lat="47.03389" lon="-1.98325">
        <ele>8.79</ele>
        <time>2015-08-07T12:21:19Z</time>
      </trkpt>
      <trkpt lat="47.03458" lon="-1.98387">
        <ele>8.79</ele>
        <time>2015-08-07T12:21:38Z</time>
      </trkpt>
      <trkpt lat="47.03519" lon="-1.9844">
        <ele>7.35</ele>
        <time>2015-08-07T12:21:55Z</time>
      </trkpt>
      <trkpt lat="47.03584" lon="-1.98494">
        <ele>6.87</ele>
        <time>2015-08-07T12:22:12Z</time>
      </trkpt>
      <trkpt lat="47.03638" lon="-1.98535">
        <ele>6.87</ele>
        <time>2015-08-07T12:22:25Z</time>
      </trkpt>
      <trkpt lat="47.03665" lon="-1.98542">
        <ele>6.87</ele>
        <time>2015-08-07T12:22:31Z</time>
      </trkpt>
      <trkpt lat="47.03753" lon="-1.98526">
        <ele>4.94</ele>
        <time>2015-08-07T12:22:48Z</time>
      </trkpt>
      <trkpt lat="47.03838" lon="-1.98515">
        <ele>3.5</ele>
        <time>2015-08-07T12:23:03Z</time>
      </trkpt>
      <trkpt lat="47.03859" lon="-1.98521">
        <ele>3.5</ele>
        <time>2015-08-07T12:23:07Z</time>
      </trkpt>
      <trkpt lat="47.0389" lon="-1.98548">
        <ele>3.5</ele>
        <time>2015-08-07T12:23:14Z</time>
      </trkpt>
      <trkpt lat="47.03907" lon="-1.98566">
        <ele>3.5</ele>
        <time>2015-08-07T12:23:18Z</time>
      </trkpt>
      <trkpt lat="47.03965" lon="-1.98645">
        <ele>3.98</ele>
        <time>2015-08-07T12:23:34Z</time>
      </trkpt>
      <trkpt lat="47.03976" lon="-1.98666">
        <ele>4.46</ele>
        <time>2015-08-07T12:23:38Z</time>
      </trkpt>
      <trkpt lat="47.04028" lon="-1.98755">
        <ele>4.94</ele>
        <time>2015-08-07T12:23:56Z</time>
      </trkpt>
      <trkpt lat="47.04078" lon="-1.98836">
        <ele>5.42</ele>
        <time>2015-08-07T12:24:13Z</time>
      </trkpt>
      <trkpt lat="47.04082" lon="-1.9884">
        <ele>5.42</ele>
        <time>2015-08-07T12:24:14Z</time>
      </trkpt>
      <trkpt lat="47.0415" lon="-1.98894">
        <ele>5.42</ele>
        <time>2015-08-07T12:24:32Z</time>
      </trkpt>
      <trkpt lat="47.04153" lon="-1.98897">
        <ele>5.42</ele>
        <time>2015-08-07T12:24:33Z</time>
      </trkpt>
      <trkpt lat="47.04169" lon="-1.9891">
        <ele>4.94</ele>
        <time>2015-08-07T12:24:37Z</time>
      </trkpt>
      <trkpt lat="47.04244" lon="-1.98971">
        <ele>4.46</ele>
        <time>2015-08-07T12:24:55Z</time>
      </trkpt>
      <trkpt lat="47.04312" lon="-1.99029">
        <ele>3.98</ele>
        <time>2015-08-07T12:25:12Z</time>
      </trkpt>
      <trkpt lat="47.04383" lon="-1.99064">
        <ele>3.98</ele>
        <time>2015-08-07T12:25:28Z</time>
      </trkpt>
      <trkpt lat="47.04407" lon="-1.9907">
        <ele>5.42</ele>
        <time>2015-08-07T12:25:33Z</time>
      </trkpt>
      <trkpt lat="47.0442" lon="-1.99077">
        <ele>5.42</ele>
        <time>2015-08-07T12:25:36Z</time>
      </trkpt>
      <trkpt lat="47.04436" lon="-1.99092">
        <ele>4.94</ele>
        <time>2015-08-07T12:25:40Z</time>
      </trkpt>
      <trkpt lat="47.04514" lon="-1.99129">
        <ele>4.94</ele>
        <time>2015-08-07T12:25:56Z</time>
      </trkpt>
      <trkpt lat="47.04579" lon="-1.99147">
        <ele>5.42</ele>
        <time>2015-08-07T12:26:09Z</time>
      </trkpt>
      <trkpt lat="47.04647" lon="-1.99154">
        <ele>5.42</ele>
        <time>2015-08-07T12:26:21Z</time>
      </trkpt>
      <trkpt lat="47.04743" lon="-1.99133">
        <ele>3.98</ele>
        <time>2015-08-07T12:26:38Z</time>
      </trkpt>
      <trkpt lat="47.04824" lon="-1.99114">
        <ele>4.46</ele>
        <time>2015-08-07T12:26:54Z</time>
      </trkpt>
      <trkpt lat="47.04898" lon="-1.99067">
        <ele>3.98</ele>
        <time>2015-08-07T12:27:10Z</time>
      </trkpt>
      <trkpt lat="47.04965" lon="-1.99054">
        <ele>3.5</ele>
        <time>2015-08-07T12:27:24Z</time>
      </trkpt>
      <trkpt lat="47.05051" lon="-1.99043">
        <ele>3.98</ele>
        <time>2015-08-07T12:27:42Z</time>
      </trkpt>
      <trkpt lat="47.05064" lon="-1.99046">
        <ele>3.5</ele>
        <time>2015-08-07T12:27:45Z</time>
      </trkpt>
      <trkpt lat="47.05092" lon="-1.99037">
        <ele>3.5</ele>
        <time>2015-08-07T12:27:51Z</time>
      </trkpt>
      <trkpt lat="47.05109" lon="-1.99019">
        <ele>3.02</ele>
        <time>2015-08-07T12:27:55Z</time>
      </trkpt>
      <trkpt lat="47.05132" lon="-1.99011">
        <ele>3.02</ele>
        <time>2015-08-07T12:28:00Z</time>
      </trkpt>
      <trkpt lat="47.05153" lon="-1.99013">
        <ele>3.02</ele>
        <time>2015-08-07T12:28:04Z</time>
      </trkpt>
      <trkpt lat="47.05171" lon="-1.99002">
        <ele>3.02</ele>
        <time>2015-08-07T12:28:08Z</time>
      </trkpt>
      <trkpt lat="47.0519" lon="-1.98979">
        <ele>3.02</ele>
        <time>2015-08-07T12:28:13Z</time>
      </trkpt>
      <trkpt lat="47.05253" lon="-1.98955">
        <ele>3.02</ele>
        <time>2015-08-07T12:28:26Z</time>
      </trkpt>
      <trkpt lat="47.0528" lon="-1.98934">
        <ele>3.02</ele>
        <time>2015-08-07T12:28:32Z</time>
      </trkpt>
      <trkpt lat="47.05362" lon="-1.98894">
        <ele>2.54</ele>
        <time>2015-08-07T12:28:50Z</time>
      </trkpt>
      <trkpt lat="47.05417" lon="-1.9887">
        <ele>2.06</ele>
        <time>2015-08-07T12:29:02Z</time>
      </trkpt>
      <trkpt lat="47.05444" lon="-1.98879">
        <ele>2.54</ele>
        <time>2015-08-07T12:29:08Z</time>
      </trkpt>
      <trkpt lat="47.05455" lon="-1.98889">
        <ele>2.06</ele>
        <time>2015-08-07T12:29:11Z</time>
      </trkpt>
      <trkpt lat="47.05522" lon="-1.989">
        <ele>3.02</ele>
        <time>2015-08-07T12:29:26Z</time>
      </trkpt>
      <trkpt lat="47.05602" lon="-1.98901">
        <ele>3.5</ele>
        <time>2015-08-07T12:29:43Z</time>
      </trkpt>
      <trkpt lat="47.05646" lon="-1.98903">
        <ele>3.5</ele>
        <time>2015-08-07T12:29:52Z</time>
      </trkpt>
      <trkpt lat="47.05728" lon="-1.98904">
        <ele>3.98</ele>
        <time>2015-08-07T12:30:10Z</time>
      </trkpt>
      <trkpt lat="47.05818" lon="-1.98902">
        <ele>3.98</ele>
        <time>2015-08-07T12:30:29Z</time>
      </trkpt>
      <trkpt lat="47.05882" lon="-1.98875">
        <ele>2.54</ele>
        <time>2015-08-07T12:30:43Z</time>
      </trkpt>
      <trkpt lat="47.0592" lon="-1.98853">
        <ele>2.54</ele>
        <time>2015-08-07T12:30:51Z</time>
      </trkpt>
      <trkpt lat="47.05939" lon="-1.98809">
        <ele>2.54</ele>
        <time>2015-08-07T12:30:58Z</time>
      </trkpt>
      <trkpt lat="47.05942" lon="-1.98779">
        <ele>3.02</ele>
        <time>2015-08-07T12:31:02Z</time>
      </trkpt>
      <trkpt lat="47.05957" lon="-1.98749">
        <ele>2.06</ele>
        <time>2015-08-07T12:31:07Z</time>
      </trkpt>
      <trkpt lat="47.0599" lon="-1.98725">
        <ele>2.54</ele>
        <time>2015-08-07T12:31:15Z</time>
      </trkpt>
      <trkpt lat="47.06002" lon="-1.9874">
        <ele>3.02</ele>
        <time>2015-08-07T12:31:20Z</time>
      </trkpt>
      <trkpt lat="47.06013" lon="-1.98764">
        <ele>3.5</ele>
        <time>2015-08-07T12:31:25Z</time>
      </trkpt>
      <trkpt lat="47.06018" lon="-1.98774">
        <ele>3.5</ele>
        <time>2015-08-07T12:31:27Z</time>
      </trkpt>
      <trkpt lat="47.06041" lon="-1.98832">
        <ele>3.5</ele>
        <time>2015-08-07T12:31:37Z</time>
      </trkpt>
      <trkpt lat="47.06066" lon="-1.98902">
        <ele>3.5</ele>
        <time>2015-08-07T12:31:48Z</time>
      </trkpt>
      <trkpt lat="47.06107" lon="-1.99064">
        <ele>3.02</ele>
        <time>2015-08-07T12:32:11Z</time>
      </trkpt>
      <trkpt lat="47.06111" lon="-1.99077">
        <ele>3.02</ele>
        <time>2015-08-07T12:32:13Z</time>
      </trkpt>
      <trkpt lat="47.06115" lon="-1.99097">
        <ele>2.54</ele>
        <time>2015-08-07T12:32:16Z</time>
      </trkpt>
      <trkpt lat="47.0612" lon="-1.99117">
        <ele>3.02</ele>
        <time>2015-08-07T12:32:19Z</time>
      </trkpt>
      <trkpt lat="47.06129" lon="-1.99165">
        <ele>3.02</ele>
        <time>2015-08-07T12:32:26Z</time>
      </trkpt>
      <trkpt lat="47.06138" lon="-1.99235">
        <ele>3.02</ele>
        <time>2015-08-07T12:32:36Z</time>
      </trkpt>
      <trkpt lat="47.06147" lon="-1.99349">
        <ele>1.58</ele>
        <time>2015-08-07T12:32:52Z</time>
      </trkpt>
      <trkpt lat="47.0615" lon="-1.9947">
        <ele>0.14</ele>
        <time>2015-08-07T12:33:09Z</time>
      </trkpt>
      <trkpt lat="47.06151" lon="-1.99592">
        <ele>2.06</ele>
        <time>2015-08-07T12:33:26Z</time>
      </trkpt>
      <trkpt lat="47.06151" lon="-1.99713">
        <ele>2.06</ele>
        <time>2015-08-07T12:33:43Z</time>
      </trkpt>
      <trkpt lat="47.06151" lon="-1.99735">
        <ele>2.54</ele>
        <time>2015-08-07T12:33:46Z</time>
      </trkpt>
      <trkpt lat="47.06154" lon="-1.99869">
        <ele>2.54</ele>
        <time>2015-08-07T12:34:05Z</time>
      </trkpt>
      <trkpt lat="47.06163" lon="-1.9997">
        <ele>3.5</ele>
        <time>2015-08-07T12:34:20Z</time>
      </trkpt>
      <trkpt lat="47.06164" lon="-1.99977">
        <ele>3.5</ele>
        <time>2015-08-07T12:34:21Z</time>
      </trkpt>
      <trkpt lat="47.06157" lon="-1.99999">
        <ele>3.5</ele>
        <time>2015-08-07T12:34:25Z</time>
      </trkpt>
      <trkpt lat="47.06149" lon="-2.00007">
        <ele>3.02</ele>
        <time>2015-08-07T12:34:28Z</time>
      </trkpt>
      <trkpt lat="47.06149" lon="-2.00031">
        <ele>3.02</ele>
        <time>2015-08-07T12:34:34Z</time>
      </trkpt>
      <trkpt lat="47.06163" lon="-2.0011">
        <ele>2.06</ele>
        <time>2015-08-07T12:34:47Z</time>
      </trkpt>
      <trkpt lat="47.0618" lon="-2.00182">
        <ele>2.54</ele>
        <time>2015-08-07T12:35:00Z</time>
      </trkpt>
      <trkpt lat="47.062" lon="-2.00188">
        <ele>3.5</ele>
        <time>2015-08-07T12:35:07Z</time>
      </trkpt>
      <trkpt lat="47.0623" lon="-2.00168">
        <ele>4.46</ele>
        <time>2015-08-07T12:35:19Z</time>
      </trkpt>
      <trkpt lat="47.06233" lon="-2.00124">
        <ele>3.98</ele>
        <time>2015-08-07T12:35:28Z</time>
      </trkpt>
      <trkpt lat="47.06234" lon="-2.00076">
        <ele>2.54</ele>
        <time>2015-08-07T12:35:37Z</time>
      </trkpt>
      <trkpt lat="47.06272" lon="-2.00046">
        <ele>2.54</ele>
        <time>2015-08-07T12:35:49Z</time>
      </trkpt>
      <trkpt lat="47.0629" lon="-2.00039">
        <ele>3.02</ele>
        <time>2015-08-07T12:35:54Z</time>
      </trkpt>
      <trkpt lat="47.06311" lon="-1.9998">
        <ele>2.54</ele>
        <time>2015-08-07T12:36:05Z</time>
      </trkpt>
      <trkpt lat="47.06313" lon="-1.99974">
        <ele>2.06</ele>
        <time>2015-08-07T12:36:06Z</time>
      </trkpt>
      <trkpt lat="47.06317" lon="-1.99954">
        <ele>2.06</ele>
        <time>2015-08-07T12:36:09Z</time>
      </trkpt>
      <trkpt lat="47.06352" lon="-1.99893">
        <ele>1.1</ele>
        <time>2015-08-07T12:36:21Z</time>
      </trkpt>
      <trkpt lat="47.06367" lon="-1.99878">
        <ele>2.06</ele>
        <time>2015-08-07T12:36:26Z</time>
      </trkpt>
      <trkpt lat="47.06378" lon="-1.99837">
        <ele>3.98</ele>
        <time>2015-08-07T12:36:34Z</time>
      </trkpt>
      <trkpt lat="47.06392" lon="-1.99826">
        <ele>4.46</ele>
        <time>2015-08-07T12:36:38Z</time>
      </trkpt>
      <trkpt lat="47.06443" lon="-1.99816">
        <ele>6.39</ele>
        <time>2015-08-07T12:36:51Z</time>
      </trkpt>
      <trkpt lat="47.06475" lon="-1.99813">
        <ele>7.83</ele>
        <time>2015-08-07T12:36:59Z</time>
      </trkpt>
      <trkpt lat="47.06541" lon="-1.99797">
        <ele>10.23</ele>
        <time>2015-08-07T12:37:17Z</time>
      </trkpt>
      <trkpt lat="47.0658" lon="-1.99782">
        <ele>13.12</ele>
        <time>2015-08-07T12:37:32Z</time>
      </trkpt>
      <trkpt lat="47.06605" lon="-1.99764">
        <ele>14.08</ele>
        <time>2015-08-07T12:37:43Z</time>
      </trkpt>
      <trkpt lat="47.06648" lon="-1.99741">
        <ele>17.44</ele>
        <time>2015-08-07T12:37:58Z</time>
      </trkpt>
      <trkpt lat="47.06686" lon="-1.99718">
        <ele>19.84</ele>
        <time>2015-08-07T12:38:12Z</time>
      </trkpt>
      <trkpt lat="47.06723" lon="-1.997">
        <ele>21.29</ele>
        <time>2015-08-07T12:38:25Z</time>
      </trkpt>
      <trkpt lat="47.06766" lon="-1.99675">
        <ele>23.69</ele>
        <time>2015-08-07T12:38:40Z</time>
      </trkpt>
      <trkpt lat="47.06808" lon="-1.99647">
        <ele>24.65</ele>
        <time>2015-08-07T12:38:53Z</time>
      </trkpt>
      <trkpt lat="47.06862" lon="-1.99612">
        <ele>24.65</ele>
        <time>2015-08-07T12:39:08Z</time>
      </trkpt>
      <trkpt lat="47.06922" lon="-1.99571">
        <ele>26.57</ele>
        <time>2015-08-07T12:39:24Z</time>
      </trkpt>
      <trkpt lat="47.06991" lon="-1.99525">
        <ele>27.53</ele>
        <time>2015-08-07T12:39:41Z</time>
      </trkpt>
      <trkpt lat="47.07065" lon="-1.99474">
        <ele>28.5</ele>
        <time>2015-08-07T12:39:59Z</time>
      </trkpt>
      <trkpt lat="47.0712" lon="-1.99437">
        <ele>31.86</ele>
        <time>2015-08-07T12:40:13Z</time>
      </trkpt>
      <trkpt lat="47.07166" lon="-1.994">
        <ele>34.26</ele>
        <time>2015-08-07T12:40:28Z</time>
      </trkpt>
      <trkpt lat="47.07228" lon="-1.99345">
        <ele>33.3</ele>
        <time>2015-08-07T12:40:44Z</time>
      </trkpt>
      <trkpt lat="47.07308" lon="-1.99312">
        <ele>28.5</ele>
        <time>2015-08-07T12:40:55Z</time>
      </trkpt>
      <trkpt lat="47.07349" lon="-1.99303">
        <ele>27.53</ele>
        <time>2015-08-07T12:41:02Z</time>
      </trkpt>
      <trkpt lat="47.0737" lon="-1.99304">
        <ele>27.53</ele>
        <time>2015-08-07T12:41:06Z</time>
      </trkpt>
      <trkpt lat="47.07425" lon="-1.99313">
        <ele>27.53</ele>
        <time>2015-08-07T12:41:17Z</time>
      </trkpt>
      <trkpt lat="47.07507" lon="-1.99311">
        <ele>27.05</ele>
        <time>2015-08-07T12:41:32Z</time>
      </trkpt>
      <trkpt lat="47.07571" lon="-1.9929">
        <ele>28.02</ele>
        <time>2015-08-07T12:41:46Z</time>
      </trkpt>
      <trkpt lat="47.07591" lon="-1.99314">
        <ele>27.53</ele>
        <time>2015-08-07T12:41:53Z</time>
      </trkpt>
      <trkpt lat="47.07608" lon="-1.99356">
        <ele>27.05</ele>
        <time>2015-08-07T12:42:01Z</time>
      </trkpt>
      <trkpt lat="47.07633" lon="-1.99438">
        <ele>26.57</ele>
        <time>2015-08-07T12:42:16Z</time>
      </trkpt>
      <trkpt lat="47.07667" lon="-1.99521">
        <ele>27.05</ele>
        <time>2015-08-07T12:42:32Z</time>
      </trkpt>
      <trkpt lat="47.07684" lon="-1.99563">
        <ele>27.05</ele>
        <time>2015-08-07T12:42:40Z</time>
      </trkpt>
      <trkpt lat="47.07703" lon="-1.9961">
        <ele>27.05</ele>
        <time>2015-08-07T12:42:49Z</time>
      </trkpt>
      <trkpt lat="47.07749" lon="-1.99721">
        <ele>28.5</ele>
        <time>2015-08-07T12:43:09Z</time>
      </trkpt>
      <trkpt lat="47.07783" lon="-1.9983">
        <ele>28.02</ele>
        <time>2015-08-07T12:43:25Z</time>
      </trkpt>
      <trkpt lat="47.07821" lon="-1.99911">
        <ele>28.02</ele>
        <time>2015-08-07T12:43:39Z</time>
      </trkpt>
      <trkpt lat="47.0785" lon="-1.99965">
        <ele>28.5</ele>
        <time>2015-08-07T12:43:49Z</time>
      </trkpt>
      <trkpt lat="47.07858" lon="-1.99997">
        <ele>28.5</ele>
        <time>2015-08-07T12:43:54Z</time>
      </trkpt>
      <trkpt lat="47.07865" lon="-2.00113">
        <ele>28.02</ele>
        <time>2015-08-07T12:44:10Z</time>
      </trkpt>
      <trkpt lat="47.07868" lon="-2.00215">
        <ele>28.5</ele>
        <time>2015-08-07T12:44:25Z</time>
      </trkpt>
      <trkpt lat="47.07873" lon="-2.00254">
        <ele>28.5</ele>
        <time>2015-08-07T12:44:31Z</time>
      </trkpt>
      <trkpt lat="47.07883" lon="-2.00359">
        <ele>28.5</ele>
        <time>2015-08-07T12:44:47Z</time>
      </trkpt>
      <trkpt lat="47.0789" lon="-2.00413">
        <ele>28.02</ele>
        <time>2015-08-07T12:44:55Z</time>
      </trkpt>
      <trkpt lat="47.07919" lon="-2.00507">
        <ele>29.94</ele>
        <time>2015-08-07T12:45:11Z</time>
      </trkpt>
      <trkpt lat="47.07946" lon="-2.00581">
        <ele>30.9</ele>
        <time>2015-08-07T12:45:24Z</time>
      </trkpt>
      <trkpt lat="47.07982" lon="-2.00671">
        <ele>31.86</ele>
        <time>2015-08-07T12:45:41Z</time>
      </trkpt>
      <trkpt lat="47.08024" lon="-2.00771">
        <ele>32.34</ele>
        <time>2015-08-07T12:46:00Z</time>
      </trkpt>
      <trkpt lat="47.08062" lon="-2.00865">
        <ele>32.82</ele>
        <time>2015-08-07T12:46:17Z</time>
      </trkpt>
      <trkpt lat="47.0811" lon="-2.00946">
        <ele>32.82</ele>
        <time>2015-08-07T12:46:34Z</time>
      </trkpt>
      <trkpt lat="47.08169" lon="-2.01032">
        <ele>31.86</ele>
        <time>2015-08-07T12:46:52Z</time>
      </trkpt>
      <trkpt lat="47.08175" lon="-2.01043">
        <ele>31.86</ele>
        <time>2015-08-07T12:46:54Z</time>
      </trkpt>
      <trkpt lat="47.08187" lon="-2.01056">
        <ele>31.86</ele>
        <time>2015-08-07T12:46:57Z</time>
      </trkpt>
      <trkpt lat="47.08199" lon="-2.01078">
        <ele>32.34</ele>
        <time>2015-08-07T12:47:01Z</time>
      </trkpt>
      <trkpt lat="47.08234" lon="-2.01161">
        <ele>32.34</ele>
        <time>2015-08-07T12:47:15Z</time>
      </trkpt>
      <trkpt lat="47.08289" lon="-2.01235">
        <ele>31.86</ele>
        <time>2015-08-07T12:47:31Z</time>
      </trkpt>
      <trkpt lat="47.08348" lon="-2.01319">
        <ele>31.86</ele>
        <time>2015-08-07T12:47:49Z</time>
      </trkpt>
      <trkpt lat="47.08395" lon="-2.01392">
        <ele>31.86</ele>
        <time>2015-08-07T12:48:03Z</time>
      </trkpt>
      <trkpt lat="47.08459" lon="-2.01502">
        <ele>31.86</ele>
        <time>2015-08-07T12:48:21Z</time>
      </trkpt>
      <trkpt lat="47.08524" lon="-2.01588">
        <ele>31.86</ele>
        <time>2015-08-07T12:48:36Z</time>
      </trkpt>
      <trkpt lat="47.08542" lon="-2.01614">
        <ele>31.86</ele>
        <time>2015-08-07T12:48:41Z</time>
      </trkpt>
      <trkpt lat="47.08557" lon="-2.01633">
        <ele>30.9</ele>
        <time>2015-08-07T12:48:45Z</time>
      </trkpt>
      <trkpt lat="47.08592" lon="-2.01676">
        <ele>29.94</ele>
        <time>2015-08-07T12:48:56Z</time>
      </trkpt>
      <trkpt lat="47.08574" lon="-2.01708">
        <ele>29.46</ele>
        <time>2015-08-07T12:49:06Z</time>
      </trkpt>
      <trkpt lat="47.08562" lon="-2.01705">
        <ele>29.46</ele>
        <time>2015-08-07T12:49:09Z</time>
      </trkpt>
      <trkpt lat="47.08493" lon="-2.01642">
        <ele>29.46</ele>
        <time>2015-08-07T12:49:25Z</time>
      </trkpt>
      <trkpt lat="47.08475" lon="-2.01626">
        <ele>28.98</ele>
        <time>2015-08-07T12:49:29Z</time>
      </trkpt>
      <trkpt lat="47.08415" lon="-2.01582">
        <ele>28.98</ele>
        <time>2015-08-07T12:49:43Z</time>
      </trkpt>
      <trkpt lat="47.08387" lon="-2.0157">
        <ele>29.94</ele>
        <time>2015-08-07T12:49:50Z</time>
      </trkpt>
      <trkpt lat="47.08349" lon="-2.01551">
        <ele>30.42</ele>
        <time>2015-08-07T12:49:59Z</time>
      </trkpt>
      <trkpt lat="47.08331" lon="-2.01548">
        <ele>30.42</ele>
        <time>2015-08-07T12:50:03Z</time>
      </trkpt>
      <trkpt lat="47.08323" lon="-2.01552">
        <ele>30.42</ele>
        <time>2015-08-07T12:50:05Z</time>
      </trkpt>
      <trkpt lat="47.0831" lon="-2.01567">
        <ele>31.38</ele>
        <time>2015-08-07T12:50:09Z</time>
      </trkpt>
      <trkpt lat="47.08301" lon="-2.01583">
        <ele>30.9</ele>
        <time>2015-08-07T12:50:12Z</time>
      </trkpt>
      <trkpt lat="47.08268" lon="-2.01635">
        <ele>29.94</ele>
        <time>2015-08-07T12:50:22Z</time>
      </trkpt>
      <trkpt lat="47.08204" lon="-2.01727">
        <ele>27.53</ele>
        <time>2015-08-07T12:50:39Z</time>
      </trkpt>
      <trkpt lat="47.08126" lon="-2.01814">
        <ele>23.69</ele>
        <time>2015-08-07T12:50:54Z</time>
      </trkpt>
      <trkpt lat="47.08069" lon="-2.01882">
        <ele>24.65</ele>
        <time>2015-08-07T12:51:09Z</time>
      </trkpt>
      <trkpt lat="47.08065" lon="-2.01886">
        <ele>25.13</ele>
        <time>2015-08-07T12:51:10Z</time>
      </trkpt>
      <trkpt lat="47.08057" lon="-2.01905">
        <ele>25.61</ele>
        <time>2015-08-07T12:51:14Z</time>
      </trkpt>
      <trkpt lat="47.0809" lon="-2.01986">
        <ele>24.17</ele>
        <time>2015-08-07T12:51:28Z</time>
      </trkpt>
      <trkpt lat="47.08144" lon="-2.02102">
        <ele>22.73</ele>
        <time>2015-08-07T12:51:46Z</time>
      </trkpt>
      <trkpt lat="47.0819" lon="-2.02201">
        <ele>22.73</ele>
        <time>2015-08-07T12:52:02Z</time>
      </trkpt>
      <trkpt lat="47.08204" lon="-2.02227">
        <ele>22.73</ele>
        <time>2015-08-07T12:52:07Z</time>
      </trkpt>
      <trkpt lat="47.0824" lon="-2.02304">
        <ele>25.13</ele>
        <time>2015-08-07T12:52:22Z</time>
      </trkpt>
      <trkpt lat="47.0826" lon="-2.0238">
        <ele>27.05</ele>
        <time>2015-08-07T12:52:39Z</time>
      </trkpt>
      <trkpt lat="47.08279" lon="-2.02437">
        <ele>28.98</ele>
        <time>2015-08-07T12:52:52Z</time>
      </trkpt>
      <trkpt lat="47.08308" lon="-2.02498">
        <ele>30.42</ele>
        <time>2015-08-07T12:53:07Z</time>
      </trkpt>
      <trkpt lat="47.08333" lon="-2.02549">
        <ele>29.94</ele>
        <time>2015-08-07T12:53:20Z</time>
      </trkpt>
      <trkpt lat="47.08359" lon="-2.02625">
        <ele>30.9</ele>
        <time>2015-08-07T12:53:35Z</time>
      </trkpt>
      <trkpt lat="47.08365" lon="-2.02646">
        <ele>31.86</ele>
        <time>2015-08-07T12:53:39Z</time>
      </trkpt>
      <trkpt lat="47.08389" lon="-2.02759">
        <ele>28.98</ele>
        <time>2015-08-07T12:53:55Z</time>
      </trkpt>
      <trkpt lat="47.08395" lon="-2.02794">
        <ele>28.5</ele>
        <time>2015-08-07T12:53:59Z</time>
      </trkpt>
      <trkpt lat="47.08402" lon="-2.02835">
        <ele>27.05</ele>
        <time>2015-08-07T12:54:04Z</time>
      </trkpt>
      <trkpt lat="47.08414" lon="-2.02931">
        <ele>28.5</ele>
        <time>2015-08-07T12:54:18Z</time>
      </trkpt>
      <trkpt lat="47.08419" lon="-2.02991">
        <ele>29.94</ele>
        <time>2015-08-07T12:54:30Z</time>
      </trkpt>
      <trkpt lat="47.08415" lon="-2.03052">
        <ele>30.42</ele>
        <time>2015-08-07T12:54:42Z</time>
      </trkpt>
      <trkpt lat="47.08399" lon="-2.03094">
        <ele>30.42</ele>
        <time>2015-08-07T12:54:51Z</time>
      </trkpt>
      <trkpt lat="47.08397" lon="-2.03107">
        <ele>30.42</ele>
        <time>2015-08-07T12:54:56Z</time>
      </trkpt>
      <trkpt lat="47.08394" lon="-2.03121">
        <ele>29.94</ele>
        <time>2015-08-07T12:55:02Z</time>
      </trkpt>
      <trkpt lat="47.08363" lon="-2.03138">
        <ele>28.98</ele>
        <time>2015-08-07T12:55:11Z</time>
      </trkpt>
      <trkpt lat="47.08358" lon="-2.03176">
        <ele>28.02</ele>
        <time>2015-08-07T12:55:18Z</time>
      </trkpt>
      <trkpt lat="47.08364" lon="-2.03187">
        <ele>27.53</ele>
        <time>2015-08-07T12:55:20Z</time>
      </trkpt>
      <trkpt lat="47.08363" lon="-2.03215">
        <ele>26.57</ele>
        <time>2015-08-07T12:55:25Z</time>
      </trkpt>
      <trkpt lat="47.0835" lon="-2.03243">
        <ele>26.09</ele>
        <time>2015-08-07T12:55:30Z</time>
      </trkpt>
      <trkpt lat="47.08325" lon="-2.03304">
        <ele>24.65</ele>
        <time>2015-08-07T12:55:39Z</time>
      </trkpt>
      <trkpt lat="47.08323" lon="-2.03338">
        <ele>23.21</ele>
        <time>2015-08-07T12:55:43Z</time>
      </trkpt>
      <trkpt lat="47.08343" lon="-2.03437">
        <ele>21.29</ele>
        <time>2015-08-07T12:55:55Z</time>
      </trkpt>
      <trkpt lat="47.08354" lon="-2.03507">
        <ele>22.25</ele>
        <time>2015-08-07T12:56:05Z</time>
      </trkpt>
      <trkpt lat="47.08366" lon="-2.03556">
        <ele>23.69</ele>
        <time>2015-08-07T12:56:13Z</time>
      </trkpt>
      <trkpt lat="47.08382" lon="-2.0365">
        <ele>23.69</ele>
        <time>2015-08-07T12:56:28Z</time>
      </trkpt>
      <trkpt lat="47.08396" lon="-2.03701">
        <ele>23.21</ele>
        <time>2015-08-07T12:56:36Z</time>
      </trkpt>
      <trkpt lat="47.08407" lon="-2.03731">
        <ele>22.73</ele>
        <time>2015-08-07T12:56:41Z</time>
      </trkpt>
      <trkpt lat="47.08449" lon="-2.03833">
        <ele>20.32</ele>
        <time>2015-08-07T12:56:57Z</time>
      </trkpt>
      <trkpt lat="47.08459" lon="-2.03858">
        <ele>19.36</ele>
        <time>2015-08-07T12:57:01Z</time>
      </trkpt>
      <trkpt lat="47.08467" lon="-2.03875">
        <ele>19.84</ele>
        <time>2015-08-07T12:57:04Z</time>
      </trkpt>
      <trkpt lat="47.08491" lon="-2.03941">
        <ele>20.81</ele>
        <time>2015-08-07T12:57:19Z</time>
      </trkpt>
      <trkpt lat="47.08507" lon="-2.03979">
        <ele>21.77</ele>
        <time>2015-08-07T12:57:28Z</time>
      </trkpt>
      <trkpt lat="47.0853" lon="-2.03963">
        <ele>23.69</ele>
        <time>2015-08-07T12:57:36Z</time>
      </trkpt>
      <trkpt lat="47.08566" lon="-2.03939">
        <ele>27.05</ele>
        <time>2015-08-07T12:57:50Z</time>
      </trkpt>
      <trkpt lat="47.08598" lon="-2.03909">
        <ele>28.5</ele>
        <time>2015-08-07T12:58:02Z</time>
      </trkpt>
      <trkpt lat="47.08604" lon="-2.03905">
        <ele>28.98</ele>
        <time>2015-08-07T12:58:08Z</time>
      </trkpt>
      <trkpt lat="47.08629" lon="-2.03887">
        <ele>30.42</ele>
        <time>2015-08-07T12:58:21Z</time>
      </trkpt>
      <trkpt lat="47.08662" lon="-2.03868">
        <ele>34.74</ele>
        <time>2015-08-07T12:58:34Z</time>
      </trkpt>
      <trkpt lat="47.0869" lon="-2.03841">
        <ele>38.59</ele>
        <time>2015-08-07T12:58:46Z</time>
      </trkpt>
      <trkpt lat="47.08708" lon="-2.03813">
        <ele>39.55</ele>
        <time>2015-08-07T12:58:55Z</time>
      </trkpt>
      <trkpt lat="47.08746" lon="-2.03757">
        <ele>39.07</ele>
        <time>2015-08-07T12:59:10Z</time>
      </trkpt>
      <trkpt lat="47.08775" lon="-2.03705">
        <ele>42.92</ele>
        <time>2015-08-07T12:59:23Z</time>
      </trkpt>
      <trkpt lat="47.08793" lon="-2.03663">
        <ele>47.24</ele>
        <time>2015-08-07T12:59:33Z</time>
      </trkpt>
      <trkpt lat="47.08829" lon="-2.03595">
        <ele>50.13</ele>
        <time>2015-08-07T12:59:49Z</time>
      </trkpt>
      <trkpt lat="47.08839" lon="-2.03579">
        <ele>48.68</ele>
        <time>2015-08-07T12:59:54Z</time>
      </trkpt>
      <trkpt lat="47.0885" lon="-2.03584">
        <ele>47.24</ele>
        <time>2015-08-07T12:59:58Z</time>
      </trkpt>
      <trkpt lat="47.08896" lon="-2.03638">
        <ele>43.4</ele>
        <time>2015-08-07T13:00:15Z</time>
      </trkpt>
      <trkpt lat="47.0892" lon="-2.03669">
        <ele>42.92</ele>
        <time>2015-08-07T13:00:23Z</time>
      </trkpt>
      <trkpt lat="47.08948" lon="-2.03691">
        <ele>42.92</ele>
        <time>2015-08-07T13:00:30Z</time>
      </trkpt>
      <trkpt lat="47.08957" lon="-2.03706">
        <ele>42.44</ele>
        <time>2015-08-07T13:00:33Z</time>
      </trkpt>
      <trkpt lat="47.08998" lon="-2.03834">
        <ele>40.03</ele>
        <time>2015-08-07T13:00:53Z</time>
      </trkpt>
      <trkpt lat="47.09022" lon="-2.03923">
        <ele>39.07</ele>
        <time>2015-08-07T13:01:08Z</time>
      </trkpt>
      <trkpt lat="47.09004" lon="-2.03956">
        <ele>38.11</ele>
        <time>2015-08-07T13:01:15Z</time>
      </trkpt>
      <trkpt lat="47.08991" lon="-2.03976">
        <ele>38.11</ele>
        <time>2015-08-07T13:01:19Z</time>
      </trkpt>
      <trkpt lat="47.08954" lon="-2.04017">
        <ele>37.15</ele>
        <time>2015-08-07T13:01:29Z</time>
      </trkpt>
      <trkpt lat="47.08949" lon="-2.04054">
        <ele>36.67</ele>
        <time>2015-08-07T13:01:35Z</time>
      </trkpt>
      <trkpt lat="47.08993" lon="-2.0414">
        <ele>35.71</ele>
        <time>2015-08-07T13:01:50Z</time>
      </trkpt>
      <trkpt lat="47.09013" lon="-2.04167">
        <ele>37.15</ele>
        <time>2015-08-07T13:01:55Z</time>
      </trkpt>
      <trkpt lat="47.09024" lon="-2.042">
        <ele>38.11</ele>
        <time>2015-08-07T13:02:01Z</time>
      </trkpt>
      <trkpt lat="47.09029" lon="-2.04224">
        <ele>38.59</ele>
        <time>2015-08-07T13:02:05Z</time>
      </trkpt>
      <trkpt lat="47.09054" lon="-2.04269">
        <ele>37.63</ele>
        <time>2015-08-07T13:02:13Z</time>
      </trkpt>
      <trkpt lat="47.09102" lon="-2.04344">
        <ele>36.67</ele>
        <time>2015-08-07T13:02:28Z</time>
      </trkpt>
      <trkpt lat="47.09129" lon="-2.04338">
        <ele>36.67</ele>
        <time>2015-08-07T13:02:35Z</time>
      </trkpt>
      <trkpt lat="47.09136" lon="-2.04328">
        <ele>37.15</ele>
        <time>2015-08-07T13:02:37Z</time>
      </trkpt>
      <trkpt lat="47.09199" lon="-2.0424">
        <ele>34.74</ele>
        <time>2015-08-07T13:02:52Z</time>
      </trkpt>
      <trkpt lat="47.09268" lon="-2.04136">
        <ele>32.82</ele>
        <time>2015-08-07T13:03:08Z</time>
      </trkpt>
      <trkpt lat="47.09289" lon="-2.0411">
        <ele>31.86</ele>
        <time>2015-08-07T13:03:13Z</time>
      </trkpt>
      <trkpt lat="47.09344" lon="-2.04083">
        <ele>32.34</ele>
        <time>2015-08-07T13:03:25Z</time>
      </trkpt>
      <trkpt lat="47.09362" lon="-2.0411">
        <ele>33.78</ele>
        <time>2015-08-07T13:03:32Z</time>
      </trkpt>
      <trkpt lat="47.09365" lon="-2.04123">
        <ele>33.78</ele>
        <time>2015-08-07T13:03:34Z</time>
      </trkpt>
      <trkpt lat="47.0937" lon="-2.04148">
        <ele>33.78</ele>
        <time>2015-08-07T13:03:38Z</time>
      </trkpt>
      <trkpt lat="47.0938" lon="-2.04189">
        <ele>33.78</ele>
        <time>2015-08-07T13:03:44Z</time>
      </trkpt>
      <trkpt lat="47.09396" lon="-2.04238">
        <ele>32.82</ele>
        <time>2015-08-07T13:03:51Z</time>
      </trkpt>
      <trkpt lat="47.09409" lon="-2.04264">
        <ele>33.3</ele>
        <time>2015-08-07T13:03:55Z</time>
      </trkpt>
      <trkpt lat="47.09448" lon="-2.04308">
        <ele>31.38</ele>
        <time>2015-08-07T13:04:04Z</time>
      </trkpt>
      <trkpt lat="47.09486" lon="-2.0437">
        <ele>30.9</ele>
        <time>2015-08-07T13:04:16Z</time>
      </trkpt>
      <trkpt lat="47.09512" lon="-2.04403">
        <ele>30.42</ele>
        <time>2015-08-07T13:04:25Z</time>
      </trkpt>
      <trkpt lat="47.09515" lon="-2.04402">
        <ele>31.86</ele>
        <time>2015-08-07T13:04:37Z</time>
      </trkpt>
      <trkpt lat="47.09514" lon="-2.04402">
        <ele>31.38</ele>
        <time>2015-08-07T13:04:48Z</time>
      </trkpt>
      <trkpt lat="47.09515" lon="-2.04401">
        <ele>30.9</ele>
        <time>2015-08-07T13:05:27Z</time>
      </trkpt>
      <trkpt lat="47.09515" lon="-2.04402">
        <ele>31.38</ele>
        <time>2015-08-07T13:06:07Z</time>
      </trkpt>
      <trkpt lat="47.09514" lon="-2.04403">
        <ele>31.86</ele>
        <time>2015-08-07T13:06:28Z</time>
      </trkpt>
      <trkpt lat="47.09514" lon="-2.04409">
        <ele>31.38</ele>
        <time>2015-08-07T13:06:37Z</time>
      </trkpt>
      <trkpt lat="47.09533" lon="-2.04432">
        <ele>32.34</ele>
        <time>2015-08-07T13:06:50Z</time>
      </trkpt>
      <trkpt lat="47.09575" lon="-2.0448">
        <ele>31.86</ele>
        <time>2015-08-07T13:07:06Z</time>
      </trkpt>
      <trkpt lat="47.0961" lon="-2.04481">
        <ele>32.82</ele>
        <time>2015-08-07T13:07:16Z</time>
      </trkpt>
      <trkpt lat="47.09623" lon="-2.04481">
        <ele>33.3</ele>
        <time>2015-08-07T13:07:20Z</time>
      </trkpt>
      <trkpt lat="47.09627" lon="-2.04497">
        <ele>32.82</ele>
        <time>2015-08-07T13:07:24Z</time>
      </trkpt>
      <trkpt lat="47.09634" lon="-2.04595">
        <ele>32.82</ele>
        <time>2015-08-07T13:07:41Z</time>
      </trkpt>
      <trkpt lat="47.09634" lon="-2.04602">
        <ele>32.82</ele>
        <time>2015-08-07T13:07:42Z</time>
      </trkpt>
      <trkpt lat="47.09638" lon="-2.04656">
        <ele>32.34</ele>
        <time>2015-08-07T13:07:54Z</time>
      </trkpt>
      <trkpt lat="47.09631" lon="-2.04729">
        <ele>32.82</ele>
        <time>2015-08-07T13:08:07Z</time>
      </trkpt>
      <trkpt lat="47.0962" lon="-2.04754">
        <ele>32.34</ele>
        <time>2015-08-07T13:08:12Z</time>
      </trkpt>
      <trkpt lat="47.09611" lon="-2.04769">
        <ele>31.86</ele>
        <time>2015-08-07T13:08:15Z</time>
      </trkpt>
      <trkpt lat="47.09613" lon="-2.04813">
        <ele>31.38</ele>
        <time>2015-08-07T13:08:22Z</time>
      </trkpt>
      <trkpt lat="47.09664" lon="-2.04909">
        <ele>28.5</ele>
        <time>2015-08-07T13:08:37Z</time>
      </trkpt>
      <trkpt lat="47.09673" lon="-2.04925">
        <ele>28.02</ele>
        <time>2015-08-07T13:08:39Z</time>
      </trkpt>
      <trkpt lat="47.0967" lon="-2.04992">
        <ele>24.65</ele>
        <time>2015-08-07T13:08:46Z</time>
      </trkpt>
      <trkpt lat="47.0961" lon="-2.05086">
        <ele>17.92</ele>
        <time>2015-08-07T13:08:59Z</time>
      </trkpt>
      <trkpt lat="47.09604" lon="-2.05093">
        <ele>17.44</ele>
        <time>2015-08-07T13:09:01Z</time>
      </trkpt>
      <trkpt lat="47.09593" lon="-2.05113">
        <ele>15.52</ele>
        <time>2015-08-07T13:09:05Z</time>
      </trkpt>
      <trkpt lat="47.09584" lon="-2.05163">
        <ele>12.63</ele>
        <time>2015-08-07T13:09:12Z</time>
      </trkpt>
      <trkpt lat="47.09586" lon="-2.05183">
        <ele>11.67</ele>
        <time>2015-08-07T13:09:15Z</time>
      </trkpt>
      <trkpt lat="47.09583" lon="-2.05255">
        <ele>9.27</ele>
        <time>2015-08-07T13:09:27Z</time>
      </trkpt>
      <trkpt lat="47.09594" lon="-2.05311">
        <ele>10.23</ele>
        <time>2015-08-07T13:09:39Z</time>
      </trkpt>
      <trkpt lat="47.09612" lon="-2.05358">
        <ele>13.6</ele>
        <time>2015-08-07T13:09:53Z</time>
      </trkpt>
      <trkpt lat="47.09632" lon="-2.05404">
        <ele>15.04</ele>
        <time>2015-08-07T13:10:07Z</time>
      </trkpt>
      <trkpt lat="47.09651" lon="-2.05453">
        <ele>18.4</ele>
        <time>2015-08-07T13:10:20Z</time>
      </trkpt>
      <trkpt lat="47.09672" lon="-2.05514">
        <ele>24.65</ele>
        <time>2015-08-07T13:10:34Z</time>
      </trkpt>
      <trkpt lat="47.09707" lon="-2.05558">
        <ele>27.53</ele>
        <time>2015-08-07T13:10:48Z</time>
      </trkpt>
      <trkpt lat="47.09745" lon="-2.05601">
        <ele>28.5</ele>
        <time>2015-08-07T13:11:01Z</time>
      </trkpt>
      <trkpt lat="47.09777" lon="-2.05667">
        <ele>32.82</ele>
        <time>2015-08-07T13:11:16Z</time>
      </trkpt>
      <trkpt lat="47.09801" lon="-2.05747">
        <ele>34.26</ele>
        <time>2015-08-07T13:11:33Z</time>
      </trkpt>
      <trkpt lat="47.09803" lon="-2.05752">
        <ele>34.74</ele>
        <time>2015-08-07T13:11:34Z</time>
      </trkpt>
      <trkpt lat="47.09831" lon="-2.0586">
        <ele>34.26</ele>
        <time>2015-08-07T13:11:52Z</time>
      </trkpt>
      <trkpt lat="47.09883" lon="-2.05956">
        <ele>32.82</ele>
        <time>2015-08-07T13:12:07Z</time>
      </trkpt>
      <trkpt lat="47.09917" lon="-2.06008">
        <ele>33.3</ele>
        <time>2015-08-07T13:12:16Z</time>
      </trkpt>
      <trkpt lat="47.09939" lon="-2.06029">
        <ele>33.3</ele>
        <time>2015-08-07T13:12:22Z</time>
      </trkpt>
      <trkpt lat="47.09988" lon="-2.06073">
        <ele>33.78</ele>
        <time>2015-08-07T13:12:37Z</time>
      </trkpt>
      <trkpt lat="47.10041" lon="-2.06067">
        <ele>35.71</ele>
        <time>2015-08-07T13:12:51Z</time>
      </trkpt>
      <trkpt lat="47.10069" lon="-2.06073">
        <ele>36.19</ele>
        <time>2015-08-07T13:12:59Z</time>
      </trkpt>
      <trkpt lat="47.10102" lon="-2.0614">
        <ele>35.23</ele>
        <time>2015-08-07T13:13:13Z</time>
      </trkpt>
      <trkpt lat="47.10114" lon="-2.06175">
        <ele>35.71</ele>
        <time>2015-08-07T13:13:19Z</time>
      </trkpt>
      <trkpt lat="47.10128" lon="-2.06226">
        <ele>35.71</ele>
        <time>2015-08-07T13:13:27Z</time>
      </trkpt>
      <trkpt lat="47.10139" lon="-2.0625">
        <ele>36.19</ele>
        <time>2015-08-07T13:13:31Z</time>
      </trkpt>
      <trkpt lat="47.10146" lon="-2.0626">
        <ele>36.19</ele>
        <time>2015-08-07T13:13:33Z</time>
      </trkpt>
      <trkpt lat="47.10219" lon="-2.06329">
        <ele>35.23</ele>
        <time>2015-08-07T13:13:50Z</time>
      </trkpt>
      <trkpt lat="47.10256" lon="-2.06409">
        <ele>35.71</ele>
        <time>2015-08-07T13:14:03Z</time>
      </trkpt>
      <trkpt lat="47.10282" lon="-2.06482">
        <ele>35.23</ele>
        <time>2015-08-07T13:14:13Z</time>
      </trkpt>
      <trkpt lat="47.10325" lon="-2.06572">
        <ele>34.74</ele>
        <time>2015-08-07T13:14:27Z</time>
      </trkpt>
      <trkpt lat="47.10357" lon="-2.06632">
        <ele>34.26</ele>
        <time>2015-08-07T13:14:39Z</time>
      </trkpt>
      <trkpt lat="47.10365" lon="-2.0666">
        <ele>34.26</ele>
        <time>2015-08-07T13:14:48Z</time>
      </trkpt>
      <trkpt lat="47.10405" lon="-2.06748">
        <ele>33.78</ele>
        <time>2015-08-07T13:15:03Z</time>
      </trkpt>
      <trkpt lat="47.10439" lon="-2.06823">
        <ele>31.86</ele>
        <time>2015-08-07T13:15:16Z</time>
      </trkpt>
      <trkpt lat="47.10491" lon="-2.06912">
        <ele>30.42</ele>
        <time>2015-08-07T13:15:30Z</time>
      </trkpt>
      <trkpt lat="47.10493" lon="-2.06917">
        <ele>30.42</ele>
        <time>2015-08-07T13:15:31Z</time>
      </trkpt>
      <trkpt lat="47.10476" lon="-2.06974">
        <ele>30.42</ele>
        <time>2015-08-07T13:15:40Z</time>
      </trkpt>
      <trkpt lat="47.10443" lon="-2.07094">
        <ele>31.38</ele>
        <time>2015-08-07T13:15:56Z</time>
      </trkpt>
      <trkpt lat="47.10438" lon="-2.07184">
        <ele>29.94</ele>
        <time>2015-08-07T13:16:07Z</time>
      </trkpt>
      <trkpt lat="47.10395" lon="-2.07292">
        <ele>28.02</ele>
        <time>2015-08-07T13:16:21Z</time>
      </trkpt>
      <trkpt lat="47.10384" lon="-2.07315">
        <ele>27.05</ele>
        <time>2015-08-07T13:16:24Z</time>
      </trkpt>
      <trkpt lat="47.10376" lon="-2.07361">
        <ele>25.61</ele>
        <time>2015-08-07T13:16:29Z</time>
      </trkpt>
      <trkpt lat="47.10362" lon="-2.07435">
        <ele>22.73</ele>
        <time>2015-08-07T13:16:36Z</time>
      </trkpt>
      <trkpt lat="47.10356" lon="-2.07456">
        <ele>21.77</ele>
        <time>2015-08-07T13:16:38Z</time>
      </trkpt>
      <trkpt lat="47.10356" lon="-2.07489">
        <ele>20.81</ele>
        <time>2015-08-07T13:16:42Z</time>
      </trkpt>
      <trkpt lat="47.10368" lon="-2.07513">
        <ele>20.81</ele>
        <time>2015-08-07T13:16:46Z</time>
      </trkpt>
      <trkpt lat="47.10382" lon="-2.07554">
        <ele>21.77</ele>
        <time>2015-08-07T13:16:54Z</time>
      </trkpt>
      <trkpt lat="47.10406" lon="-2.0763">
        <ele>21.29</ele>
        <time>2015-08-07T13:17:09Z</time>
      </trkpt>
      <trkpt lat="47.10412" lon="-2.07659">
        <ele>21.29</ele>
        <time>2015-08-07T13:17:19Z</time>
      </trkpt>
      <trkpt lat="47.10417" lon="-2.0769">
        <ele>21.29</ele>
        <time>2015-08-07T13:17:25Z</time>
      </trkpt>
      <trkpt lat="47.10415" lon="-2.07717">
        <ele>22.25</ele>
        <time>2015-08-07T13:17:29Z</time>
      </trkpt>
      <trkpt lat="47.10395" lon="-2.0779">
        <ele>21.29</ele>
        <time>2015-08-07T13:17:40Z</time>
      </trkpt>
      <trkpt lat="47.10393" lon="-2.07803">
        <ele>21.29</ele>
        <time>2015-08-07T13:17:42Z</time>
      </trkpt>
      <trkpt lat="47.10392" lon="-2.07864">
        <ele>20.32</ele>
        <time>2015-08-07T13:17:53Z</time>
      </trkpt>
      <trkpt lat="47.10399" lon="-2.07909">
        <ele>20.32</ele>
        <time>2015-08-07T13:18:00Z</time>
      </trkpt>
      <trkpt lat="47.10422" lon="-2.07979">
        <ele>21.77</ele>
        <time>2015-08-07T13:18:13Z</time>
      </trkpt>
      <trkpt lat="47.10459" lon="-2.08028">
        <ele>23.69</ele>
        <time>2015-08-07T13:18:26Z</time>
      </trkpt>
      <trkpt lat="47.10503" lon="-2.08103">
        <ele>23.69</ele>
        <time>2015-08-07T13:18:42Z</time>
      </trkpt>
      <trkpt lat="47.10511" lon="-2.0812">
        <ele>22.73</ele>
        <time>2015-08-07T13:18:45Z</time>
      </trkpt>
      <trkpt lat="47.1054" lon="-2.08176">
        <ele>22.73</ele>
        <time>2015-08-07T13:18:55Z</time>
      </trkpt>
      <trkpt lat="47.10576" lon="-2.08256">
        <ele>22.73</ele>
        <time>2015-08-07T13:19:10Z</time>
      </trkpt>
      <trkpt lat="47.10591" lon="-2.08275">
        <ele>22.25</ele>
        <time>2015-08-07T13:19:15Z</time>
      </trkpt>
      <trkpt lat="47.10632" lon="-2.08351">
        <ele>20.81</ele>
        <time>2015-08-07T13:19:30Z</time>
      </trkpt>
      <trkpt lat="47.10658" lon="-2.08396">
        <ele>21.29</ele>
        <time>2015-08-07T13:19:38Z</time>
      </trkpt>
      <trkpt lat="47.10691" lon="-2.08457">
        <ele>20.81</ele>
        <time>2015-08-07T13:19:49Z</time>
      </trkpt>
      <trkpt lat="47.10712" lon="-2.08536">
        <ele>17.44</ele>
        <time>2015-08-07T13:20:04Z</time>
      </trkpt>
      <trkpt lat="47.10722" lon="-2.0861">
        <ele>12.63</ele>
        <time>2015-08-07T13:20:17Z</time>
      </trkpt>
      <trkpt lat="47.10738" lon="-2.08695">
        <ele>13.12</ele>
        <time>2015-08-07T13:20:30Z</time>
      </trkpt>
      <trkpt lat="47.10764" lon="-2.0879">
        <ele>16.96</ele>
        <time>2015-08-07T13:20:45Z</time>
      </trkpt>
      <trkpt lat="47.10771" lon="-2.08832">
        <ele>18.4</ele>
        <time>2015-08-07T13:20:52Z</time>
      </trkpt>
      <trkpt lat="47.10771" lon="-2.08869">
        <ele>21.29</ele>
        <time>2015-08-07T13:21:01Z</time>
      </trkpt>
      <trkpt lat="47.10756" lon="-2.0891">
        <ele>23.69</ele>
        <time>2015-08-07T13:21:12Z</time>
      </trkpt>
      <trkpt lat="47.10749" lon="-2.08926">
        <ele>23.69</ele>
        <time>2015-08-07T13:21:15Z</time>
      </trkpt>
      <trkpt lat="47.10744" lon="-2.08951">
        <ele>22.25</ele>
        <time>2015-08-07T13:21:19Z</time>
      </trkpt>
      <trkpt lat="47.10757" lon="-2.09034">
        <ele>22.73</ele>
        <time>2015-08-07T13:21:32Z</time>
      </trkpt>
      <trkpt lat="47.10762" lon="-2.09069">
        <ele>23.21</ele>
        <time>2015-08-07T13:21:41Z</time>
      </trkpt>
      <trkpt lat="47.10735" lon="-2.09079">
        <ele>25.13</ele>
        <time>2015-08-07T13:21:51Z</time>
      </trkpt>
      <trkpt lat="47.10674" lon="-2.09093">
        <ele>25.61</ele>
        <time>2015-08-07T13:22:05Z</time>
      </trkpt>
      <trkpt lat="47.10639" lon="-2.09113">
        <ele>24.17</ele>
        <time>2015-08-07T13:22:16Z</time>
      </trkpt>
      <trkpt lat="47.10594" lon="-2.09139">
        <ele>20.32</ele>
        <time>2015-08-07T13:22:27Z</time>
      </trkpt>
      <trkpt lat="47.10541" lon="-2.09169">
        <ele>15.52</ele>
        <time>2015-08-07T13:22:38Z</time>
      </trkpt>
      <trkpt lat="47.10532" lon="-2.09172">
        <ele>14.56</ele>
        <time>2015-08-07T13:22:43Z</time>
      </trkpt>
      <trkpt lat="47.10529" lon="-2.09162">
        <ele>10.71</ele>
        <time>2015-08-07T13:22:49Z</time>
      </trkpt>
      <trkpt lat="47.1052" lon="-2.09147">
        <ele>9.75</ele>
        <time>2015-08-07T13:23:01Z</time>
      </trkpt>
      <trkpt lat="47.10511" lon="-2.09127">
        <ele>9.75</ele>
        <time>2015-08-07T13:23:12Z</time>
      </trkpt>
      <trkpt lat="47.10492" lon="-2.09097">
        <ele>8.31</ele>
        <time>2015-08-07T13:23:20Z</time>
      </trkpt>
      <trkpt lat="47.10506" lon="-2.09118">
        <ele>8.79</ele>
        <time>2015-08-07T13:23:33Z</time>
      </trkpt>
      <trkpt lat="47.10524" lon="-2.09155">
        <ele>12.63</ele>
        <time>2015-08-07T13:23:48Z</time>
      </trkpt>
      <trkpt lat="47.10529" lon="-2.0917">
        <ele>15.04</ele>
        <time>2015-08-07T13:23:54Z</time>
      </trkpt>
      <trkpt lat="47.10552" lon="-2.09156">
        <ele>15.04</ele>
        <time>2015-08-07T13:24:09Z</time>
      </trkpt>
      <trkpt lat="47.10584" lon="-2.09144">
        <ele>17.44</ele>
        <time>2015-08-07T13:24:22Z</time>
      </trkpt>
      <trkpt lat="47.10607" lon="-2.0913">
        <ele>20.81</ele>
        <time>2015-08-07T13:24:35Z</time>
      </trkpt>
      <trkpt lat="47.10629" lon="-2.09118">
        <ele>21.77</ele>
        <time>2015-08-07T13:24:47Z</time>
      </trkpt>
      <trkpt lat="47.10646" lon="-2.09108">
        <ele>22.25</ele>
        <time>2015-08-07T13:24:56Z</time>
      </trkpt>
      <trkpt lat="47.10648" lon="-2.09105">
        <ele>22.25</ele>
        <time>2015-08-07T13:24:58Z</time>
      </trkpt>
      <trkpt lat="47.10682" lon="-2.09088">
        <ele>24.17</ele>
        <time>2015-08-07T13:25:13Z</time>
      </trkpt>
      <trkpt lat="47.10732" lon="-2.09078">
        <ele>25.61</ele>
        <time>2015-08-07T13:25:27Z</time>
      </trkpt>
      <trkpt lat="47.10756" lon="-2.09064">
        <ele>25.61</ele>
        <time>2015-08-07T13:25:38Z</time>
      </trkpt>
      <trkpt lat="47.10779" lon="-2.0907">
        <ele>24.65</ele>
        <time>2015-08-07T13:25:47Z</time>
      </trkpt>
      <trkpt lat="47.10815" lon="-2.09108">
        <ele>24.65</ele>
        <time>2015-08-07T13:25:59Z</time>
      </trkpt>
      <trkpt lat="47.10822" lon="-2.09141">
        <ele>23.69</ele>
        <time>2015-08-07T13:26:05Z</time>
      </trkpt>
      <trkpt lat="47.10828" lon="-2.09166">
        <ele>23.21</ele>
        <time>2015-08-07T13:26:09Z</time>
      </trkpt>
      <trkpt lat="47.10842" lon="-2.0925">
        <ele>22.73</ele>
        <time>2015-08-07T13:26:21Z</time>
      </trkpt>
      <trkpt lat="47.10877" lon="-2.09348">
        <ele>24.17</ele>
        <time>2015-08-07T13:26:36Z</time>
      </trkpt>
      <trkpt lat="47.10879" lon="-2.09354">
        <ele>24.17</ele>
        <time>2015-08-07T13:26:37Z</time>
      </trkpt>
      <trkpt lat="47.1089" lon="-2.09369">
        <ele>24.65</ele>
        <time>2015-08-07T13:26:40Z</time>
      </trkpt>
      <trkpt lat="47.10932" lon="-2.09462">
        <ele>24.65</ele>
        <time>2015-08-07T13:26:55Z</time>
      </trkpt>
      <trkpt lat="47.1096" lon="-2.09535">
        <ele>24.17</ele>
        <time>2015-08-07T13:27:06Z</time>
      </trkpt>
      <trkpt lat="47.10972" lon="-2.09568">
        <ele>23.69</ele>
        <time>2015-08-07T13:27:11Z</time>
      </trkpt>
      <trkpt lat="47.10993" lon="-2.09645">
        <ele>22.25</ele>
        <time>2015-08-07T13:27:25Z</time>
      </trkpt>
      <trkpt lat="47.11013" lon="-2.09719">
        <ele>19.36</ele>
        <time>2015-08-07T13:27:38Z</time>
      </trkpt>
      <trkpt lat="47.11037" lon="-2.09802">
        <ele>18.4</ele>
        <time>2015-08-07T13:27:52Z</time>
      </trkpt>
      <trkpt lat="47.11043" lon="-2.09846">
        <ele>17.92</ele>
        <time>2015-08-07T13:27:59Z</time>
      </trkpt>
      <trkpt lat="47.11041" lon="-2.09879">
        <ele>18.88</ele>
        <time>2015-08-07T13:28:04Z</time>
      </trkpt>
      <trkpt lat="47.11039" lon="-2.09892">
        <ele>20.32</ele>
        <time>2015-08-07T13:28:06Z</time>
      </trkpt>
      <trkpt lat="47.11031" lon="-2.09917">
        <ele>22.73</ele>
        <time>2015-08-07T13:28:10Z</time>
      </trkpt>
      <trkpt lat="47.11021" lon="-2.09941">
        <ele>24.17</ele>
        <time>2015-08-07T13:28:14Z</time>
      </trkpt>
      <trkpt lat="47.10991" lon="-2.10014">
        <ele>26.09</ele>
        <time>2015-08-07T13:28:28Z</time>
      </trkpt>
      <trkpt lat="47.10976" lon="-2.10043">
        <ele>27.05</ele>
        <time>2015-08-07T13:28:38Z</time>
      </trkpt>
      <trkpt lat="47.10961" lon="-2.10082">
        <ele>28.02</ele>
        <time>2015-08-07T13:28:46Z</time>
      </trkpt>
      <trkpt lat="47.1093" lon="-2.10151">
        <ele>30.9</ele>
        <time>2015-08-07T13:28:59Z</time>
      </trkpt>
      <trkpt lat="47.10894" lon="-2.10236">
        <ele>28.5</ele>
        <time>2015-08-07T13:29:13Z</time>
      </trkpt>
      <trkpt lat="47.10887" lon="-2.10249">
        <ele>28.02</ele>
        <time>2015-08-07T13:29:15Z</time>
      </trkpt>
      <trkpt lat="47.10871" lon="-2.10287">
        <ele>27.05</ele>
        <time>2015-08-07T13:29:21Z</time>
      </trkpt>
      <trkpt lat="47.10866" lon="-2.10301">
        <ele>26.57</ele>
        <time>2015-08-07T13:29:23Z</time>
      </trkpt>
      <trkpt lat="47.1085" lon="-2.10346">
        <ele>24.65</ele>
        <time>2015-08-07T13:29:31Z</time>
      </trkpt>
      <trkpt lat="47.10887" lon="-2.10399">
        <ele>20.81</ele>
        <time>2015-08-07T13:29:44Z</time>
      </trkpt>
      <trkpt lat="47.10891" lon="-2.10403">
        <ele>20.32</ele>
        <time>2015-08-07T13:29:45Z</time>
      </trkpt>
      <trkpt lat="47.10941" lon="-2.10451">
        <ele>20.81</ele>
        <time>2015-08-07T13:29:57Z</time>
      </trkpt>
      <trkpt lat="47.10947" lon="-2.10452">
        <ele>20.81</ele>
        <time>2015-08-07T13:30:00Z</time>
      </trkpt>
      <trkpt lat="47.10956" lon="-2.10439">
        <ele>20.81</ele>
        <time>2015-08-07T13:30:06Z</time>
      </trkpt>
      <trkpt lat="47.10985" lon="-2.10377">
        <ele>20.32</ele>
        <time>2015-08-07T13:30:21Z</time>
      </trkpt>
      <trkpt lat="47.11005" lon="-2.10333">
        <ele>19.36</ele>
        <time>2015-08-07T13:30:32Z</time>
      </trkpt>
      <trkpt lat="47.11018" lon="-2.10302">
        <ele>18.88</ele>
        <time>2015-08-07T13:30:38Z</time>
      </trkpt>
      <trkpt lat="47.11027" lon="-2.10282">
        <ele>18.88</ele>
        <time>2015-08-07T13:30:42Z</time>
      </trkpt>
      <trkpt lat="47.11038" lon="-2.10232">
        <ele>19.36</ele>
        <time>2015-08-07T13:30:53Z</time>
      </trkpt>
      <trkpt lat="47.11043" lon="-2.10228">
        <ele>19.84</ele>
        <time>2015-08-07T13:30:55Z</time>
      </trkpt>
      <trkpt lat="47.11055" lon="-2.10239">
        <ele>19.84</ele>
        <time>2015-08-07T13:31:00Z</time>
      </trkpt>
      <trkpt lat="47.11108" lon="-2.10298">
        <ele>17.44</ele>
        <time>2015-08-07T13:31:11Z</time>
      </trkpt>
      <trkpt lat="47.11168" lon="-2.1035">
        <ele>14.08</ele>
        <time>2015-08-07T13:31:21Z</time>
      </trkpt>
      <trkpt lat="47.11193" lon="-2.10371">
        <ele>14.08</ele>
        <time>2015-08-07T13:31:26Z</time>
      </trkpt>
      <trkpt lat="47.11226" lon="-2.10387">
        <ele>12.63</ele>
        <time>2015-08-07T13:31:37Z</time>
      </trkpt>
      <trkpt lat="47.11228" lon="-2.10387">
        <ele>12.63</ele>
        <time>2015-08-07T13:31:38Z</time>
      </trkpt>
      <trkpt lat="47.11226" lon="-2.10403">
        <ele>11.19</ele>
        <time>2015-08-07T13:31:44Z</time>
      </trkpt>
      <trkpt lat="47.11195" lon="-2.10441">
        <ele>11.19</ele>
        <time>2015-08-07T13:31:58Z</time>
      </trkpt>
      <trkpt lat="47.11166" lon="-2.10452">
        <ele>11.19</ele>
        <time>2015-08-07T13:32:08Z</time>
      </trkpt>
      <trkpt lat="47.11164" lon="-2.1045">
        <ele>11.19</ele>
        <time>2015-08-07T13:32:10Z</time>
      </trkpt>
      <trkpt lat="47.11177" lon="-2.1045">
        <ele>10.71</ele>
        <time>2015-08-07T13:32:17Z</time>
      </trkpt>
      <trkpt lat="47.11217" lon="-2.10417">
        <ele>9.27</ele>
        <time>2015-08-07T13:32:34Z</time>
      </trkpt>
      <trkpt lat="47.11227" lon="-2.10402">
        <ele>9.27</ele>
        <time>2015-08-07T13:32:45Z</time>
      </trkpt>
      <trkpt lat="47.11227" lon="-2.10402">
        <ele>9.75</ele>
        <time>2015-08-07T13:32:50Z</time>
      </trkpt>
      <trkpt lat="47.11227" lon="-2.10397">
        <ele>9.75</ele>
        <time>2015-08-07T13:32:53Z</time>
      </trkpt>
      <trkpt lat="47.11245" lon="-2.10378">
        <ele>9.75</ele>
        <time>2015-08-07T13:33:04Z</time>
      </trkpt>
      <trkpt lat="47.11288" lon="-2.10363">
        <ele>7.83</ele>
        <time>2015-08-07T13:33:13Z</time>
      </trkpt>
      <trkpt lat="47.11307" lon="-2.10349">
        <ele>5.91</ele>
        <time>2015-08-07T13:33:17Z</time>
      </trkpt>
      <trkpt lat="47.11323" lon="-2.10335">
        <ele>4.94</ele>
        <time>2015-08-07T13:33:20Z</time>
      </trkpt>
      <trkpt lat="47.11371" lon="-2.1027">
        <ele>1.1</ele>
        <time>2015-08-07T13:33:30Z</time>
      </trkpt>
      <trkpt lat="47.11383" lon="-2.10254">
        <ele>1.1</ele>
        <time>2015-08-07T13:33:33Z</time>
      </trkpt>
      <trkpt lat="47.1139" lon="-2.10243">
        <ele>1.1</ele>
        <time>2015-08-07T13:33:35Z</time>
      </trkpt>
      <trkpt lat="47.11402" lon="-2.10213">
        <ele>1.1</ele>
        <time>2015-08-07T13:33:40Z</time>
      </trkpt>
      <trkpt lat="47.11415" lon="-2.10134">
        <ele>-0.34</ele>
        <time>2015-08-07T13:33:51Z</time>
      </trkpt>
      <trkpt lat="47.11422" lon="-2.1005">
        <ele>-0.82</ele>
        <time>2015-08-07T13:34:05Z</time>
      </trkpt>
      <trkpt lat="47.1143" lon="-2.09985">
        <ele>-0.34</ele>
        <time>2015-08-07T13:34:18Z</time>
      </trkpt>
      <trkpt lat="47.11433" lon="-2.09958">
        <ele>-0.82</ele>
        <time>2015-08-07T13:34:23Z</time>
      </trkpt>
      <trkpt lat="47.11437" lon="-2.0994">
        <ele>-1.3</ele>
        <time>2015-08-07T13:34:26Z</time>
      </trkpt>
      <trkpt lat="47.11453" lon="-2.09875">
        <ele>0.14</ele>
        <time>2015-08-07T13:34:40Z</time>
      </trkpt>
      <trkpt lat="47.11456" lon="-2.09861">
        <ele>0.62</ele>
        <time>2015-08-07T13:34:44Z</time>
      </trkpt>
      <trkpt lat="47.11467" lon="-2.09853">
        <ele>1.1</ele>
        <time>2015-08-07T13:34:49Z</time>
      </trkpt>
      <trkpt lat="47.115" lon="-2.09863">
        <ele>0.62</ele>
        <time>2015-08-07T13:35:01Z</time>
      </trkpt>
      <trkpt lat="47.11527" lon="-2.09869">
        <ele>2.06</ele>
        <time>2015-08-07T13:35:11Z</time>
      </trkpt>
      <trkpt lat="47.1153" lon="-2.09866">
        <ele>1.1</ele>
        <time>2015-08-07T13:35:25Z</time>
      </trkpt>
      <trkpt lat="47.1153" lon="-2.09866">
        <ele>2.06</ele>
        <time>2015-08-07T13:35:37Z</time>
      </trkpt>
      <trkpt lat="47.11533" lon="-2.09869">
        <ele>2.06</ele>
        <time>2015-08-07T13:35:41Z</time>
      </trkpt>
      <trkpt lat="47.11538" lon="-2.0988">
        <ele>2.06</ele>
        <time>2015-08-07T13:35:46Z</time>
      </trkpt>
      <trkpt lat="47.11537" lon="-2.09937">
        <ele>1.58</ele>
        <time>2015-08-07T13:35:59Z</time>
      </trkpt>
      <trkpt lat="47.11534" lon="-2.0998">
        <ele>1.1</ele>
        <time>2015-08-07T13:36:11Z</time>
      </trkpt>
      <trkpt lat="47.1153" lon="-2.09979">
        <ele>-0.34</ele>
        <time>2015-08-07T13:36:20Z</time>
      </trkpt>
      <trkpt lat="47.1153" lon="-2.0998">
        <ele>-0.82</ele>
        <time>2015-08-07T13:36:21Z</time>
      </trkpt>
      <trkpt lat="47.11534" lon="-2.09991">
        <ele>-3.71</ele>
        <time>2015-08-07T13:36:27Z</time>
      </trkpt>
      <trkpt lat="47.11536" lon="-2.1">
        <ele>-5.15</ele>
        <time>2015-08-07T13:36:30Z</time>
      </trkpt>
      <trkpt lat="47.1154" lon="-2.1005">
        <ele>-7.07</ele>
        <time>2015-08-07T13:36:42Z</time>
      </trkpt>
      <trkpt lat="47.11539" lon="-2.1006">
        <ele>-7.07</ele>
        <time>2015-08-07T13:36:44Z</time>
      </trkpt>
      <trkpt lat="47.11538" lon="-2.10074">
        <ele>-6.59</ele>
        <time>2015-08-07T13:36:48Z</time>
      </trkpt>
      <trkpt lat="47.1154" lon="-2.10121">
        <ele>-6.59</ele>
        <time>2015-08-07T13:36:59Z</time>
      </trkpt>
      <trkpt lat="47.11539" lon="-2.10187">
        <ele>-2.75</ele>
        <time>2015-08-07T13:37:11Z</time>
      </trkpt>
      <trkpt lat="47.11514" lon="-2.10193">
        <ele>0.62</ele>
        <time>2015-08-07T13:37:22Z</time>
      </trkpt>
      <trkpt lat="47.11489" lon="-2.10188">
        <ele>3.02</ele>
        <time>2015-08-07T13:37:34Z</time>
      </trkpt>
      <trkpt lat="47.11489" lon="-2.10167">
        <ele>3.98</ele>
        <time>2015-08-07T13:37:40Z</time>
      </trkpt>
      <trkpt lat="47.11491" lon="-2.10099">
        <ele>4.46</ele>
        <time>2015-08-07T13:37:56Z</time>
      </trkpt>
      <trkpt lat="47.11496" lon="-2.10043">
        <ele>5.91</ele>
        <time>2015-08-07T13:38:09Z</time>
      </trkpt>
      <trkpt lat="47.11498" lon="-2.10033">
        <ele>5.91</ele>
        <time>2015-08-07T13:38:20Z</time>
      </trkpt>
      <trkpt lat="47.11499" lon="-2.10032">
        <ele>5.42</ele>
        <time>2015-08-07T13:38:24Z</time>
      </trkpt>
      <trkpt lat="47.11502" lon="-2.10024">
        <ele>3.98</ele>
        <time>2015-08-07T13:38:28Z</time>
      </trkpt>
      <trkpt lat="47.11508" lon="-2.10018">
        <ele>0.62</ele>
        <time>2015-08-07T13:38:41Z</time>
      </trkpt>
      <trkpt lat="47.11508" lon="-2.10017">
        <ele>0.14</ele>
        <time>2015-08-07T13:39:04Z</time>
      </trkpt>
      <trkpt lat="47.11509" lon="-2.10016">
        <ele>1.1</ele>
        <time>2015-08-07T13:39:33Z</time>
      </trkpt>
      <trkpt lat="47.11509" lon="-2.10016">
        <ele>1.1</ele>
        <time>2015-08-07T13:40:01Z</time>
      </trkpt>
      <trkpt lat="47.11509" lon="-2.10016">
        <ele>1.1</ele>
        <time>2015-08-07T13:40:24Z</time>
      </trkpt>
      <trkpt lat="47.1151" lon="-2.10015">
        <ele>2.54</ele>
        <time>2015-08-07T13:40:47Z</time>
      </trkpt>
      <trkpt lat="47.11511" lon="-2.10015">
        <ele>3.98</ele>
        <time>2015-08-07T13:41:15Z</time>
      </trkpt>
      <trkpt lat="47.11511" lon="-2.10014">
        <ele>6.39</ele>
        <time>2015-08-07T13:41:39Z</time>
      </trkpt>
      <trkpt lat="47.11512" lon="-2.10014">
        <ele>7.35</ele>
        <time>2015-08-07T13:42:02Z</time>
      </trkpt>
      <trkpt lat="47.11511" lon="-2.10013">
        <ele>8.31</ele>
        <time>2015-08-07T13:42:31Z</time>
      </trkpt>
      <trkpt lat="47.11511" lon="-2.10013">
        <ele>9.75</ele>
        <time>2015-08-07T13:42:59Z</time>
      </trkpt>
      <trkpt lat="47.1151" lon="-2.10013">
        <ele>9.75</ele>
        <time>2015-08-07T13:43:23Z</time>
      </trkpt>
      <trkpt lat="47.1151" lon="-2.10014">
        <ele>9.27</ele>
        <time>2015-08-07T13:43:53Z</time>
      </trkpt>
      <trkpt lat="47.1151" lon="-2.10014">
        <ele>8.31</ele>
        <time>2015-08-07T13:44:18Z</time>
      </trkpt>
      <trkpt lat="47.1151" lon="-2.10015">
        <ele>7.35</ele>
        <time>2015-08-07T13:44:42Z</time>
      </trkpt>
      <trkpt lat="47.1151" lon="-2.10016">
        <ele>5.91</ele>
        <time>2015-08-07T13:45:09Z</time>
      </trkpt>
      <trkpt lat="47.11511" lon="-2.10016">
        <ele>5.91</ele>
        <time>2015-08-07T13:45:40Z</time>
      </trkpt>
      <trkpt lat="47.1151" lon="-2.10015">
        <ele>5.91</ele>
        <time>2015-08-07T13:46:04Z</time>
      </trkpt>
      <trkpt lat="47.1151" lon="-2.10015">
        <ele>5.91</ele>
        <time>2015-08-07T13:46:33Z</time>
      </trkpt>
      <trkpt lat="47.11509" lon="-2.10015">
        <ele>6.39</ele>
        <time>2015-08-07T13:47:06Z</time>
      </trkpt>
      <trkpt lat="47.11509" lon="-2.10014">
        <ele>6.39</ele>
        <time>2015-08-07T13:47:31Z</time>
      </trkpt>
      <trkpt lat="47.1151" lon="-2.10014">
        <ele>7.83</ele>
        <time>2015-08-07T13:48:00Z</time>
      </trkpt>
      <trkpt lat="47.11512" lon="-2.10013">
        <ele>9.27</ele>
        <time>2015-08-07T13:48:27Z</time>
      </trkpt>
      <trkpt lat="47.11513" lon="-2.10013">
        <ele>9.75</ele>
        <time>2015-08-07T13:48:56Z</time>
      </trkpt>
      <trkpt lat="47.11513" lon="-2.10014">
        <ele>9.75</ele>
        <time>2015-08-07T13:49:20Z</time>
      </trkpt>
      <trkpt lat="47.11513" lon="-2.10014">
        <ele>9.27</ele>
        <time>2015-08-07T13:49:46Z</time>
      </trkpt>
      <trkpt lat="47.11513" lon="-2.10014">
        <ele>9.27</ele>
        <time>2015-08-07T13:50:12Z</time>
      </trkpt>
      <trkpt lat="47.11513" lon="-2.10014">
        <ele>8.79</ele>
        <time>2015-08-07T13:50:35Z</time>
      </trkpt>
      <trkpt lat="47.11512" lon="-2.10014">
        <ele>8.79</ele>
        <time>2015-08-07T13:50:56Z</time>
      </trkpt>
      <trkpt lat="47.11512" lon="-2.10013">
        <ele>9.27</ele>
        <time>2015-08-07T13:51:29Z</time>
      </trkpt>
      <trkpt lat="47.11511" lon="-2.10013">
        <ele>9.75</ele>
        <time>2015-08-07T13:51:58Z</time>
      </trkpt>
      <trkpt lat="47.11512" lon="-2.10012">
        <ele>10.23</ele>
        <time>2015-08-07T13:52:21Z</time>
      </trkpt>
      <trkpt lat="47.11512" lon="-2.10011">
        <ele>10.23</ele>
        <time>2015-08-07T13:52:44Z</time>
      </trkpt>
      <trkpt lat="47.11513" lon="-2.10011">
        <ele>10.23</ele>
        <time>2015-08-07T13:53:05Z</time>
      </trkpt>
      <trkpt lat="47.11514" lon="-2.10011">
        <ele>11.19</ele>
        <time>2015-08-07T13:53:28Z</time>
      </trkpt>
      <trkpt lat="47.11515" lon="-2.1001">
        <ele>11.67</ele>
        <time>2015-08-07T13:53:53Z</time>
      </trkpt>
      <trkpt lat="47.11515" lon="-2.1001">
        <ele>11.67</ele>
        <time>2015-08-07T13:54:15Z</time>
      </trkpt>
      <trkpt lat="47.11516" lon="-2.10011">
        <ele>12.15</ele>
        <time>2015-08-07T13:54:38Z</time>
      </trkpt>
      <trkpt lat="47.11516" lon="-2.1001">
        <ele>12.63</ele>
        <time>2015-08-07T13:55:03Z</time>
      </trkpt>
      <trkpt lat="47.11516" lon="-2.1001">
        <ele>13.6</ele>
        <time>2015-08-07T13:55:29Z</time>
      </trkpt>
      <trkpt lat="47.11517" lon="-2.1001">
        <ele>14.56</ele>
        <time>2015-08-07T13:55:58Z</time>
      </trkpt>
      <trkpt lat="47.11517" lon="-2.10009">
        <ele>15.04</ele>
        <time>2015-08-07T13:56:22Z</time>
      </trkpt>
      <trkpt lat="47.11517" lon="-2.10009">
        <ele>16.96</ele>
        <time>2015-08-07T13:56:47Z</time>
      </trkpt>
      <trkpt lat="47.11516" lon="-2.10009">
        <ele>16.48</ele>
        <time>2015-08-07T13:57:11Z</time>
      </trkpt>
      <trkpt lat="47.11516" lon="-2.10009">
        <ele>16.48</ele>
        <time>2015-08-07T13:57:35Z</time>
      </trkpt>
      <trkpt lat="47.11515" lon="-2.1001">
        <ele>16</ele>
        <time>2015-08-07T13:57:58Z</time>
      </trkpt>
      <trkpt lat="47.11514" lon="-2.1001">
        <ele>15.04</ele>
        <time>2015-08-07T13:58:19Z</time>
      </trkpt>
      <trkpt lat="47.11514" lon="-2.10012">
        <ele>14.56</ele>
        <time>2015-08-07T13:58:32Z</time>
      </trkpt>
      <trkpt lat="47.11513" lon="-2.10014">
        <ele>13.6</ele>
        <time>2015-08-07T13:58:58Z</time>
      </trkpt>
      <trkpt lat="47.11513" lon="-2.10014">
        <ele>13.12</ele>
        <time>2015-08-07T13:59:25Z</time>
      </trkpt>
      <trkpt lat="47.11512" lon="-2.10014">
        <ele>12.63</ele>
        <time>2015-08-07T13:59:51Z</time>
      </trkpt>
      <trkpt lat="47.11512" lon="-2.10014">
        <ele>12.15</ele>
        <time>2015-08-07T14:00:13Z</time>
      </trkpt>
    </trkseg>
  </trk>
</gpx>